[[{"header":{"parameterUnit":"m.s-1","parameterCategory":1,"la1":30.6,"la2":29.2853,"lo1":-89.7004,"lo2":-87.6739,"dy":0.0162,"dx":0.0183,"nx":112,"ny":82,"refTime":"2024-05-23T12:00:00:Z","depth":0,"parameterNumber":2,"parameterNumberName":"U-component_of_WINDS"},"data":[0.0,0.0,0.0,0.0,0.0,0.0,0.0,0.0,0.0,0.0,0.0,0.0,0.0,0.0,0.0,0.0,0.0,0.0,0.0,0.0,0.0,0.0,0.0,0.0,0.0,0.0,0.0,0.0,0.0,0.0,0.0,0.0,0.0,0.0,0.0,0.0,0.0,0.0,0.0,0.0,0.0,0.0,0.0,0.0,0.0,0.0,0.0,0.0,0.0,0.0,0.0,0.0,0.0,0.0,0.0,0.0,0.0,0.0,0.0,0.0,0.0,0.0,0.0,0.0,0.0,0.0,0.0,0.0,0.0,0.0,0.0,0.0,0.0,0.0,0.0,0.0,0.0,0.0,0.0,0.0,0.0,0.0,0.0,0.0,0.0,0.0,0.0,0.0,0.0,0.0,-3.1017,-3.3133,-3.7094,-3.9316,-3.8577,-3.8209,-3.6292,-3.2246,0.0,0.0,0.0,0.0,0.0,0.0,0.0,0.0,0.0,0.0,0.0,0.0,0.0,0.0,0.0,0.0,0.0,0.0,0.0,0.0,0.0,0.0,0.0,0.0,0.0,0.0,0.0,0.0,0.0,0.0,0.0,0.0,0.0,0.0,0.0,0.0,0.0,0.0,0.0,0.0,0.0,0.0,0.0,0.0,0.0,0.0,0.0,0.0,0.0,0.0,0.0,0.0,0.0,0.0,0.0,0.0,0.0,0.0,0.0,0.0,0.0,0.0,0.0,0.0,0.0,0.0,0.0,0.0,0.0,0.0,0.0,0.0,0.0,0.0,0.0,0.0,0.0,0.0,0.0,0.0,0.0,0.0,0.0,0.0,0.0,0.0,0.0,0.0,0.0,0.0,0.0,0.0,0.0,0.0,0.0,0.0,0.0,0.0,0.0,0.0,0.0,0.0,0.0,0.0,-3.1861,-3.6281,-3.8452,-3.9542,-3.9429,-3.8553,-3.6523,-3.3058,0.0,0.0,0.0,0.0,0.0,0.0,0.0,0.0,0.0,0.0,0.0,0.0,0.0,0.0,0.0,0.0,0.0,0.0,0.0,0.0,0.0,0.0,0.0,0.0,0.0,0.0,0.0,0.0,0.0,0.0,0.0,0.0,0.0,0.0,0.0,0.0,0.0,0.0,0.0,0.0,0.0,0.0,0.0,0.0,0.0,0.0,0.0,0.0,0.0,0.0,0.0,0.0,0.0,0.0,0.0,0.0,0.0,0.0,0.0,0.0,0.0,0.0,0.0,0.0,0.0,0.0,0.0,0.0,0.0,0.0,0.0,0.0,0.0,0.0,0.0,0.0,0.0,0.0,0.0,0.0,0.0,0.0,0.0,0.0,0.0,0.0,0.0,0.0,0.0,0.0,0.0,0.0,0.0,0.0,0.0,0.0,0.0,0.0,0.0,0.0,0.0,0.0,0.0,-3.0344,-3.3036,-3.7088,-3.8617,-3.9401,-3.9569,-3.8461,-3.6374,-3.3157,-3.1361,0.0,0.0,0.0,0.0,0.0,0.0,0.0,0.0,0.0,0.0,0.0,0.0,0.0,0.0,0.0,0.0,0.0,0.0,0.0,0.0,0.0,0.0,0.0,0.0,0.0,0.0,0.0,0.0,0.0,0.0,0.0,0.0,0.0,0.0,0.0,0.0,0.0,0.0,0.0,0.0,0.0,0.0,0.0,0.0,0.0,0.0,0.0,0.0,0.0,0.0,0.0,0.0,0.0,0.0,0.0,0.0,0.0,0.0,0.0,0.0,0.0,0.0,0.0,0.0,0.0,0.0,0.0,0.0,0.0,0.0,0.0,0.0,0.0,0.0,0.0,0.0,0.0,0.0,0.0,0.0,0.0,0.0,0.0,0.0,0.0,0.0,0.0,0.0,0.0,0.0,0.0,0.0,0.0,0.0,0.0,0.0,0.0,0.0,0.0,0.0,0.0,0.0,-3.2986,-3.4578,-3.7492,-3.8577,-3.9225,-3.9557,-3.7963,-3.5763,-3.3071,-3.0769,0.0,0.0,0.0,0.0,0.0,0.0,0.0,0.0,0.0,0.0,0.0,0.0,0.0,0.0,0.0,0.0,0.0,0.0,0.0,0.0,0.0,0.0,0.0,0.0,0.0,0.0,0.0,0.0,0.0,0.0,0.0,0.0,0.0,0.0,0.0,0.0,0.0,0.0,0.0,0.0,0.0,0.0,0.0,0.0,0.0,0.0,0.0,0.0,0.0,0.0,0.0,0.0,0.0,0.0,0.0,0.0,0.0,0.0,0.0,0.0,0.0,0.0,0.0,0.0,0.0,0.0,0.0,0.0,0.0,0.0,0.0,0.0,0.0,0.0,0.0,0.0,0.0,0.0,0.0,0.0,0.0,0.0,0.0,0.0,0.0,0.0,0.0,0.0,0.0,0.0,0.0,0.0,0.0,0.0,0.0,0.0,0.0,0.0,0.0,0.0,0.0,0.0,-3.4137,-3.6707,-3.8432,-3.8896,-3.9225,-3.9557,-3.6881,-3.4533,-3.2994,-2.9083,0.0,0.0,0.0,0.0,0.0,0.0,0.0,0.0,0.0,0.0,0.0,0.0,0.0,0.0,0.0,0.0,0.0,0.0,0.0,0.0,0.0,0.0,0.0,0.0,0.0,0.0,0.0,0.0,0.0,0.0,0.0,0.0,0.0,0.0,0.0,0.0,0.0,0.0,0.0,0.0,0.0,0.0,0.0,0.0,0.0,0.0,0.0,0.0,0.0,0.0,0.0,0.0,0.0,0.0,0.0,0.0,0.0,0.0,0.0,0.0,0.0,0.0,0.0,0.0,0.0,0.0,0.0,0.0,0.0,0.0,0.0,0.0,0.0,0.0,0.0,0.0,0.0,0.0,0.0,0.0,0.0,0.0,0.0,0.0,0.0,0.0,0.0,0.0,0.0,0.0,0.0,0.0,0.0,0.0,0.0,0.0,0.0,0.0,0.0,0.0,0.0,0.0,-3.3366,-3.5752,-3.8432,-3.8788,-3.9059,-3.9583,-3.7597,-3.5314,-3.3026,0.0,0.0,0.0,0.0,0.0,0.0,0.0,0.0,0.0,0.0,0.0,0.0,0.0,0.0,0.0,0.0,0.0,0.0,0.0,0.0,0.0,0.0,0.0,0.0,0.0,0.0,0.0,0.0,0.0,0.0,0.0,0.0,0.0,0.0,0.0,0.0,0.0,0.0,0.0,0.0,0.0,0.0,0.0,0.0,0.0,0.0,0.0,0.0,0.0,0.0,0.0,0.0,0.0,0.0,0.0,0.0,0.0,0.0,0.0,0.0,0.0,0.0,0.0,0.0,0.0,0.0,0.0,0.0,0.0,0.0,0.0,0.0,0.0,0.0,0.0,0.0,0.0,0.0,0.0,0.0,0.0,0.0,0.0,0.0,0.0,0.0,0.0,0.0,0.0,0.0,0.0,0.0,0.0,0.0,0.0,0.0,0.0,0.0,0.0,0.0,0.0,0.0,-3.1066,-3.3256,-3.5642,-3.8395,-3.8689,-3.8816,-3.9183,-3.7148,-3.4907,-3.2568,0.0,0.0,0.0,0.0,0.0,0.0,0.0,0.0,0.0,0.0,0.0,0.0,0.0,0.0,0.0,0.0,0.0,0.0,0.0,0.0,0.0,0.0,0.0,0.0,0.0,0.0,0.0,0.0,0.0,0.0,0.0,0.0,0.0,0.0,0.0,0.0,0.0,0.0,0.0,0.0,0.0,0.0,0.0,0.0,0.0,0.0,0.0,0.0,0.0,0.0,0.0,0.0,0.0,0.0,0.0,0.0,0.0,0.0,0.0,0.0,0.0,0.0,0.0,0.0,0.0,0.0,0.0,0.0,0.0,0.0,0.0,0.0,0.0,0.0,0.0,0.0,0.0,0.0,0.0,0.0,0.0,0.0,0.0,0.0,0.0,0.0,0.0,0.0,0.0,0.0,0.0,0.0,0.0,0.0,0.0,0.0,0.0,0.0,0.0,0.0,0.0,0.0,-3.1213,-3.4261,-3.6927,-3.8542,-3.8689,-3.858,-3.8319,-3.5249,-3.277,0.0,0.0,0.0,0.0,0.0,0.0,0.0,0.0,0.0,0.0,0.0,0.0,0.0,0.0,0.0,0.0,0.0,0.0,0.0,0.0,0.0,0.0,0.0,0.0,0.0,0.0,0.0,0.0,0.0,0.0,0.0,0.0,0.0,0.0,0.0,0.0,0.0,0.0,0.0,0.0,0.0,0.0,0.0,0.0,0.0,0.0,0.0,0.0,0.0,0.0,0.0,0.0,0.0,0.0,0.0,0.0,0.0,0.0,0.0,0.0,0.0,0.0,0.0,0.0,0.0,0.0,0.0,0.0,0.0,0.0,0.0,0.0,0.0,0.0,0.0,0.0,0.0,0.0,0.0,0.0,0.0,0.0,0.0,0.0,0.0,0.0,0.0,0.0,0.0,0.0,0.0,0.0,0.0,0.0,0.0,0.0,0.0,0.0,0.0,0.0,0.0,0.0,0.0,-3.114,-3.4261,-3.6927,-3.8542,-3.8689,-3.8516,-3.8078,-3.6186,-3.3928,-3.1299,0.0,0.0,0.0,0.0,0.0,0.0,0.0,0.0,0.0,0.0,0.0,0.0,0.0,0.0,0.0,0.0,0.0,0.0,0.0,0.0,0.0,0.0,0.0,0.0,0.0,0.0,0.0,0.0,0.0,0.0,0.0,0.0,0.0,0.0,0.0,0.0,0.0,0.0,0.0,0.0,0.0,0.0,0.0,0.0,0.0,0.0,0.0,0.0,0.0,0.0,0.0,0.0,0.0,0.0,0.0,0.0,0.0,0.0,0.0,0.0,0.0,0.0,0.0,0.0,0.0,0.0,0.0,0.0,0.0,0.0,0.0,0.0,0.0,0.0,0.0,0.0,0.0,0.0,0.0,0.0,0.0,0.0,0.0,0.0,0.0,0.0,0.0,0.0,0.0,0.0,0.0,0.0,0.0,0.0,0.0,0.0,0.0,0.0,0.0,0.0,0.0,0.0,-3.114,-3.4261,-3.6927,-3.8542,-3.8689,-3.8472,-3.796,-3.659,-3.4394,-3.1054,0.0,0.0,0.0,0.0,0.0,0.0,0.0,0.0,0.0,0.0,0.0,0.0,0.0,0.0,0.0,0.0,0.0,0.0,0.0,0.0,0.0,0.0,0.0,0.0,0.0,0.0,0.0,0.0,0.0,0.0,0.0,0.0,0.0,0.0,0.0,0.0,0.0,0.0,0.0,0.0,0.0,0.0,0.0,0.0,0.0,0.0,0.0,0.0,0.0,0.0,0.0,0.0,0.0,0.0,0.0,0.0,0.0,0.0,0.0,0.0,0.0,0.0,0.0,0.0,0.0,0.0,0.0,0.0,0.0,0.0,0.0,0.0,0.0,0.0,0.0,0.0,0.0,0.0,0.0,0.0,0.0,0.0,0.0,0.0,0.0,0.0,0.0,0.0,0.0,0.0,0.0,0.0,0.0,0.0,0.0,0.0,0.0,0.0,0.0,0.0,0.0,0.0,-3.1164,-3.4261,-3.6927,-3.8542,-3.8689,-3.8457,-3.7917,-3.6604,-3.4331,-3.0937,0.0,0.0,0.0,0.0,0.0,0.0,0.0,0.0,0.0,0.0,0.0,0.0,0.0,0.0,0.0,0.0,0.0,0.0,0.0,0.0,0.0,0.0,0.0,0.0,0.0,0.0,0.0,0.0,0.0,0.0,0.0,0.0,0.0,0.0,0.0,0.0,0.0,0.0,0.0,0.0,0.0,0.0,0.0,0.0,0.0,0.0,0.0,0.0,0.0,0.0,0.0,0.0,0.0,0.0,0.0,0.0,0.0,0.0,0.0,0.0,-2.9989,-2.8081,0.0,0.0,0.0,0.0,0.0,0.0,0.0,0.0,0.0,0.0,0.0,0.0,0.0,0.0,0.0,0.0,0.0,0.0,0.0,0.0,0.0,0.0,0.0,0.0,0.0,0.0,0.0,0.0,0.0,0.0,0.0,0.0,0.0,0.0,0.0,0.0,0.0,0.0,0.0,0.0,-3.1103,-3.4261,-3.6927,-3.8542,-3.8689,-3.8389,-3.7632,-3.6484,-3.4583,-3.1714,-2.8721,0.0,0.0,0.0,0.0,0.0,0.0,0.0,0.0,0.0,0.0,0.0,0.0,0.0,0.0,0.0,0.0,0.0,0.0,0.0,0.0,0.0,0.0,0.0,0.0,0.0,0.0,0.0,0.0,0.0,0.0,0.0,0.0,0.0,0.0,0.0,0.0,0.0,0.0,0.0,0.0,0.0,0.0,0.0,0.0,0.0,0.0,0.0,0.0,0.0,0.0,0.0,0.0,0.0,0.0,0.0,0.0,0.0,0.0,0.0,-3.3353,-3.1885,0.0,0.0,0.0,0.0,0.0,0.0,0.0,0.0,0.0,0.0,0.0,0.0,0.0,0.0,0.0,0.0,0.0,0.0,0.0,0.0,0.0,0.0,0.0,0.0,0.0,0.0,0.0,0.0,0.0,0.0,0.0,0.0,0.0,0.0,0.0,0.0,0.0,0.0,0.0,0.0,-3.1678,-3.4504,-3.6927,-3.8542,-3.8689,-3.8542,-3.8102,-3.6941,-3.5228,-3.2896,-2.9969,0.0,0.0,0.0,0.0,0.0,0.0,0.0,0.0,0.0,0.0,0.0,0.0,0.0,0.0,0.0,0.0,0.0,0.0,0.0,0.0,0.0,0.0,0.0,0.0,0.0,0.0,0.0,0.0,0.0,0.0,0.0,0.0,0.0,0.0,0.0,0.0,0.0,0.0,0.0,0.0,0.0,0.0,0.0,0.0,0.0,0.0,0.0,0.0,0.0,0.0,0.0,0.0,0.0,-3.6449,-3.6967,-3.7087,-3.7571,-3.8245,-3.8888,-3.7514,-3.6729,-3.6266,-3.3416,0.0,0.0,0.0,0.0,0.0,0.0,0.0,0.0,0.0,0.0,0.0,0.0,0.0,0.0,0.0,0.0,0.0,0.0,0.0,0.0,0.0,0.0,-3.4871,-3.4871,-3.5899,-3.6009,-3.2632,0.0,0.0,0.0,0.0,0.0,0.0,0.0,0.0,0.0,0.0,0.0,-3.2509,-3.4981,-3.7074,-3.8542,-3.8689,-3.8689,-3.8689,-3.7461,-3.596,-3.4194,-3.1259,-2.8247,0.0,0.0,0.0,0.0,0.0,0.0,0.0,0.0,0.0,0.0,0.0,0.0,0.0,0.0,0.0,0.0,0.0,0.0,0.0,0.0,0.0,0.0,0.0,0.0,0.0,0.0,0.0,0.0,0.0,0.0,0.0,0.0,-3.0023,-3.0362,0.0,0.0,0.0,0.0,0.0,0.0,0.0,0.0,0.0,0.0,0.0,0.0,0.0,-3.8204,-3.8478,-4.0492,-4.1307,-4.0892,-4.2243,-4.3187,-4.3736,-4.3815,-4.4214,-4.4782,-4.4562,0.0,-3.7235,-3.6134,0.0,0.0,0.0,0.0,0.0,0.0,0.0,0.0,0.0,0.0,0.0,0.0,0.0,0.0,0.0,0.0,0.0,0.0,0.0,0.0,0.0,0.0,-3.9093,-3.9093,-3.9239,-3.9276,-3.8726,-3.4724,-3.0956,-2.9916,-2.8594,-2.753,0.0,0.0,0.0,0.0,0.0,0.0,-3.333,-3.5803,-3.7713,-3.8615,-3.8689,-3.8689,-3.8689,-3.7461,-3.626,-3.5243,-3.2203,-2.9936,-2.8748,-2.5724,0.0,0.0,0.0,0.0,0.0,0.0,0.0,0.0,0.0,0.0,0.0,0.0,0.0,0.0,0.0,0.0,0.0,0.0,0.0,0.0,0.0,0.0,0.0,0.0,0.0,0.0,0.0,0.0,0.0,-3.05,-3.1993,-3.248,-3.2132,-3.1365,0.0,0.0,0.0,0.0,0.0,0.0,0.0,0.0,0.0,-4.0283,-4.1038,-4.1889,-4.2976,-4.3292,-4.3337,-4.3142,-4.3407,-4.3862,-4.4485,-4.4839,-4.5319,-4.5883,-4.5883,-4.4488,-4.2029,-3.99,-3.8133,-3.6555,0.0,0.0,0.0,0.0,-3.4384,-3.4468,-3.5721,-3.5862,-3.5495,-3.5385,0.0,0.0,0.0,0.0,0.0,0.0,0.0,-3.5495,-3.6729,-3.8836,-4.0708,-4.1148,-4.1589,-4.1809,-4.1332,-3.8946,-3.6083,-3.3426,-3.2326,-3.098,-2.8264,-2.7982,0.0,0.0,0.0,-3.2449,-3.4871,-3.6538,-3.7823,-3.8615,-3.8689,-3.8689,-3.8689,-3.7461,-3.6456,-3.5923,-3.3424,-3.1314,-2.9891,-2.7963,-2.5868,0.0,0.0,0.0,0.0,0.0,0.0,0.0,0.0,0.0,0.0,0.0,0.0,0.0,0.0,0.0,0.0,0.0,0.0,0.0,0.0,0.0,0.0,0.0,0.0,0.0,0.0,0.0,0.0,-3.2506,-3.4028,-3.4594,-3.4889,-3.4275,0.0,0.0,0.0,0.0,0.0,0.0,-3.9827,-4.0304,-4.1735,-4.4342,-4.4837,-4.5644,-4.6838,-4.581,-4.5315,-4.5292,-4.4485,-4.4331,-4.4742,-4.5392,-4.5895,-4.6283,-4.6452,-4.6397,-4.5993,-4.3187,-4.1381,-4.0151,-3.8257,-3.772,-3.7993,-3.8073,-3.786,-3.7771,-3.957,-3.9827,-3.9239,-3.8836,-3.8043,-3.689,-3.5018,0.0,0.0,0.0,0.0,-3.7588,-3.9203,-4.0508,-4.1625,-4.2433,-4.3057,-4.3314,-4.2727,-4.1992,-4.0398,-3.6912,-3.5775,-3.4197,-3.0577,-3.043,0.0,-3.0564,-3.2069,-3.4064,-3.6303,-3.7309,-3.8043,-3.8652,-3.8689,-3.8689,-3.8689,-3.7414,-3.6509,-3.6317,-3.4153,-3.2193,-3.0552,-2.9537,-2.7666,-2.4887,0.0,0.0,0.0,0.0,0.0,0.0,0.0,0.0,0.0,0.0,0.0,0.0,0.0,0.0,0.0,0.0,0.0,0.0,0.0,0.0,0.0,0.0,0.0,0.0,0.0,0.0,0.0,0.0,0.0,-3.689,-3.838,0.0,0.0,0.0,0.0,-3.8358,-3.9921,-4.1552,-4.3167,-4.4709,-4.5957,-4.6892,-4.8453,-4.9317,-4.9427,-4.886,-4.8562,-4.8537,-4.7251,-4.6567,-4.6482,-4.7146,-4.7426,-4.7362,-4.7945,-4.7736,-4.6892,-4.5205,-4.4677,-4.4618,-4.1919,-4.152,-4.224,-4.0446,-4.023,-4.0875,-4.0985,-4.1022,-4.1095,-4.1809,-4.1001,-3.968,-3.957,-3.8484,0.0,0.0,-3.9056,-4.0084,-4.1699,-4.2176,-4.2433,-4.324,-4.3478,-4.3515,-4.3441,-4.28,-4.1735,-3.9974,-3.7808,-3.6156,-3.5899,0.0,-3.2986,-3.4477,-3.4821,-3.5481,-3.7235,-3.8138,-3.8652,-3.8689,-3.8689,-3.8689,-3.8689,-3.7235,-3.6317,-3.6303,-3.3967,-3.2241,-3.1397,-2.9831,-2.8216,-2.6492,-2.4887,0.0,0.0,0.0,0.0,0.0,0.0,0.0,0.0,0.0,0.0,0.0,0.0,0.0,0.0,0.0,0.0,0.0,0.0,0.0,0.0,0.0,0.0,0.0,0.0,0.0,0.0,0.0,0.0,-4.0099,-4.1116,0.0,-3.9762,-4.0704,-4.1495,-4.1772,-4.3754,-4.5425,-4.6544,-4.7645,-4.8636,-4.9481,-5.0068,-5.0362,-5.0362,-4.9326,-4.881,-4.8785,-4.743,-4.6959,-4.7338,-4.8035,-4.8556,-4.8864,-4.9021,-4.8893,-4.8563,-4.7462,-4.6489,-4.5545,-4.4578,-4.4429,-4.4643,-4.3439,-4.3167,-4.3333,-4.2837,-4.2653,-4.2616,-4.2396,-4.1919,-4.1332,-4.0818,-4.0634,-4.0634,-4.0928,-4.1589,-4.2359,-4.291,-4.3057,-4.313,-4.3441,-4.3515,-4.3515,-4.3515,-4.3294,-4.291,-4.234,-4.0708,-3.8909,-3.7345,-3.678,-3.6376,-3.5899,-3.6266,-3.7,-3.8138,-3.8505,-3.8689,-3.8689,-3.8689,-3.8505,-3.7955,-3.7105,-3.6246,-3.5495,-3.3819,-3.2416,-3.1433,-3.0356,-2.8767,-2.6638,-2.5511,-2.352,0.0,0.0,0.0,0.0,0.0,0.0,0.0,0.0,0.0,0.0,0.0,0.0,0.0,0.0,0.0,0.0,0.0,0.0,0.0,0.0,0.0,0.0,0.0,0.0,0.0,-3.8357,-4.0615,-4.174,-4.3146,-4.3624,-4.2659,-4.3855,-4.4929,-4.5534,-4.7021,-4.8306,-4.9114,-4.9958,-5.0655,-5.1206,-5.1463,-5.161,-5.161,-5.0469,-4.9813,-4.9564,-4.8404,-4.7825,-4.7808,-4.8741,-4.9255,-4.9421,-4.9779,-4.9921,-4.9884,-4.9077,-4.8122,-4.7095,-4.6544,-4.6324,-4.6214,-4.5406,-4.5112,-4.5002,-4.4195,-4.3901,-4.3754,-4.2983,-4.269,-4.2616,-4.2066,-4.2286,-4.269,-4.269,-4.3094,-4.3515,-4.3515,-4.3515,-4.3515,-4.3515,-4.3515,-4.3515,-4.3515,-4.3515,-4.3515,-4.3515,-4.2433,-4.1001,-3.9402,-3.935,-3.9056,-3.7734,-3.797,-3.841,-3.8689,-3.8689,-3.8689,-3.8689,-3.8689,-3.8358,-3.7566,-3.6662,-3.5692,-3.4651,-3.3241,-3.2021,-3.1029,-3.021,-2.8803,-2.6638,-2.5291,-2.3529,-2.1355,0.0,0.0,0.0,0.0,0.0,0.0,0.0,0.0,0.0,0.0,0.0,0.0,0.0,0.0,0.0,0.0,0.0,0.0,0.0,0.0,0.0,0.0,0.0,-3.7585,-3.9964,-4.1688,-4.1756,-4.4532,-4.6042,-4.4965,-4.6269,-4.7902,-4.9537,-4.9647,-5.0014,-5.0802,-5.161,-5.205,-5.205,-5.2784,-5.3203,-5.3203,-5.245,-5.1765,-5.1112,-5.0362,-4.9286,-4.7996,-4.9315,-4.9513,-4.8905,-5.0228,-5.0819,-5.0745,-4.9958,-4.961,-4.9463,-4.7792,-4.7149,-4.7039,-4.625,-4.592,-4.5773,-4.5002,-4.4728,-4.4544,-4.3791,-4.3515,-4.3515,-4.3515,-4.3515,-4.3515,-4.3515,-4.3515,-4.3515,-4.3515,-4.3515,-4.3515,-4.3515,-4.3515,-4.3515,-4.3515,-4.3515,-4.3515,-4.3515,-4.2873,-4.2323,-4.2323,-4.1662,-4.0891,-4.0084,-3.9937,0.0,-3.8836,-3.8726,-3.8689,-3.8689,-3.8689,-3.8358,-3.7529,-3.5973,-3.4674,-3.3807,-3.2265,-3.1017,-3.0246,-2.9427,-2.8253,-2.6675,-2.429,-2.3043,-2.3043,0.0,0.0,0.0,0.0,0.0,0.0,0.0,0.0,0.0,0.0,0.0,0.0,0.0,0.0,0.0,0.0,0.0,0.0,0.0,0.0,0.0,-3.825,-4.0566,-4.0347,-4.1853,-4.3647,-4.5382,-4.6892,-4.7887,-4.8215,-4.9187,-4.9958,-5.0435,-5.0986,-5.1446,-5.1646,-5.2417,-5.2858,-5.2858,-5.3078,-5.3203,-5.3203,-5.245,-5.2018,-5.179,-5.0581,-4.9786,-4.9441,-4.9805,-4.9861,-4.9699,-5.0522,-5.0859,-5.083,-5.0566,-5.0105,-4.95,-4.8416,-4.7957,-4.7846,-4.7076,-4.6397,-4.5883,-4.5663,-4.5186,-4.4672,-4.4452,-4.3975,-4.3515,-4.3515,-4.3515,-4.3515,-4.3515,-4.3515,-4.3515,-4.3515,-4.3515,-4.3515,-4.3515,-4.3515,-4.3515,-4.3515,-4.3515,-4.3515,-4.3515,-4.3331,-4.3167,-4.3167,-4.2506,-4.1919,-4.1662,-4.0634,-3.9827,-3.9606,-3.9056,-3.8689,-3.8689,-3.8689,-3.8138,-3.6743,-3.6193,-3.5092,-3.306,-3.1971,-3.1017,-3.0246,-2.9427,-2.851,-2.7493,-2.5668,-2.4447,0.0,0.0,0.0,0.0,0.0,0.0,0.0,0.0,0.0,0.0,0.0,0.0,0.0,0.0,0.0,0.0,0.0,0.0,0.0,0.0,0.0,0.0,-4.1101,-4.3226,-4.3721,-4.4483,-4.5663,-4.7406,-4.8343,-4.9297,-5.0492,-5.1022,-5.1426,-5.1793,-5.2234,-5.2491,-5.2491,-5.2968,-5.3203,-5.3203,-5.3203,-5.3203,-5.3203,-5.2769,-5.2404,-5.2089,-5.1008,-5.0279,-5.0004,-5.0004,-5.0004,-5.0055,-5.0969,-5.1404,-5.1401,-5.1344,-5.1022,-5.0492,0.0,0.0,0.0,0.0,-4.7315,-4.6874,-4.6544,-4.6085,-4.5645,-4.5333,-4.4672,-4.4011,-4.4011,-4.3754,-4.3515,-4.3515,-4.3515,-4.3515,-4.3515,-4.3515,-4.3515,-4.3515,-4.3515,-4.3515,-4.3515,-4.3515,-4.3515,-4.3515,-4.3515,0.0,-4.3515,-4.3094,-4.269,-4.2359,-4.1515,-4.0671,-3.9989,-3.9496,-3.9056,-3.8726,-3.8689,-3.8175,-3.6905,-3.6156,0.0,0.0,0.0,-3.087,-2.9721,-2.8913,0.0,0.0,0.0,0.0,0.0,-2.6539,0.0,0.0,-2.463,-2.4373,0.0,0.0,0.0,0.0,0.0,0.0,0.0,0.0,0.0,0.0,0.0,0.0,0.0,0.0,0.0,0.0,-4.3691,-4.5431,-4.6911,-4.7259,-4.7626,-4.8379,-4.9297,-5.0418,-5.1867,-5.2087,-5.2417,-5.313,-5.3203,-5.3261,-5.3335,-5.3314,0.0,0.0,0.0,-5.3482,-5.3482,-5.3482,-5.3113,-5.2351,-5.1687,-5.092,-5.0118,-5.0033,-4.9947,-4.9947,-5.1317,-5.1862,-5.1874,-5.1981,-5.1951,-5.172,-5.0198,-4.9077,-4.8306,-4.8306,-4.8306,-4.8196,-4.748,0.0,0.0,-4.6287,-4.548,-4.4819,-4.4728,-4.4195,-4.3608,-4.3551,-4.3515,-4.3515,-4.3515,-4.3515,-4.3515,-4.3515,-4.3515,-4.3515,-4.3515,-4.3515,-4.3515,-4.3515,-4.3515,-4.3515,-4.3515,-4.3515,-4.324,-4.2543,-4.2359,-4.1735,-4.023,-3.9937,-3.957,-3.8799,-3.8689,0.0,-3.7566,-3.6156,-3.4857,-3.3844,-3.2278,-3.076,-2.9317,-2.8594,-2.786,-2.7163,-2.7824,-2.8558,-2.928,-2.9989,-3.0356,-3.0246,-2.7321,-2.6696,0.0,0.0,0.0,0.0,0.0,0.0,0.0,0.0,0.0,0.0,0.0,0.0,0.0,0.0,0.0,-4.2825,-4.5526,-4.7387,-4.7132,-4.8269,-4.917,-4.9353,-5.0639,-5.1667,-5.1977,-5.2601,-5.3041,-5.3167,-5.3203,-5.3482,-5.4142,-5.4179,-5.4473,-5.5097,-5.5133,-5.5133,-5.5133,-5.5133,-5.4759,-5.3932,-5.323,0.0,-5.0876,-5.0251,-4.9693,-4.9226,-5.0061,-5.0452,-5.0562,-5.1622,-5.1661,-5.0949,-4.9978,-4.9077,-4.8306,-4.8306,-4.8306,-4.8269,-4.8122,-4.7626,-4.7076,-4.6929,-4.6305,-4.5553,-4.4874,-4.4599,0.0,-4.3681,-4.3515,-4.3515,-4.3515,-4.3515,-4.3515,-4.3515,-4.3515,-4.3515,-4.3515,-4.3515,-4.3515,-4.3515,-4.3515,-4.3515,-4.3515,-4.3515,-4.3441,-4.3277,-4.2727,-4.1956,-4.0985,-4.0304,-3.957,-3.8799,-3.8689,-3.8358,-3.7566,-3.7199,-3.6083,-3.3954,-3.2278,-3.125,-3.0944,-3.0809,-3.0625,-3.0479,-3.0625,-3.0772,-3.0944,-3.1091,-3.1176,-3.114,-2.9843,-2.9439,0.0,0.0,0.0,0.0,0.0,0.0,0.0,0.0,0.0,0.0,0.0,-3.8547,-3.9746,0.0,-4.402,-4.525,-4.6855,-4.8049,-4.8291,-4.9407,-5.0178,-5.0178,-5.1242,-5.216,-5.2564,-5.2968,-5.335,-5.3775,-5.3812,-5.4142,-5.495,-5.4987,-5.517,-5.5574,-5.5596,-5.5596,-5.5596,-5.5596,-5.539,-5.4987,-5.3852,-5.2906,-5.2165,-5.0675,-4.9838,-4.9521,-4.9833,-5.0004,-5.0153,-5.1544,-5.1588,-5.0809,-5.0371,-4.9407,-4.8306,-4.8306,-4.8306,-4.8306,-4.8306,-4.8049,-4.77,-4.77,-4.7149,-4.6415,-4.6012,-4.5351,-4.4618,-4.4195,-4.3791,-4.3515,-4.3515,-4.3515,-4.3515,-4.3515,-4.3515,-4.3515,-4.3515,-4.3515,-4.3515,-4.3515,-4.3515,-4.3515,-4.3515,-4.3515,-4.3515,-4.3515,-4.3167,-4.2616,-4.1809,-4.1001,-4.0194,-3.9386,-3.8946,-3.8542,-3.8138,-3.7749,-3.6611,-3.4527,-3.3256,-3.2412,-3.2008,-3.1604,-3.1397,-3.1397,-3.1788,-3.2008,-3.2008,-3.2412,-3.2596,-3.2596,-3.2192,-3.1788,0.0,0.0,0.0,0.0,0.0,0.0,0.0,-3.6084,-3.7164,-3.867,-4.0185,-4.1727,-4.3366,-4.4533,-4.5778,-4.7441,-4.7971,-4.8504,-4.9448,-5.0435,-5.1022,-5.1022,-5.1756,-5.2491,-5.3151,-5.3203,-5.3555,-5.4326,-5.4399,-5.4803,-5.5757,-5.5831,-5.5904,-5.6051,-5.6073,-5.6073,-5.6073,-5.6073,-5.5978,-5.5831,-5.455,-5.3809,-5.3484,-5.1387,-5.0383,-5.0212,-4.993,-4.9861,-5.0118,-5.1393,-5.1526,-5.0895,-5.0978,-5.0031,-4.8526,-4.8379,-4.8306,-4.8306,-4.8306,-4.8306,-4.8306,-4.8306,-4.7846,-4.7296,-4.7149,-4.6195,-4.5095,-4.4764,-4.4232,-4.3681,-4.3551,-4.3515,-4.3515,-4.3515,-4.3515,-4.3515,-4.3515,-4.3515,-4.3515,-4.3515,-4.3515,-4.3515,-4.3515,-4.3515,-4.3515,-4.3515,-4.3515,-4.3221,-4.2396,-4.1609,-4.0781,-3.9974,-3.9166,-3.8689,-3.8689,-3.797,-3.6927,-3.5555,-3.4724,-3.3917,-3.3096,-3.2449,-3.2008,-3.1874,-3.2485,-3.2839,-3.2839,-3.3476,-3.3807,-3.3807,-3.3807,-3.344,-3.3667,-3.3782,-3.4475,-3.6738,-3.6853,-3.7777,0.0,-4.2585,-4.1694,-4.3753,-4.4919,-4.5551,-4.5453,-4.6732,-4.7761,-4.7718,-4.8919,-4.9766,-4.9595,-5.0932,-5.1867,-5.1867,-5.2564,-5.3093,-5.3167,-5.3203,-5.3555,-5.4326,-5.4399,-5.506,-5.6602,-5.6675,-5.7005,-5.7703,-5.774,-5.774,-5.774,-5.774,-5.7373,-5.6675,-5.6497,-5.5723,-5.4411,-5.2792,-5.1716,-5.1067,-4.971,-4.9432,-5.0061,-5.0876,-5.1079,-5.0945,-5.16,-5.0875,-4.9353,-4.86,-4.8306,-4.8306,-4.8306,-4.8306,-4.8306,-4.8306,-4.8233,-4.8049,-4.7333,-4.6966,-4.6526,-4.5095,-4.4635,-4.4415,-4.3681,-4.3515,-4.3515,-4.3515,-4.3515,-4.3515,-4.3515,-4.3515,-4.3515,-4.3515,-4.3515,-4.3515,-4.3515,-4.3515,-4.3515,-4.3515,-4.3515,-4.3221,-4.2396,-4.1609,-4.0781,-3.9974,-3.9166,-3.8689,-3.8689,-3.797,-3.7419,-3.7235,-3.6464,-3.5642,-3.4784,-3.4637,-3.427,-3.355,-3.3623,-3.366,-3.366,-3.377,-3.3807,-3.3807,-3.3807,-3.3733,-3.7476,-3.7861,-3.813,-3.9207,-4.0315,-4.1662,-4.3662,-4.4085,-4.4323,-4.5502,-4.625,-4.673,-4.6825,-4.7234,-4.7819,-4.8661,-4.9561,-5.0358,-5.0919,-5.1374,-5.1747,-5.1981,-5.2307,-5.2711,-5.313,-5.3628,-5.4216,-5.5023,-5.5537,-5.6308,-5.7446,-5.7483,-5.7666,-5.7997,-5.7997,-5.7997,-5.7997,-5.7997,-5.7813,-5.7483,-5.7042,-5.6466,-5.5809,-5.4312,-5.2768,-5.1205,-4.9687,-4.9372,-5.0061,-5.0796,-5.1315,-5.1618,-5.1913,-5.1573,-5.0859,-4.9537,-4.8746,-4.8306,-4.8306,-4.8306,-4.8306,-4.8306,-4.8306,-4.8233,-4.7883,-4.748,-4.6856,-4.5736,-4.5076,-4.4525,-4.3718,-4.3515,-4.3515,-4.3515,-4.3515,-4.3515,-4.3515,-4.3515,-4.3515,-4.3515,-4.3515,-4.3515,-4.3515,-4.3515,-4.3515,-4.3515,-4.3515,-4.3404,-4.302,-4.2286,-4.1295,-4.0047,-3.9166,-3.8689,-3.8689,-3.8395,-3.7991,-3.7529,-3.7199,-3.6597,-3.5789,-3.5752,-3.5605,-3.5275,-3.4958,-3.4703,-3.4491,-3.4215,-3.401,-3.3807,-3.3807,-3.3807,-3.9785,-4.0516,-4.0939,-4.117,-4.2777,-4.4201,-4.3855,-4.4893,-4.6022,-4.6249,-4.6834,-4.7414,-4.7639,-4.7552,-4.7902,-4.9353,-5.012,-5.0859,-5.1875,-5.1937,-5.1915,-5.1985,-5.1879,-5.2103,-5.2784,-5.3592,-5.4473,-5.5522,-5.6124,-5.6932,-5.796,-5.7997,-5.7997,-5.7997,-5.7997,-5.7997,-5.7997,-5.7997,-5.7997,-5.7997,-5.7409,-5.7152,-5.7056,-5.5377,-5.3482,-5.1486,-5.0154,-4.9867,-5.0335,-5.1086,-5.1667,-5.2123,-5.2258,-5.2197,-5.183,-5.0435,-4.937,-4.8636,-4.8379,-4.8306,-4.8306,-4.8306,-4.8306,-4.8306,-4.8306,-4.7902,-4.7259,-4.6471,-4.5663,-4.4856,-4.4048,-4.3644,-4.3515,-4.3515,-4.3515,-4.3515,-4.3515,-4.3515,-4.3515,-4.3515,-4.3515,-4.3515,-4.3515,-4.3515,-4.3515,-4.3515,-4.3515,-4.3515,-4.3515,-4.2616,-4.1442,-4.0047,-3.9166,-3.8689,-3.8689,-3.8689,-3.8469,-3.786,-3.7823,-3.7492,-3.6684,-3.6494,-3.6309,-3.6069,-3.5564,-3.5159,-3.4912,-3.4713,-3.4501,-3.4264,-3.4412,-3.4504,-3.9738,-4.0508,-4.197,-4.2816,-4.3662,-4.4509,-4.5325,-4.6201,-4.6733,-4.6369,-4.7302,-4.8077,-4.7756,-4.8015,-4.8563,-4.9463,-5.0602,-5.1528,-5.1948,-5.2638,-5.2881,-5.2099,-5.1601,-5.151,-5.2002,-5.2747,-5.3885,-5.5464,-5.5611,-5.6308,-5.7923,-5.7997,-5.7997,-5.7997,-5.7997,-5.7997,-5.7997,-5.7997,-5.7997,-5.7997,-5.796,-5.796,-5.79,-5.5632,-5.3774,-5.2219,-5.1414,-5.1034,-5.1112,-5.179,-5.2089,-5.2159,-5.2879,-5.2711,-5.1903,-5.1059,-5.0251,-4.9463,-4.86,-4.8306,-4.8306,-4.8306,-4.8306,-4.8306,-4.8306,-4.8269,-4.8122,-4.7296,-4.6471,-4.5663,-4.4892,-4.4085,-4.3515,-4.3515,-4.3515,-4.3515,-4.3515,-4.3515,-4.3515,-4.3515,-4.3515,-4.3515,-4.3515,-4.3515,-4.3515,-4.3515,-4.3515,-4.3515,-4.3515,-4.2139,-4.0818,-3.9974,-3.9166,-3.8689,-3.8689,-3.8689,-3.8689,-3.8689,-3.8652,-3.8285,-3.7492,-3.6967,-3.6325,-3.5532,-3.4993,-3.4712,-3.473,-3.523,-3.5443,-3.5475,-3.5966,-3.6229,-4.1508,-4.2239,-4.3008,-4.4393,-4.5393,-4.624,-4.7086,-4.7509,-4.7674,-4.7511,-4.7629,-4.7643,-4.7287,-4.7623,-4.8253,-4.9392,-5.0602,-5.1822,-5.3012,-5.2975,-5.2504,-5.1714,-5.1692,-5.1607,-5.1226,-5.2417,-5.3885,-5.5464,-5.6088,-5.6859,-5.7923,-5.7997,-5.7997,-5.7997,-5.7997,-5.7997,-5.7997,-5.7997,-5.7997,-5.7997,-5.7997,-5.7997,-5.7937,-5.6176,-5.513,-5.4517,-5.2669,-5.2151,-5.2543,-5.2234,-5.2381,-5.2835,-5.3103,-5.3041,-5.2711,-5.1903,-5.1096,-5.0178,-4.8783,-4.8306,-4.8306,-4.8306,-4.8306,-4.8306,-4.8306,-4.8306,-4.8122,-4.7333,-4.6544,-4.57,-4.4929,-4.4085,-4.3515,-4.3515,-4.3515,-4.3515,-4.3515,-4.3515,-4.3515,-4.3515,-4.3515,-4.3515,-4.3515,-4.3515,-4.3515,-4.3515,-4.3515,-4.3515,-4.3515,-4.2543,-4.1809,-4.1515,-4.0304,-3.9496,-3.9496,-3.9019,-3.8689,-3.8689,-3.8689,-3.8579,-3.8322,-3.811,-3.7721,-3.7099,-3.6595,-3.6074,-3.5507,-3.5687,-3.5683,-3.5532,-3.6039,-3.6303,-4.3393,-4.397,-4.4393,-4.6086,-4.6894,-4.7394,-4.7625,-4.7894,-4.7932,-4.7317,-4.7131,-4.7006,-4.6771,-4.6794,-4.735,-4.9086,-5.0266,-5.1487,-5.2956,-5.2975,-5.2504,-5.1695,-5.1862,-5.1804,-5.1283,-5.2307,-5.3691,-5.5449,-5.6088,-5.6859,-5.7923,-5.7997,-5.7997,-5.7997,-5.7997,-5.7997,-5.7997,-5.7997,-5.7997,-5.7997,-5.7997,-5.7997,-5.796,-5.6744,-5.6152,-5.6055,-5.3952,-5.3279,-5.3621,-5.2799,-5.2769,-5.3203,-5.3203,-5.3203,-5.3093,-5.2307,-5.1683,-5.0986,-4.9334,-4.8563,-4.8306,-4.8306,-4.8306,-4.8306,-4.8306,-4.8306,-4.8196,-4.7663,-4.6929,-4.614,-4.5333,-4.4525,-4.3864,-4.3588,-4.3515,-4.3515,-4.3515,-4.3515,-4.3515,-4.3515,-4.3515,-4.3515,-4.3515,-4.3515,-4.3515,-4.3515,-4.3515,-4.3515,-4.3515,-4.28,-4.2286,-4.2286,-4.1111,-4.0341,-4.0341,-3.9606,-3.9129,-3.9129,-3.8872,-3.8689,-3.8689,-3.8512,-3.8185,-3.7667,-3.7173,-3.654,-3.5779,-3.5976,-3.6091,-3.6126,-3.6624,-3.6976,-4.5171,-4.5671,-4.6133,-4.7778,-4.8125,-4.7932,-4.7192,-4.7548,-4.7586,-4.5941,-4.5926,-4.6172,0.0,-4.556,-4.5924,-4.8343,-4.9531,-5.0618,-5.1879,-5.273,-5.2956,-5.2143,-5.2128,-5.2165,-5.2143,-5.253,-5.3608,-5.5573,-5.5633,-5.6308,-5.7923,-5.7997,-5.7997,-5.7997,-5.7997,-5.7997,-5.7997,-5.7997,-5.7997,-5.7997,-5.7997,-5.7997,-5.796,-5.7226,-5.6859,-5.6785,-5.517,-5.4473,-5.4399,-5.3555,-5.3203,-5.3203,-5.3203,-5.3203,-5.3115,-5.2344,-5.2013,-5.1756,-5.0271,-4.9114,-4.8379,-4.8306,-4.8306,-4.8306,-4.8306,-4.8306,-4.8306,-4.8306,-4.77,-4.6929,-4.6177,-4.5333,-4.4525,-4.3718,-4.3551,-4.3515,-4.3515,-4.3515,-4.3515,-4.3515,-4.3515,-4.3515,-4.3515,-4.3515,-4.3515,-4.3515,-4.3515,-4.3515,-4.3515,-4.2837,-4.2359,-4.2359,-4.1662,-4.1168,-4.1168,-4.0377,-3.99,-3.99,-3.9129,-3.8689,-3.8689,-3.8218,-3.7702,-3.7192,-3.6721,-3.6143,-3.56,-3.6156,-3.6701,-3.721,-3.7685,-3.8201,-4.5325,-4.6509,-4.7702,-4.8817,-4.8586,-4.824,-4.8663,-4.7971,-4.6894,-4.5825,-4.5186,-4.4355,-4.2838,-4.3743,-4.4997,-4.5929,-4.816,-5.0378,-5.2178,-5.3143,-5.3452,-5.2936,-5.3995,-5.4511,-5.3921,-5.5057,-5.6196,-5.6972,-5.6129,-5.6308,-5.7923,-5.7997,-5.7997,-5.7997,-5.7997,-5.7997,-5.7997,-5.7997,-5.7997,-5.7997,-5.7997,-5.7997,-5.7997,-5.7776,-5.7703,-5.7593,-5.5978,-5.528,-5.517,-5.3775,-5.3203,-5.3203,-5.3203,-5.3203,-5.3167,-5.2968,-5.2527,-5.194,-5.1557,-5.0455,-4.915,-4.8526,-4.8306,-4.8306,-4.8306,-4.8306,-4.8306,-4.8306,-4.77,-4.7039,-4.6856,-4.5755,-4.4654,-4.4452,-4.3938,-4.3515,-4.3515,-4.3515,-4.3515,-4.3515,-4.3515,-4.3515,-4.3515,-4.3515,-4.3515,-4.3515,-4.3515,-4.3515,-4.3515,-4.3331,-4.3167,-4.3167,-4.247,-4.1992,-4.1992,-4.0708,-3.99,-3.99,-3.9129,-3.8689,-3.8689,-3.858,-3.8101,-3.721,-3.7058,-3.656,-3.56,-3.6156,-3.6701,-3.721,-3.7685,-3.8201,-4.6826,-4.7932,-4.8894,-4.974,-4.9317,-4.8509,-4.7894,-4.7009,-4.574,-4.3786,-4.2978,-4.2283,-4.1176,-4.2014,-4.331,-4.4595,0.0,0.0,-5.1545,-5.3312,-5.4279,0.0,-5.5508,-5.6269,-5.5659,-5.6595,-5.7326,-5.7468,-5.685,-5.6888,-5.7946,-5.7997,-5.7997,-5.7997,-5.7997,-5.7997,-5.7997,-5.7997,-5.7997,-5.7997,-5.7997,-5.7997,-5.7997,-5.7997,-5.7997,-5.7923,-5.6308,-5.5596,-5.5464,-5.3849,-5.3203,-5.3203,-5.3203,-5.3203,-5.3203,-5.3203,-5.2931,-5.2417,-5.172,-5.0875,-4.9994,-4.915,-4.86,-4.8306,-4.8306,-4.8306,-4.8306,-4.8306,-4.7957,-4.7553,-4.7186,-4.6415,-4.5572,-4.4874,-4.4378,-4.3938,-4.3588,-4.3515,-4.3515,-4.3515,-4.3515,-4.3515,-4.3515,-4.3515,-4.3515,-4.3515,-4.3515,-4.3515,-4.3515,-4.3515,-4.3515,-4.3515,-4.3094,-4.2837,-4.2837,-4.1662,-4.0781,-4.0451,-3.968,-3.9056,-3.8726,-3.8689,-3.83,-3.7524,-3.7506,-3.7001,-3.5963,-3.6498,-3.6884,-3.721,-3.7685,-3.8201,-4.8779,-4.9471,-4.974,-5.0366,-4.9856,-4.8586,-4.6172,-4.5441,-4.4363,-4.117,-4.0439,-4.0323,-4.0208,-4.0421,-4.1406,-4.3826,0.0,-4.8732,-5.0608,-5.3293,-5.5153,-5.5265,-5.6793,-5.7711,-5.7361,-5.7768,-5.7962,-5.779,-5.775,-5.7806,-5.8006,-5.7997,-5.7997,-5.7997,-5.7997,-5.7997,-5.7997,-5.7997,-5.7997,-5.7997,-5.7997,-5.7997,-5.7997,-5.7997,-5.7997,-5.7923,-5.6308,-5.5596,-5.5464,-5.3849,-5.3203,-5.3203,-5.3203,-5.3203,-5.3203,-5.3203,-5.3203,-5.2983,-5.161,-5.0986,-5.0655,-4.9738,-4.893,-4.8306,-4.8306,-4.8306,-4.8306,-4.8306,-4.8306,-4.8159,-4.7443,-4.7186,-4.6709,-4.5205,-4.4764,-4.4488,-4.3644,-4.3515,-4.3515,-4.3515,-4.3515,-4.3515,-4.3515,-4.3515,-4.3515,-4.3515,-4.3515,-4.3515,-4.3515,-4.3515,-4.3515,-4.3515,-4.3515,-4.3515,-4.3515,-4.2763,-4.1956,-4.1132,-4.0341,-3.9533,-3.8726,-3.8689,-3.8449,-3.7893,-3.7893,-3.7451,-3.6519,-3.6962,-3.7229,-3.7304,-3.7702,-3.8201,-4.9279,-4.9933,-5.0327,-4.9779,-4.8971,-4.7855,-4.6018,-4.4509,0.0,-4.0939,-3.9977,-3.9284,-3.8584,-3.9127,-4.0527,-4.2998,-4.5327,-4.7863,-5.0858,-5.3494,-5.5385,0.0,-5.794,-5.9149,-5.905,-5.979,-5.9915,-5.9111,-5.9078,-5.8763,-5.8029,-5.7997,-5.7997,-5.7997,-5.7997,-5.7997,-5.7997,-5.7997,-5.7997,-5.7997,-5.7997,-5.7997,-5.7997,-5.7997,-5.7997,-5.7923,-5.6308,-5.5596,-5.5464,-5.3849,-5.3203,-5.3203,-5.3203,-5.3203,-5.3203,-5.3203,-5.3203,-5.3167,-5.2873,-5.1903,-5.0545,-4.904,-4.8416,-4.8306,-4.8306,-4.8306,-4.8306,-4.8306,-4.8306,-4.8269,-4.8122,-4.759,-4.6856,-4.592,-4.5186,-4.4488,-4.3644,-4.3515,-4.3515,-4.3515,-4.3515,-4.3515,-4.3515,-4.3515,-4.3515,-4.3515,-4.3515,-4.3515,-4.3515,-4.3515,-4.3515,-4.3515,-4.3515,-4.3515,-4.3515,-4.2763,-4.1956,-4.1132,-4.0341,-3.9533,-3.8726,-3.8689,-3.8449,-3.7893,-3.7893,-3.7632,-3.7058,-3.7135,-3.7396,-3.7772,-3.7859,-3.8201,-4.9817,-5.0366,-5.0481,-4.9625,-4.874,-4.7317,-4.4316,0.0,0.0,0.0,-3.7584,-3.7199,-3.6776,-3.7899,0.0,-4.1556,-4.375,-4.6494,-5.0253,-5.287,-5.5069,-5.6799,-5.891,-6.0165,-6.0165,-6.055,-6.0508,-5.9823,-5.9526,-5.9009,-5.8065,-5.7997,-5.7997,-5.7997,-5.7997,-5.7997,-5.7997,-5.7997,-5.7997,-5.7997,-5.7997,-5.7997,-5.7997,-5.7997,-5.7997,-5.7923,-5.6308,-5.5596,-5.5464,-5.3849,-5.3203,-5.3203,-5.3203,-5.3203,-5.3203,-5.3203,-5.3203,-5.313,-5.2711,-5.1793,-5.0618,-4.937,-4.8673,-4.8306,-4.8306,-4.8306,-4.8306,-4.8306,-4.8306,-4.8306,-4.8306,-4.8012,-4.7516,-4.6728,-4.559,-4.4488,-4.3644,-4.3515,-4.3515,-4.3515,-4.3515,-4.3515,-4.3515,-4.3515,-4.3515,-4.3515,-4.3515,-4.3515,-4.3515,-4.3515,-4.3515,-4.3515,-4.3515,-4.3515,-4.3515,-4.313,-4.258,-4.1772,-4.0965,-4.0157,-3.935,-3.8909,-3.8596,-3.8316,-3.8316,-3.8065,-3.756,-3.7843,-3.7947,-3.7893,-3.8201,-3.8465,-5.0048,-5.0558,-5.0442,-4.9394,-4.8625,-4.7009,-4.2769,-4.1123,0.0,-3.6423,-3.5615,-3.5538,-3.5731,-3.6909,-3.8524,0.0,-4.2417,-4.5155,-4.9321,-5.2233,-5.483,0.0,-5.9446,0.0,-6.0781,-6.0781,-6.061,-6.0132,-5.9559,-5.8894,-5.8029,-5.7997,-5.7997,-5.7997,-5.7997,-5.7997,-5.7997,-5.7997,-5.7997,-5.7997,-5.7997,-5.7997,-5.7997,-5.7997,-5.7997,-5.7923,-5.6308,-5.5596,-5.5464,-5.3849,-5.3203,-5.3203,-5.3203,-5.3203,-5.3203,-5.3203,-5.3203,-5.3115,-5.2491,-5.161,-5.0692,-5.0068,-4.915,-4.8306,-4.8306,-4.8306,-4.8306,-4.8306,-4.8306,-4.8306,-4.8306,-4.8306,-4.8049,-4.7076,-4.5755,-4.4488,-4.3644,-4.3515,-4.3515,-4.3515,-4.3515,-4.3515,-4.3515,-4.3515,-4.3515,-4.3515,-4.3515,-4.3515,-4.3515,-4.3515,-4.3515,-4.3515,-4.3515,-4.3515,-4.3515,-4.3515,-4.3167,-4.2359,-4.1699,-4.1001,-4.0194,-3.9386,-3.8946,-3.8946,-3.8799,-3.8496,-3.8065,-3.8496,-3.8481,-3.8082,-3.8496,-3.8689,-4.9471,-5.0087,-5.0289,-4.8625,-4.8163,-4.7009,-4.2769,0.0,-3.9746,-3.7123,-3.6,-3.5731,-3.6462,-3.6531,-3.7519,-4.0657,-4.2058,-4.4173,-4.8326,-5.212,-5.5094,-5.6862,0.0,0.0,-6.0781,-6.0781,-6.061,-6.0132,-5.9266,-5.8528,-5.8042,-5.7997,-5.7997,-5.7997,-5.7997,-5.7997,-5.7997,-5.7997,-5.7997,-5.7997,-5.7997,-5.7997,-5.7997,-5.7997,-5.7997,-5.7923,-5.6308,-5.5596,-5.5464,-5.3849,-5.3203,-5.3203,-5.3203,-5.3203,-5.3203,-5.3203,-5.3203,-5.3167,-5.3115,-5.2087,-5.0802,-5.0729,-4.9627,-4.8306,-4.8306,-4.8306,-4.8306,-4.8306,-4.8306,-4.8306,-4.8306,-4.8306,-4.7902,-4.6397,-4.5333,-4.4488,-4.3644,-4.3515,-4.3515,-4.3515,-4.3515,-4.3515,-4.3515,-4.3515,-4.3515,-4.3515,-4.3515,-4.3515,-4.3515,-4.3515,-4.3515,-4.3515,-4.3515,-4.3515,-4.3515,-4.3515,-4.3167,-4.2359,-4.2249,-4.1846,-4.1022,-4.023,-3.979,-3.979,-3.9056,-3.8673,-3.8627,-3.8673,-3.8658,-3.8627,-3.8673,-3.8689,-4.9125,-5.0048,-5.0289,-4.8548,-4.8086,-4.6855,-4.2085,-4.0362,-3.9046,-3.65,-3.5315,-3.4968,-3.5808,-3.6165,-3.7061,-3.9327,-4.0052,-4.195,-4.6641,-4.8802,-5.1471,-5.5703,-5.7599,-5.9138,-6.0627,-6.0781,-6.061,-6.0132,-5.976,-5.9212,-5.8461,-5.8164,-5.7997,-5.7997,-5.7997,-5.7997,-5.7997,-5.7997,-5.7997,-5.7997,-5.7997,-5.7997,-5.7997,-5.7997,-5.7997,-5.7923,-5.6308,-5.5596,-5.5464,-5.3849,-5.3203,-5.3203,-5.3203,-5.3203,-5.3203,-5.3203,-5.3203,-5.3203,-5.3203,-5.216,-5.0802,-5.0802,-4.9664,-4.8306,-4.8306,-4.8306,-4.8306,-4.8306,-4.8306,-4.8306,-4.8306,-4.8306,-4.7902,-4.6287,-4.5663,-4.5076,-4.3754,-4.3515,-4.3515,-4.3515,-4.3515,-4.3515,-4.3515,-4.3515,-4.3515,-4.3515,-4.3515,-4.3515,-4.3515,-4.3515,-4.3515,-4.3515,-4.3515,-4.3515,-4.3515,-4.3515,-4.3368,-4.302,-4.258,-4.2176,-4.1846,-4.1038,-4.0377,-3.9916,-3.957,-3.9166,-3.8689,-3.8855,-3.8933,-3.8933,-3.8933,-3.9192,-4.8202,-4.9279,-4.9586,-4.8125,-4.7548,-4.6163,-4.1554,-3.99,-3.8584,-3.6038,-3.5007,-3.4776,-3.5385,-3.5799,-3.6604,-3.8238,-3.8944,-4.0797,-4.509,-4.682,-4.9279,-5.3703,-5.5444,-5.7176,-5.9435,-6.0358,-6.0647,-6.0338,-6.0175,-5.976,-5.8951,-5.8482,-5.8142,-5.7997,-5.7997,-5.7997,-5.7997,-5.7997,-5.7997,-5.7997,-5.7997,-5.7997,-5.7997,-5.7997,-5.7886,-5.7556,-5.6198,-5.5486,-5.5133,-5.3775,-5.3203,-5.3203,-5.3203,-5.3203,-5.3203,-5.3203,-5.3203,-5.3167,-5.2931,-5.194,-5.0765,-5.0508,-4.9481,-4.8306,-4.8306,-4.8306,-4.8306,-4.8306,-4.8306,-4.8306,-4.8306,-4.8306,-4.7902,-4.6287,-4.5883,-4.5443,-4.3845,-4.3515,-4.3515,-4.3515,-4.3515,-4.3515,-4.3515,-4.3515,-4.3515,-4.3515,-4.3515,-4.3515,-4.3515,-4.3515,-4.3515,-4.3515,-4.3515,-4.3515,-4.3515,-4.3515,-4.3515,-4.3515,-4.2947,-4.2653,-4.2653,-4.1882,-4.1185,-4.0598,-4.012,-3.9606,-3.9056,-3.936,-3.9466,-3.948,-3.9848,-4.0298,-4.6471,-4.7509,-4.7932,-4.7115,-4.6278,-4.4748,-4.1285,-3.99,-3.8584,-3.6038,-3.55,-3.55,-3.55,-3.55,-3.6077,-3.7731,-3.9392,-4.1393,-4.397,-4.724,-4.9702,0.0,-5.2972,-5.5203,-5.6868,-5.9319,-6.0781,-6.0781,-6.0351,-5.9885,-5.9407,-5.8951,-5.8482,-5.802,-5.7997,-5.7997,-5.7997,-5.7997,-5.7997,-5.7997,-5.7997,-5.7997,-5.7997,-5.7997,-5.7556,-5.6785,-5.5941,-5.5133,-5.4363,-5.3555,-5.3203,-5.3203,-5.3203,-5.3203,-5.3203,-5.3203,-5.3203,-5.3115,-5.227,-5.1463,-5.0655,-4.9867,-4.9003,-4.8306,-4.8306,-4.8306,-4.8306,-4.8306,-4.8306,-4.8306,-4.8306,-4.8306,-4.7902,-4.6287,-4.5883,-4.5443,-4.3845,-4.3515,-4.3515,-4.3515,-4.3515,-4.3515,-4.3515,-4.3515,-4.3515,-4.3515,-4.3515,-4.3515,-4.3515,-4.3515,-4.3515,-4.3515,-4.3515,-4.3515,-4.3515,-4.3515,-4.3515,-4.3515,-4.3515,-4.3515,-4.3515,-4.2727,-4.2286,-4.2286,-4.0708,-3.99,-3.9879,-4.0228,-4.0388,-4.0402,-4.1544,-4.2069,-4.4162,-4.5316,-4.5893,-4.3932,-4.3662,-4.3008,-3.9585,-3.9053,-3.8584,-3.6038,-3.55,-3.55,-3.55,-3.55,-3.6231,-3.8507,-3.9323,-4.0746,-4.3855,0.0,0.0,-5.2049,-5.6203,-5.9011,-5.955,-6.0319,-6.0781,-6.0781,-6.0647,-6.0365,-5.9901,-5.9424,-5.8815,-5.8042,-5.7997,-5.7997,-5.7997,-5.7997,-5.7997,-5.7997,-5.7997,-5.7997,-5.7997,-5.7997,-5.7556,-5.6748,-5.5941,-5.5133,-5.4326,-5.3555,-5.3203,-5.3203,-5.3203,-5.3203,-5.3203,-5.3203,-5.2858,-5.2344,-5.2087,-5.1116,-4.9941,-4.9684,-4.9003,-4.8306,-4.8306,-4.8306,-4.8306,-4.8306,-4.8306,-4.8306,-4.8306,-4.8306,-4.7902,-4.6287,-4.5883,-4.5443,-4.3845,-4.3515,-4.3515,-4.3515,-4.3515,-4.3515,-4.3515,-4.3515,-4.3515,-4.3515,-4.3515,-4.3515,-4.3515,-4.3515,-4.3515,-4.3515,-4.3515,-4.3515,-4.3515,-4.3515,-4.3515,-4.3515,-4.3515,-4.3515,-4.3515,-4.324,-4.2873,-4.2323,-4.1809,-4.1383,-4.1045,-4.1411,-4.1681,-4.1942,-4.2856,-4.313,0.0,-4.2901,-4.3286,-4.17,-4.1508,-4.1008,-3.8546,-3.8161,-3.7777,-3.5885,-3.55,-3.55,-3.55,-3.55,-3.6231,-3.843,-3.9361,-4.0708,-4.347,0.0,0.0,-5.2741,-5.6549,-5.9127,-5.9781,-6.0435,-6.0781,-6.0781,-6.0781,-6.061,-6.0132,-5.9642,-5.9065,-5.8304,-5.8074,-5.7997,-5.7997,-5.7997,-5.7997,-5.7997,-5.7997,-5.785,-5.7556,-5.7556,-5.6932,-5.5868,-5.5354,-5.4693,0.0,-5.3408,-5.3203,-5.3203,-5.3203,-5.3203,-5.3203,-5.3203,-5.2711,-5.194,-5.1646,-5.0692,-4.9537,-4.9243,-4.8746,-4.8306,-4.8306,-4.8306,-4.8306,-4.8306,-4.8306,-4.8306,-4.8306,-4.8306,-4.7976,-4.6654,-4.6104,-4.5553,-4.4232,-4.3718,-4.3515,-4.3515,-4.3515,-4.3515,-4.3515,-4.3515,-4.3515,-4.3515,-4.3515,-4.3515,-4.3515,-4.3515,-4.3515,-4.3515,-4.3515,-4.3515,-4.3515,-4.3515,-4.3515,-4.3515,-4.3515,-4.3515,-4.3515,-4.3515,-4.324,-4.2763,-4.2433,-4.2221,-4.2052,-4.2549,-4.3113,-4.3733,-4.425,-4.4388,0.0,-4.0092,-4.0208,-4.0169,-3.9631,-3.8854,-3.793,-3.7161,0.0,-3.55,-3.5346,-3.5423,-3.5577,-3.5577,-3.6154,-3.7969,-3.9585,-4.1208,-4.2931,-4.6163,-4.9625,-5.3049,-5.4934,-5.6626,-5.8242,-5.9858,-6.0781,-6.0781,-6.0781,-6.061,-6.0132,-5.9642,-5.9176,-5.8696,-5.8238,-5.7997,-5.7997,-5.7997,-5.796,-5.7923,-5.7923,-5.7483,-5.6712,-5.6712,-5.5868,-5.4399,-5.4399,-5.3959,-5.3203,-5.3203,-5.3203,-5.3203,-5.3203,-5.3203,-5.3167,-5.3151,-5.2601,-5.1793,-5.0986,-5.0178,-4.939,-4.8563,-4.8306,-4.8306,-4.8306,-4.8306,-4.8306,-4.8306,-4.8306,-4.8306,-4.8306,-4.8306,-4.8122,-4.7296,-4.6507,-4.5663,-4.4874,-4.4085,-4.3515,-4.3515,-4.3515,-4.3515,-4.3515,-4.3515,-4.3515,-4.3515,-4.3515,-4.3515,-4.3515,-4.3515,-4.3515,-4.3515,-4.3515,-4.3515,-4.3515,-4.3515,-4.3515,-4.3515,-4.3515,-4.3515,-4.3515,-4.3515,-4.3515,-4.3515,-4.2831,-4.2649,-4.2959,-4.3669,-4.4566,-4.5594,-4.5612,-4.5612,-3.4469,0.0,-3.7469,-3.6815,-3.7007,-3.693,0.0,-3.5468,-3.5346,-3.3814,0.0,-3.4891,-3.6192,-3.6423,-3.7385,-4.0423,-4.1239,-4.2085,-4.3778,-4.8048,-5.2279,-5.5703,-5.7588,-5.8781,-5.9165,-6.0165,-6.0781,-6.0781,-6.0781,-6.061,-6.0132,-5.9642,-5.9176,-5.8696,-5.8238,-5.7997,-5.7997,-5.7997,-5.7703,-5.7079,-5.7079,-5.6675,-5.5868,-5.5868,-5.5354,-5.4399,-5.4399,-5.3959,-5.3203,-5.3203,-5.3203,-5.3203,-5.3203,-5.3203,-5.3151,-5.2527,-5.1756,-5.0986,-5.0141,-4.9297,-4.8563,-4.8379,-4.8306,-4.8306,-4.8306,-4.8306,-4.8306,-4.8306,-4.8306,-4.8306,-4.8306,-4.8306,-4.8122,-4.7296,-4.6507,-4.5663,-4.4874,-4.4085,-4.3515,-4.3515,-4.3515,-4.3515,-4.3515,-4.3515,-4.3515,-4.3515,-4.3515,-4.3515,-4.3515,-4.3515,-4.3515,-4.3515,-4.3515,-4.3515,-4.3515,-4.3515,-4.3515,-4.3515,-4.3515,-4.3515,-4.3515,-4.3515,-4.3515,-4.3515,-4.3864,-4.4231,-4.4569,-4.5098,-4.5441,-4.5594,-4.5727,-4.5712,-3.2297,-3.4481,-3.65,-3.5692,-3.6423,-3.6969,-3.5661,0.0,0.0,0.0,0.0,0.0,0.0,-3.7046,-3.8161,-4.0777,-4.1854,-4.3547,-4.6778,-4.9933,-5.3164,-5.6599,-5.778,-5.8511,-5.8896,-5.9704,-6.0204,-6.0204,-6.055,-6.061,-6.0132,-5.9301,-5.8612,-5.8174,-5.7316,-5.7079,-5.7446,-5.7446,-5.7042,-5.6235,-5.6235,-5.5831,-5.506,-5.506,-5.462,-5.3849,-5.3849,-5.3592,-5.3203,-5.3203,-5.3203,-5.3203,-5.3203,-5.2968,-5.2601,-5.216,-5.1242,-5.0178,-4.9757,-4.9003,-4.8306,-4.8306,-4.8306,-4.8306,-4.8306,-4.8306,-4.8306,-4.8306,-4.8306,-4.8306,-4.8306,-4.8306,-4.8122,-4.7296,-4.6507,-4.5663,-4.4874,-4.4085,-4.3515,-4.3515,-4.3515,-4.3515,-4.3515,-4.3515,-4.3515,-4.3515,-4.3515,-4.3515,-4.3515,-4.3515,-4.3515,-4.3515,-4.3515,-4.3515,-4.3515,-4.3515,-4.3515,-4.3515,-4.3515,-4.3515,-4.3515,-4.3515,-4.3563,-4.3726,-4.429,-4.4811,-4.5188,-4.5596,-4.5768,-4.5704,-4.5775,-4.5718,-3.19,-3.4504,-3.6654,-3.5577,-3.6546,-3.7553,-3.6573,0.0,0.0,0.0,0.0,0.0,0.0,-3.7815,0.0,-4.0977,-4.2624,-4.5355,-5.0202,-5.1471,-5.3126,-5.6406,-5.6907,-5.728,-5.805,-5.8858,-5.9319,-5.9319,-6.0012,-6.0213,-5.9736,-5.8619,-5.782,-5.7414,-5.6298,-5.5963,-5.6493,-5.661,-5.6198,-5.5427,-5.5427,-5.4987,-5.4216,-5.4216,-5.3849,-5.3203,-5.3203,-5.3203,-5.3203,-5.3203,-5.3203,-5.3188,-5.3078,-5.2601,-5.1977,-5.172,-5.0785,-4.9574,-4.9463,-4.893,-4.8306,-4.8306,-4.8306,-4.8306,-4.8306,-4.8306,-4.8306,-4.8306,-4.8306,-4.8306,-4.8306,-4.8306,-4.8122,-4.7296,-4.6507,-4.5663,-4.4874,-4.4085,-4.3515,-4.3515,-4.3515,-4.3515,-4.3515,-4.3515,-4.3515,-4.3515,-4.3515,-4.3515,-4.3515,-4.3515,-4.3515,-4.3515,-4.3515,-4.3515,-4.3515,-4.3515,-4.3515,-4.3515,-4.3515,-4.3515,-4.3515,-4.3515,-4.3677,-4.4073,-4.4414,-4.4878,-4.5368,-4.5652,-4.5821,-4.5821,-4.5821,-4.5761,-3.332,-3.581,-3.7238,-3.4968,-3.5661,-3.6503,-3.5024,0.0,0.0,0.0,0.0,0.0,0.0,-3.9554,-4.117,-4.4286,-4.5663,-4.7577,-5.1192,-5.1808,-5.2885,-5.5588,-5.656,-5.706,-5.7176,-5.7973,-5.8473,-5.8473,-5.8627,-5.8486,-5.8006,-5.7428,-5.7075,-5.701,-5.6425,-5.5837,-5.53,-5.5591,-5.539,-5.4583,-5.4583,-5.4179,-5.3408,-5.3408,-5.3314,-5.3203,-5.3203,-5.3203,-5.3203,-5.3203,-5.3203,-5.3151,-5.2454,-5.2087,-5.183,-5.0492,-4.9831,-4.95,-4.8746,-4.8416,-4.8306,-4.8306,-4.8306,-4.8306,-4.8306,-4.8306,-4.8306,-4.8306,-4.8306,-4.8306,-4.8306,-4.8306,-4.8122,-4.7296,-4.6507,-4.5663,-4.4874,-4.4085,-4.3515,-4.3515,-4.3515,-4.3515,-4.3515,-4.3515,-4.3515,-4.3515,-4.3515,-4.3515,-4.3515,-4.3515,-4.3515,-4.3515,-4.3515,-4.3515,-4.3515,-4.3515,-4.3515,-4.3515,-4.3515,-4.3515,-4.3515,-4.3515,-4.3823,-4.4482,-4.4585,-4.4979,-4.5736,-4.5825,-4.5891,-4.5891,-4.5891,-4.5859,-3.2015,-3.4105,-3.5836,-3.5104,-3.7546,-3.9752,-3.8125,-3.7394,0.0,0.0,0.0,0.0,0.0,0.0,-4.3008,-4.6394,-4.8086,-4.9817,-5.2279,-5.301,-5.3895,-5.5511,-5.6049,-5.6291,-5.6291,-5.7088,-5.7588,-5.7588,-5.805,-5.8103,-5.761,-5.6996,-5.6519,-5.6262,-5.5607,-5.509,-5.4733,-5.465,-5.4326,-5.3739,-5.3739,-5.3555,-5.3203,-5.3203,-5.3203,-5.3203,-5.3203,-5.3203,-5.3203,-5.3203,-5.2931,-5.2527,-5.2123,-5.1483,-5.0565,-4.9334,-4.8893,-4.882,-4.8453,-4.8306,-4.8306,-4.8306,-4.8306,-4.8306,-4.8306,-4.8306,-4.8306,-4.8306,-4.8306,-4.8306,-4.8306,-4.8306,-4.8012,-4.6764,-4.6177,-4.5553,-4.4305,-4.3754,-4.3515,-4.3515,-4.3515,-4.3515,-4.3515,-4.3515,-4.3515,-4.3515,-4.3515,-4.3515,-4.3515,-4.3515,-4.3515,-4.3515,-4.3515,-4.3515,-4.3515,-4.3515,-4.3515,-4.3515,-4.3515,-4.3515,-4.3515,-4.366,-4.4035,-4.4599,-4.4788,-4.5189,-4.5831,-4.5891,-4.5952,-4.6001,-4.5948,-4.5852,-3.1652,-3.3184,-3.4836,-3.5849,0.0,-4.1462,-4.0848,-3.9893,-3.9427,0.0,0.0,0.0,0.0,-4.3278,-4.5163,-4.7971,-4.9856,-5.1587,-5.328,-5.4087,-5.478,-5.5588,-5.5703,-5.5703,-5.5703,-5.6291,-5.6714,-5.6714,-5.7319,-5.7512,-5.7174,-5.6496,-5.5978,-5.5708,-5.5011,-5.4625,-5.4625,-5.4204,-5.3739,-5.3339,-5.323,-5.3203,-5.3203,-5.3203,-5.3203,-5.3203,-5.3203,-5.3203,-5.3188,-5.3004,-5.2564,-5.194,-5.1593,-5.0565,-4.9206,-4.8563,-4.8306,-4.8306,-4.8306,-4.8306,-4.8306,-4.8306,-4.8306,-4.8306,-4.8306,-4.8306,-4.8306,-4.8306,-4.8306,-4.8306,-4.8306,-4.8159,-4.7682,-4.625,-4.5773,-4.5223,-4.3791,-4.3515,-4.3515,-4.3515,-4.3515,-4.3515,-4.3515,-4.3515,-4.3515,-4.3515,-4.3515,-4.3515,-4.3515,-4.3515,-4.3515,-4.3515,-4.3515,-4.3515,-4.3515,-4.3515,-4.3515,-4.3515,-4.3515,-4.3515,-4.3515,-4.3818,-4.419,-4.4599,-4.4931,-4.5355,-4.5879,-4.5879,-4.5974,-4.6089,-4.5971,-4.5852,-3.4718,-3.5426,-3.588,-3.7427,-3.7507,-3.7797,-4.0256,-3.9536,0.0,-4.0462,0.0,0.0,-4.2888,-4.5586,-4.8086,-4.9125,-5.0741,-5.2423,-5.4164,-5.4472,-5.478,-5.5588,-5.5703,-5.5703,-5.5703,-5.5742,-5.578,-5.578,-5.5857,-5.5885,-5.5824,-5.544,-5.5365,-5.5676,-5.5275,-5.5067,-5.5067,-5.4655,-5.4204,-5.3758,-5.338,-5.3203,-5.3203,-5.3203,-5.3203,-5.3203,-5.3203,-5.3203,-5.313,-5.238,-5.205,-5.183,-5.0381,-4.9187,-4.8379,-4.8343,-4.8306,-4.8306,-4.8306,-4.8306,-4.8306,-4.8306,-4.8306,-4.8306,-4.8306,-4.8306,-4.8306,-4.8306,-4.8306,-4.8306,-4.8306,-4.7736,-4.6966,-4.6104,-4.5333,-4.4562,-4.3681,-4.3515,-4.3515,-4.3515,-4.3515,-4.3515,-4.3515,-4.3515,-4.3515,-4.3515,-4.3515,-4.3515,-4.3515,-4.3515,-4.3515,-4.3515,-4.3515,-4.3515,-4.3515,-4.3515,-4.3515,-4.3515,-4.3515,-4.3515,-4.3515,-4.3818,-4.419,-4.4599,-4.4931,-4.5355,-4.5879,-4.5879,-4.5974,-4.6089,-4.5971,-4.5852,-3.3154,-3.4561,-3.602,-3.7013,-3.8215,0.0,0.0,-4.2266,-4.3308,-4.4422,-4.5347,-4.5861,-4.5522,-4.6932,-4.8394,-4.924,-5.1279,-5.3126,-5.4318,-5.4934,-5.5357,-5.5665,-5.5703,-5.5703,-5.5703,-5.5703,-5.5703,-5.5703,-5.5703,-5.5703,-5.5703,-5.5566,-5.5554,-5.5703,-5.5554,-5.5458,-5.5458,-5.4819,-5.4404,-5.4221,-5.3524,-5.3203,-5.3203,-5.3203,-5.3203,-5.3203,-5.3203,-5.2931,-5.2417,-5.2123,-5.1389,-5.0381,-4.9224,-4.86,-4.8306,-4.8306,-4.8306,-4.8306,-4.8306,-4.8306,-4.8306,-4.8306,-4.8306,-4.8306,-4.8306,-4.8306,-4.8306,-4.8306,-4.8495,-4.8622,-4.8345,-4.77,-4.6892,-4.6104,-4.5296,-4.4488,-4.3644,-4.3515,-4.3515,-4.3515,-4.3515,-4.3515,-4.3515,-4.3515,-4.3515,-4.3515,-4.3515,-4.3515,-4.3515,-4.3515,-4.3515,-4.3515,-4.3515,-4.3515,-4.3515,-4.3515,-4.3515,-4.3515,-4.3515,-4.3515,-4.3515,-4.3818,-4.419,-4.4599,-4.4931,-4.5351,-4.5836,-4.5836,-4.5906,-4.5978,-4.5862,-4.5801,-3.2912,-3.4344,-3.6114,-3.7057,0.0,0.0,-4.2419,-4.4118,-4.5699,-4.677,-4.7456,-4.7719,-4.7344,-4.774,-4.8471,-4.9625,-5.151,-5.3203,-5.4357,-5.4972,-5.5434,-5.5665,-5.5703,-5.5703,-5.5703,-5.5703,-5.5703,-5.5703,-5.5703,-5.5703,-5.5703,-5.5703,-5.5703,-5.5703,-5.5703,-5.5703,-5.5703,-5.504,-5.4609,-5.4484,-5.3758,-5.3318,-5.3203,-5.3203,-5.3272,-5.3363,-5.2994,-5.2594,-5.2166,-5.1507,-5.0455,-4.9114,-4.8526,-4.8306,-4.8306,-4.8306,-4.8306,-4.8306,-4.8306,-4.8306,-4.8306,-4.8306,-4.8306,-4.8306,-4.8306,-4.8122,-4.7939,-4.7939,-4.8031,-4.8049,-4.7756,-4.7315,-4.6688,-4.5877,-4.4998,-4.4158,-4.3608,-4.3515,-4.3515,-4.3515,-4.3515,-4.3515,-4.3515,-4.3515,-4.3515,-4.3515,-4.3515,-4.3515,-4.3515,-4.3515,-4.3515,-4.3515,-4.3515,-4.3515,-4.3515,-4.3515,-4.3515,-4.3515,-4.3515,-4.3515,-4.3515,-4.3818,-4.419,-4.4599,-4.4931,-4.5352,-4.5783,-4.5783,-4.5801,-4.5857,-4.5834,-4.5789,-3.4827,-3.5245,-3.6284,-3.7912,0.0,0.0,-4.373,-4.4505,-4.5002,-4.6693,-4.6962,-4.7154,-4.7971,-4.8125,-4.8663,-5.0404,-5.1356,-5.25,-5.4241,-5.4472,-5.478,-5.5588,-5.5665,-5.5665,-5.5665,-5.5665,-5.5665,-5.5665,-5.5665,-5.5665,-5.5665,-5.5703,-5.5703,-5.5703,-5.5703,-5.5703,-5.5703,-5.5287,-5.489,-5.4484,-5.4031,-5.3567,-5.3188,-5.3188,-5.3404,-5.3721,-5.2515,-5.2225,-5.2399,-5.0413,-4.9077,-4.8306,-4.8306,-4.8306,-4.8306,-4.8306,-4.8306,-4.8306,-4.8306,-4.8306,-4.8306,-4.8306,-4.8306,-4.8306,-4.8306,-4.7736,-4.7113,-4.7076,-4.6776,-4.6408,-4.6387,-4.6472,-4.628,-4.5413,-4.435,-4.3515,-4.3515,-4.3515,-4.3515,-4.3515,-4.3515,-4.3515,-4.3515,-4.3515,-4.3515,-4.3515,-4.3515,-4.3515,-4.3515,-4.3515,-4.3515,-4.3515,-4.3515,-4.3515,-4.3515,-4.3515,-4.3515,-4.3515,-4.3515,-4.3515,-4.3515,-4.3802,-4.4175,-4.4599,-4.4919,-4.5343,-4.5777,-4.5815,-4.5815,-4.5815,-4.5815,-4.5718,-3.3983,-3.5271,0.0,-3.812,0.0,0.0,0.0,-4.5893,0.0,0.0,-4.9094,-4.874,-4.8971,-4.9009,-4.9163,-4.9702,-5.0971,-5.2077,-5.2577,-5.3203,-5.3664,-5.3895,-5.3933,-5.3933,-5.3933,-5.3933,-5.3933,-5.3933,-5.4511,-5.4587,-5.3972,-5.5049,-5.5434,-5.4857,-5.5395,-5.5703,-5.5703,-5.4701,-5.4126,-5.4016,-5.2959,-5.2416,-5.2364,-5.2597,-5.2475,-5.2027,-5.1942,-5.1513,-5.0725,-4.9288,-4.8526,-4.8306,-4.8306,-4.8306,-4.8306,-4.8306,-4.8306,-4.8306,-4.8306,-4.8306,-4.8306,-4.8306,-4.8306,-4.8306,-4.8306,-4.7736,-4.715,-4.7438,-4.717,-4.6737,-4.6416,-4.6342,-4.6176,-4.5387,-4.4501,-4.3807,-4.3529,-4.3515,-4.3515,-4.3515,-4.3515,-4.3515,-4.3515,-4.3515,-4.3515,-4.3515,-4.3515,-4.3515,-4.3515,-4.3515,-4.3515,-4.3515,-4.3515,-4.3515,-4.3515,-4.3515,-4.3515,-4.3515,-4.3515,-4.3515,-4.3515,-4.3597,-4.3839,-4.4161,-4.4548,-4.4928,-4.5323,-4.5535,-4.5657,-4.5657,-4.5657,-4.5654,-3.5742,-3.7148,0.0,-4.0576,-4.2941,-4.5242,-4.7019,0.0,0.0,-5.0308,-5.001,-4.951,-4.9856,-4.9625,-4.951,-4.9856,-5.0741,-5.1548,-5.1846,-5.2346,-5.2818,-5.3164,-5.3203,-5.3203,-5.3203,-5.3203,-5.3203,-5.3203,-5.3703,-5.3741,-5.3241,-5.4164,-5.4472,-5.401,-5.4434,-5.4703,-5.4703,-5.394,-5.3466,-5.3327,-5.2384,-5.1686,-5.1265,-5.1807,-5.1748,-5.1337,-5.1274,-5.0505,-4.9343,-4.8604,-4.8306,-4.8306,-4.8306,-4.8306,-4.8306,-4.8306,-4.8306,-4.8306,-4.8306,-4.8306,-4.8306,-4.8306,-4.8067,-4.781,-4.781,-4.7132,-4.6387,-4.664,-4.6463,-4.6164,-4.5887,-4.5927,-4.5835,-4.5115,-4.4476,-4.3912,-4.3563,-4.3515,-4.3515,-4.3515,-4.3515,-4.3515,-4.3515,-4.3515,-4.3515,-4.3515,-4.3515,-4.3515,-4.3515,-4.3515,-4.3515,-4.3515,-4.3515,-4.3515,-4.3515,-4.3515,-4.3515,-4.3515,-4.3515,-4.3515,-4.3515,-4.3515,-4.3644,-4.3982,-4.4233,-4.46,-4.5115,-4.5293,-4.5457,-4.5594,-4.5594,-4.5594,-3.8672,-3.9726,0.0,-4.4062,-4.5029,0.0,-4.8837,-4.9614,-4.993,-5.0576,-5.0048,-4.974,-5.0558,-5.0048,-4.9779,-5.0558,-5.0712,-5.0971,-5.1692,-5.1769,-5.2077,-5.2895,-5.2972,-5.2972,-5.2972,-5.2972,-5.2972,-5.2972,-5.3049,-5.3049,-5.2972,-5.3126,-5.3164,-5.3087,-5.3164,-5.3203,-5.3203,-5.3126,-5.29,-5.2488,-5.2025,-5.1168,-5.0016,-5.0817,-5.1205,-5.12,-5.0454,-4.9449,-4.8363,-4.8325,-4.8306,-4.8306,-4.8306,-4.8306,-4.8306,-4.8306,-4.8306,-4.8306,-4.8306,-4.8306,-4.8306,-4.8233,-4.77,-4.7076,-4.7003,-4.6148,-4.5227,-4.5258,-4.5202,-4.5126,-4.5148,-4.5361,-4.54,-4.4763,-4.4318,-4.3958,-4.358,-4.3515,-4.3515,-4.3515,-4.3515,-4.3515,-4.3515,-4.3515,-4.3515,-4.3515,-4.3515,-4.3515,-4.3515,-4.3515,-4.3515,-4.3515,-4.3515,-4.3515,-4.3515,-4.3515,-4.3515,-4.3515,-4.3515,-4.3515,-4.3515,-4.3515,-4.3664,-4.3958,-4.3967,-4.4346,-4.5,-4.5094,-4.5253,-4.5559,-4.5586,-4.5594,-3.6445,-3.8359,0.0,0.0,-4.6015,-4.8156,-4.8752,-4.9876,-5.0778,-5.072,-5.0558,-5.0481,-5.0673,-5.0558,-5.0481,-5.0673,-5.0712,-5.075,-5.0933,-5.0971,-5.101,-5.1202,-5.1241,-5.1241,-5.1241,-5.1241,-5.1241,-5.1241,-5.1818,-5.1895,-5.1279,-5.2472,-5.2895,-5.2192,-5.2856,-5.3203,-5.3203,-5.25,-5.1979,-5.1561,-5.0837,-5.0043,-4.9176,-4.9978,-5.0202,-4.9898,-4.971,-4.9327,-4.8744,-4.8439,-4.8306,-4.8306,-4.8306,-4.8306,-4.8306,-4.8306,-4.8306,-4.8306,-4.8306,-4.8306,-4.8196,-4.7553,-4.7223,-4.6966,-4.6361,-4.5722,-4.5273,-4.5585,-4.542,-4.5169,-4.5419,-4.5361,-4.5088,-4.4714,-4.4508,-4.4276,-4.3647,-4.3515,-4.3515,-4.3515,-4.3515,-4.3515,-4.3515,-4.3515,-4.3515,-4.3515,-4.3515,-4.3515,-4.3515,-4.3515,-4.3515,-4.3515,-4.3515,-4.3515,-4.3515,-4.3515,-4.3515,-4.3515,-4.3515,-4.3515,-4.3515,-4.3515,-4.3512,-4.3614,-4.3865,-4.4073,-4.4247,-4.4799,-4.5148,-4.5211,-4.5466,-4.5594,-3.6953,0.0,0.0,-4.4726,0.0,-4.8475,-4.9144,-4.9616,-4.9904,-5.014,-5.0441,-5.0712,-5.0712,-5.0712,-5.0712,-5.0712,-5.0712,-5.0712,-5.0712,-5.0712,-5.0712,-5.0712,-5.0712,-5.0712,-5.0712,-5.0712,-5.0712,-5.0712,-5.1087,-5.1125,-5.0712,-5.151,-5.1779,-5.1356,-5.1779,-5.201,-5.201,-5.1548,-5.1107,-5.0734,-5.0302,-4.9768,-4.9187,-4.9409,-4.9519,-4.9489,-4.9295,-4.9092,-4.8881,-4.8477,-4.8306,-4.8306,-4.8306,-4.8421,-4.8586,-4.8586,-4.8327,-4.7994,-4.7994,-4.7629,-4.7095,-4.6654,-4.6269,-4.5865,-4.5443,-4.5131,-4.4956,-4.5173,-4.5285,-4.539,-4.5559,-4.5457,-4.5253,-4.4919,-4.4561,-4.4146,-4.3614,-4.3515,-4.3515,-4.3515,-4.3515,-4.3515,-4.3515,-4.3515,-4.3515,-4.3515,-4.3515,-4.3515,-4.3515,-4.3515,-4.3515,-4.3515,-4.3515,-4.3515,-4.3515,-4.3515,-4.3515,-4.3515,-4.3515,-4.3515,-4.3515,-4.3515,-4.3515,-4.3515,-4.366,-4.3833,-4.3982,-4.4574,-4.4943,-4.5126,-4.5438,-4.5594,-3.7226,0.0,-4.2187,-4.6328,-4.75,0.0,-4.9272,-4.9055,-4.872,-4.9311,-4.9975,-5.0481,-5.0481,-5.0596,-5.0712,-5.0712,-5.0712,-5.0712,-5.0712,-5.0712,-5.0712,-5.0712,-5.0712,-5.0712,-5.0712,-5.0712,-5.0712,-5.0712,-5.0712,-5.0712,-5.0712,-5.0712,-5.0712,-5.0712,-5.0712,-5.0712,-5.0712,-5.0712,-5.0493,-5.0111,-5.0012,-4.9872,-4.9589,-4.9265,-4.9249,-4.9475,-4.9139,-4.8945,-4.8881,-4.8477,-4.8306,-4.8306,-4.8306,-4.8403,-4.8573,-4.8573,-4.807,-4.74,-4.74,-4.6737,-4.5883,-4.5736,-4.5276,-4.4741,-4.463,-4.4617,-4.4701,-4.4701,-4.5148,-4.5594,-4.5594,-4.5559,-4.5438,-4.5169,-4.4587,-4.402,-4.3644,-4.3529,-4.3515,-4.3515,-4.3515,-4.3515,-4.3515,-4.3515,-4.3515,-4.3515,-4.3515,-4.3515,-4.3515,-4.3515,-4.3515,-4.3515,-4.3515,-4.3515,-4.3515,-4.3515,-4.3515,-4.3515,-4.3515,-4.3515,-4.3515,-4.3515,-4.3515,-4.3515,-4.3515,-4.3647,-4.3927,-4.4359,-4.4751,-4.5011,-4.5419,-4.5594,0.0,0.0,-4.2031,0.0,-4.7031,-4.7656,0.0,0.0,-4.8665,-4.8647,-4.9149,-4.9586,-4.9586,-5.0202,-5.0712,-5.0712,-5.0712,-5.0712,-5.0712,-5.0712,-5.0712,-5.0712,-5.0712,-5.0712,-5.0712,-5.0712,-5.0712,-5.0712,-5.0712,-5.0712,-5.0712,-5.0712,-5.0712,-5.0712,-5.0712,-5.0712,-5.0712,-5.0712,-5.0493,-5.0111,-4.9765,-4.9714,-5.0012,-4.9962,-4.9792,-4.9489,-4.9445,-4.9218,-4.8881,-4.8477,-4.8306,-4.8306,-4.8306,-4.7903,-4.7335,-4.7335,-4.682,-4.6139,-4.6139,-4.6011,-4.5773,-4.5112,-4.4969,-4.4984,-4.4315,-4.453,-4.5022,-4.5022,-4.5293,-4.5594,-4.5594,-4.539,-4.5169,-4.5126,-4.4812,-4.4401,-4.4035,-4.371,-4.3515,-4.3515,-4.3515,-4.3515,-4.3515,-4.3515,-4.3515,-4.3515,-4.3515,-4.3515,-4.3515,-4.3515,-4.3515,-4.3515,-4.3515,-4.3515,-4.3515,-4.3515,-4.3515,-4.3515,-4.3515,-4.3515,-4.3515,-4.3515,-4.3515,-4.3515,-4.3515,-4.3532,-4.3563,-4.427,-4.4637,-4.4688,-4.5303,-4.5594,-3.4726,-3.8437,-4.2031,0.0,-4.6601,-4.6992,-4.75,-4.7409,-4.7367,-4.7804,-4.7988,-4.8188,-4.8605,-4.9394,-4.9971,-4.9971,-5.0366,-5.0712,-5.0712,-5.0712,-5.0712,-5.0712,-5.0712,-5.0712,-5.0712,-5.0712,-5.0712,-5.0712,-5.0712,-5.0712,-5.0712,-5.0712,-5.0712,-5.0712,-5.0712,-5.0712,-5.0712,-5.0483,-5.0291,-5.0111,-4.9673,-4.9846,-5.044,-4.9962,-4.9924,-5.0147,-4.9687,-4.9152,-4.8527,-4.7885,-4.7758,-4.7919,-4.7206,-4.7292,-4.7676,-4.7019,-4.6268,-4.5564,-4.5564,-4.5137,-4.4488,-4.4121,-4.4113,-4.4202,-4.4033,-4.4387,-4.4861,-4.5033,-4.5361,-4.5594,-4.5594,-4.5475,-4.5313,-4.5159,-4.4977,-4.4701,-4.4132,-4.3881,-4.3726,-4.3549,-4.3515,-4.3515,-4.3515,-4.325,-4.316,-4.3463,-4.3232,-4.316,-4.348,-4.3515,-4.3515,-4.3515,-4.3515,-4.3515,-4.3515,-4.3515,-4.3515,-4.3515,-4.3515,-4.3515,-4.3515,-4.3515,-4.3515,-4.3515,-4.3515,-4.3515,-4.3515,-4.402,-4.4373,-4.4624,-4.5115,-4.5419,0.0,0.0,-4.0195,-4.4297,-4.5469,-4.5937,0.0,-4.6673,-4.6341,-4.6952,-4.6925,-4.6913,-4.7417,-4.8354,-4.9086,-4.9086,-4.9625,-5.0125,-5.0327,-5.0164,-5.0125,-5.0327,-5.0366,-5.0366,-5.0366,-5.0558,-5.0712,-5.0712,-5.0712,-5.0596,-5.0366,-5.0366,-5.0289,-5.0048,-5.0048,-5.0048,-5.0048,-4.9729,-4.958,-4.958,-4.929,-4.9389,-4.9872,-4.929,-4.929,-4.9756,-4.9281,-4.8738,-4.823,-4.7196,-4.6983,-4.7151,-4.6248,-4.6524,-4.729,-4.6382,-4.5509,-4.4857,-4.4857,-4.426,-4.3515,-4.3515,-4.3631,-4.3839,-4.4095,-4.4482,-4.4908,-4.5169,-4.541,-4.5594,-4.5594,-4.555,-4.5429,-4.5263,-4.5169,-4.4908,-4.4161,-4.3943,-4.3786,-4.3529,-4.3515,-4.3463,-4.3303,-4.3087,-4.2977,-4.325,-4.3087,-4.3069,-4.3463,-4.3515,-4.3515,-4.3515,-4.3515,-4.3515,-4.3515,-4.3515,-4.3515,-4.3515,-4.3515,-4.3515,-4.3515,-4.3515,-4.3515,-4.3515,-4.3515,-4.3515,-4.3515,-4.3833,-4.4146,-4.4441,-4.4908,-4.5232,0.0,-3.375,0.0,-4.1133,-4.3203,0.0,0.0,-4.6328,-4.6287,-4.6179,-4.6162,-4.6112,-4.5944,-4.7155,-4.8163,-4.8163,-4.8202,-4.8509,-4.9356,-4.8779,-4.8548,-4.9356,-4.9471,-4.9471,-4.9471,-5.0212,-5.0712,-5.0712,-5.0712,-5.0327,-4.951,-4.9471,-4.9086,-4.8279,-4.824,-4.824,-4.824,-4.8221,-4.8212,-4.8212,-4.8164,-4.8018,-4.7766,-4.7732,-4.754,-4.7322,-4.7641,-4.8009,-4.8192,-4.6621,-4.5975,-4.5993,-4.5938,-4.5479,-4.489,-4.4818,-4.4267,-4.3586,-4.3586,-4.3569,-4.3515,-4.3515,-4.3958,-4.4559,-4.4572,-4.5022,-4.5559,-4.5568,-4.5586,-4.5594,-4.5594,-4.5381,-4.5201,-4.5485,-4.5313,-4.4908,-4.4161,-4.3758,-4.3532,-4.3515,-4.3515,-4.3321,-4.2808,-4.3142,-4.3286,-4.2808,-4.316,-4.348,-4.3497,-4.3515,-4.3515,-4.3515,-4.3515,-4.3515,-4.3515,-4.3515,-4.3515,-4.3515,-4.3515,-4.3515,-4.3515,-4.3515,-4.3515,-4.3515,-4.3515,-4.3515,-4.3515,-4.3833,-4.3998,-4.4043,-4.475,-4.5126,0.0,0.0,0.0,-3.8984,-4.1445,-4.3164,-4.4375,-4.5508,-4.6289,-4.6246,-4.615,-4.6075,-4.6017,-4.6756,-4.7402,-4.7335,-4.7778,-4.8247,-4.8662,-4.8446,-4.833,-4.8678,-4.8678,-4.866,-4.8557,-4.8856,-4.9048,-4.9048,-4.9048,-4.8894,-4.8586,-4.8586,-4.8432,-4.8125,-4.8086,-4.7962,-4.7728,-4.7952,-4.7952,-4.7728,-4.7962,-4.7923,-4.7579,-4.7327,-4.7161,-4.7027,-4.6153,-4.6121,-4.6609,-4.5568,-4.5423,-4.5723,-4.4767,-4.466,-4.4988,-4.4206,-4.3754,-4.3515,-4.3515,-4.3515,-4.3515,-4.3515,-4.3802,-4.4261,-4.4508,-4.4919,-4.5303,-4.555,-4.5438,-4.5273,-4.5273,-4.5191,-4.5191,-4.5532,-4.5191,-4.4776,-4.4713,-4.4247,-4.3775,-4.3529,-4.3515,-4.3463,-4.325,-4.3105,-4.305,-4.3196,-4.3087,-4.3124,-4.3463,-4.3515,-4.3515,-4.3515,-4.3515,-4.3515,-4.3515,-4.3515,-4.3515,-4.3515,-4.3515,-4.3515,-4.3515,-4.3515,-4.3515,-4.3515,-4.3515,-4.3515,-4.3515,-4.3631,-4.3807,-4.3998,-4.4535,-4.4896,-2.9297,0.0,0.0,0.0,-3.9219,-4.0937,-4.3555,-4.457,-4.5156,-4.5742,-4.6049,-4.6149,-4.6093,-4.6427,-4.6651,-4.6559,-4.6978,-4.7465,-4.7876,-4.7669,-4.7591,-4.7901,-4.7888,-4.7843,-4.7747,-4.7939,-4.8086,-4.8086,-4.8086,-4.7971,-4.7702,-4.7702,-4.7548,-4.7278,-4.7278,-4.7117,-4.6838,-4.7108,-4.7108,-4.6876,-4.7029,-4.6908,-4.6578,-4.6183,-4.5946,-4.5829,-4.4781,-4.4862,-4.5728,-4.4716,-4.4649,-4.5082,-4.3948,-4.3996,-4.4612,-4.3818,-4.3515,-4.3515,-4.3515,-4.3515,-4.3515,-4.3515,-4.3726,-4.4073,-4.4455,-4.4837,-4.5159,-4.5381,-4.5263,-4.5115,-4.5115,-4.5191,-4.5283,-4.541,-4.5191,-4.4966,-4.5094,-4.4535,-4.3943,-4.371,-4.358,-4.3463,-4.3268,-4.3105,-4.305,-4.3214,-4.3087,-4.3105,-4.3463,-4.3515,-4.3515,-4.3515,-4.3515,-4.3515,-4.3515,-4.3515,-4.3515,-4.3515,-4.3515,-4.3515,-4.3515,-4.3515,-4.3515,-4.3515,-4.3515,-4.3515,-4.3515,-4.3515,-4.3614,-4.3833,-4.4346,-4.4849,0.0,0.0,0.0,0.0,0.0,-3.75,-4.3437,-4.3476,-4.2812,-4.4609,-4.5625,-4.617,-4.6101,-4.6091,-4.6069,-4.5948,-4.5859,-4.6117,-4.7028,-4.6429,-4.6234,-4.7086,-4.7039,-4.6971,-4.6964,-4.7593,-4.8048,-4.8048,-4.8048,-4.7702,-4.6885,-4.6846,-4.6471,-4.5633,-4.5594,-4.5594,-4.5594,-4.5594,-4.5594,-4.5586,-4.5253,-4.4919,-4.4599,-4.4175,-4.3802,-4.3515,-4.3515,-4.4342,-4.5639,-4.4103,-4.3693,-4.3989,-4.3647,-4.3515,-4.3515,-4.3515,-4.3515,-4.3515,-4.3515,-4.3515,-4.3515,-4.3515,-4.3726,-4.4073,-4.4455,-4.4837,-4.5105,-4.5115,-4.5105,-4.5105,-4.5115,-4.5361,-4.5523,-4.5191,-4.5371,-4.5532,-4.5191,-4.4548,-4.3998,-4.3998,-4.3726,-4.3321,-4.2808,-4.316,-4.3321,-4.2789,-4.3178,-4.3515,-4.3515,-4.3515,-4.3515,-4.3515,-4.3515,-4.3515,-4.3515,-4.3515,-4.3515,-4.3515,-4.3515,-4.3515,-4.3515,-4.3515,-4.3515,-4.3515,-4.3515,-4.3515,-4.3515,-4.3515,-4.3515,-4.3532,-4.4247,-4.4977,-2.8281,0.0,0.0,0.0,0.0,0.0,-3.875,-3.9531,-4.0508,-4.3437,-4.375,-4.4062,-4.5896,-4.6152,-4.6136,-4.6195,-4.5992,-4.5992,-4.6362,-4.6217,-4.6139,-4.6373,-4.629,-4.6175,-4.6138,-4.6221,-4.6278,-4.6278,-4.6278,-4.6201,-4.597,-4.597,-4.5864,-4.5594,-4.5594,-4.5594,-4.5594,-4.5594,-4.5594,-4.5586,-4.5253,-4.4919,-4.4599,-4.4175,-4.3802,-4.3515,-4.3515,-4.3869,-4.4468,-4.3788,-4.3693,-4.3989,-4.3647,-4.3515,-4.3515,-4.3515,-4.3515,-4.3515,-4.3515,-4.3515,-4.3515,-4.3515,-4.3726,-4.4073,-4.4455,-4.4676,-4.48,-4.5022,-4.4919,-4.48,-4.5022,-4.518,-4.5263,-4.5429,-4.5541,-4.5577,-4.5466,-4.4931,-4.4346,-4.4043,-4.3726,-4.3463,-4.3303,-4.3391,-4.3463,-4.3303,-4.3391,-4.3515,-4.3515,-4.3515,-4.3515,-4.3515,-4.3515,-4.3515,-4.3515,-4.3515,-4.3515,-4.3515,-4.3515,-4.3515,-4.3515,-4.3515,-4.3515,-4.3515,-4.3515,-4.3515,-4.3515,-4.3515,-4.3515,-4.3495,-4.4307,-4.5073,-2.9844,-3.1016,0.0,-3.2539,0.0,0.0,-3.7187,-3.7655,-3.8473,-4.1953,-4.2498,-4.2926,-4.4844,-4.5464,-4.5655,-4.5742,-4.5919,-4.6087,-4.6155,-4.6196,-4.6196,-4.6196,-4.6005,-4.5891,-4.5853,-4.5696,-4.5594,-4.5594,-4.5594,-4.5594,-4.5594,-4.5594,-4.5594,-4.5594,-4.5594,-4.5594,-4.5594,-4.5594,-4.5594,-4.5586,-4.5137,-4.48,-4.4599,-4.405,-4.3677,-4.3515,-4.3515,-4.3614,-4.3807,-4.3742,-4.3818,-4.3989,-4.3647,-4.3515,-4.3515,-4.3515,-4.3515,-4.3515,-4.3515,-4.3515,-4.3515,-4.3515,-4.3647,-4.3849,-4.4233,-4.4346,-4.4387,-4.4587,-4.4612,-4.4688,-4.5,-4.5201,-4.5371,-4.5559,-4.5594,-4.5594,-4.5594,-4.5066,-4.4546,-4.429,-4.3855,-4.3515,-4.3515,-4.3515,-4.3515,-4.3515,-4.3515,-4.3515,-4.3515,-4.3515,-4.3515,-4.3515,-4.3515,-4.3515,-4.3515,-4.3515,-4.3515,-4.3515,-4.3515,-4.3515,-4.3515,-4.3515,-4.3515,-4.3515,-4.3515,-4.3374,-4.3178,-4.3374,-4.3664,-4.3974,-4.4461,-4.5102,-3.1914,-3.2617,0.0,-3.4531,-3.3711,0.0,-3.7226,-3.6868,-3.67,-3.996,-4.1124,-4.1932,-4.3045,-4.4022,-4.4647,-4.457,-4.5468,-4.6172,-4.6289,-4.6289,-4.6289,-4.6289,-4.6067,-4.5914,-4.59,-4.5708,-4.5594,-4.5594,-4.5594,-4.5594,-4.5594,-4.5594,-4.5594,-4.5594,-4.5594,-4.5594,-4.5594,-4.5594,-4.5594,-4.5586,-4.4931,-4.4612,-4.4585,-4.3839,-4.3515,-4.3515,-4.3515,-4.3515,-4.3495,-4.3818,-4.3921,-4.3927,-4.3644,-4.3512,-4.3515,-4.3515,-4.3515,-4.3515,-4.3515,-4.3515,-4.3515,-4.3515,-4.3515,-4.3546,-4.3912,-4.3952,-4.3937,-4.3982,-4.4318,-4.4739,-4.5011,-4.5361,-4.5594,-4.5594,-4.5594,-4.5594,-4.5594,-4.5088,-4.465,-4.4624,-4.3989,-4.3515,-4.3515,-4.3515,-4.3515,-4.3515,-4.3515,-4.3515,-4.3515,-4.3515,-4.3515,-4.3515,-4.3515,-4.3515,-4.3515,-4.3515,-4.3515,-4.3515,-4.3515,-4.3515,-4.3515,-4.3515,-4.3515,-4.3515,-4.3515,-4.3268,-4.277,-4.3268,-4.3833,-4.4484,-4.465,-4.5109,-3.5469,-3.5742,-3.625,-3.5,-3.5508,0.0,-3.4687,-3.4687,-3.5311,-3.6719,-3.71,-3.7821,-4.0057,-4.1668,-4.2473,-4.189,-4.3689,-4.5456,-4.6172,-4.6289,-4.6248,-4.6149,-4.5995,-4.5881,-4.5801,-4.5704,-4.5594,-4.5594,-4.5594,-4.5594,-4.5594,-4.5594,-4.5594,-4.5594,-4.5594,-4.5594,-4.5594,-4.5594,-4.5594,-4.5586,-4.4931,-4.4612,-4.4585,-4.3839,-4.3515,-4.3515,-4.3515,-4.3515,-4.3515,-4.3563,-4.3597,-4.3631,-4.3818,-4.3742,-4.3515,-4.3515,-4.3515,-4.3515,-4.3515,-4.3515,-4.3515,-4.3515,-4.3515,-4.3546,-4.3912,-4.3802,-4.3627,-4.3943,-4.4495,-4.5011,-4.5066,-4.5361,-4.5594,-4.5594,-4.5594,-4.5594,-4.5594,-4.5273,-4.4919,-4.4663,-4.3989,-4.3515,-4.3515,-4.3515,-4.3515,-4.3515,-4.3515,-4.3515,-4.3515,-4.3515,-4.3515,-4.3515,-4.3515,-4.3515,-4.3515,-4.3515,-4.3515,-4.3515,-4.3515,-4.3515,-4.3515,-4.3515,-4.3515,-4.3515,-4.3515,-4.3463,-4.3339,-4.3463,-4.3636,-4.387,-4.4543,-4.5217,-3.7773,-3.7617,-3.7734,-3.6875,-3.6641,0.0,0.0,-3.4997,-3.515,-3.6914,-3.6553,-3.6573,-3.874,-3.9769,-4.0287,-4.0352,-4.2132,-4.3687,-4.4146,-4.5372,-4.6147,-4.6008,-4.5952,-4.5896,-4.5869,-4.5789,-4.5743,-4.5688,-4.5719,-4.5673,-4.5594,-4.5594,-4.5594,-4.5594,-4.5594,-4.5594,-4.5594,-4.5594,-4.5594,-4.5586,-4.5077,-4.4763,-4.4599,-4.402,-4.3644,-4.3515,-4.3515,-4.3515,-4.3532,-4.3677,-4.3664,-4.3532,-4.3677,-4.3664,-4.3515,-4.3515,-4.3515,-4.3515,-4.3515,-4.3515,-4.3515,-4.3515,-4.3515,-4.3512,-4.3693,-4.3647,-4.3614,-4.4169,-4.4561,-4.4931,-4.5253,-4.5466,-4.5594,-4.5594,-4.5594,-4.5594,-4.5594,-4.5351,-4.4988,-4.4676,-4.4154,-4.3693,-4.3549,-4.3515,-4.3515,-4.3515,-4.3515,-4.3515,-4.3515,-4.3515,-4.3515,-4.3515,-4.3515,-4.3515,-4.3515,-4.3515,-4.3515,-4.3515,-4.3515,-4.3515,-4.3515,-4.3515,-4.3515,-4.3515,-4.3515,-4.3356,-4.3105,-4.3356,-4.3623,-4.3864,-4.4498,-4.5123,-4.0,-3.957,-3.9453,-3.8984,-3.8047,-3.7148,0.0,0.0,0.0,-3.7265,-3.6553,-3.6108,-3.7575,-3.7866,-3.8103,-3.8812,-4.0286,-4.133,-4.1322,-4.35,-4.5114,-4.5153,-4.5335,-4.549,-4.5646,-4.5529,-4.5517,-4.5796,-4.5506,-4.5385,-4.5603,-4.5594,-4.5594,-4.5594,-4.5594,-4.5594,-4.5594,-4.5594,-4.5594,-4.5586,-4.5201,-4.4861,-4.4599,-4.4102,-4.3758,-4.3515,-4.3515,-4.3549,-4.3614,-4.3802,-4.3791,-4.3597,-4.3597,-4.3546,-4.3515,-4.3515,-4.3515,-4.3515,-4.3515,-4.3515,-4.3515,-4.3515,-4.3515,-4.3515,-4.3515,-4.3566,-4.371,-4.4341,-4.4612,-4.4825,-4.5381,-4.5559,-4.5594,-4.5594,-4.5594,-4.5594,-4.5594,-4.539,-4.5115,-4.4776,-4.4373,-4.3989,-4.3563,-4.3515,-4.3515,-4.3515,-4.3546,-4.3563,-4.3515,-4.3546,-4.3563,-4.3515,-4.3515,-4.3515,-4.3515,-4.3515,-4.3463,-4.3339,-4.3463,-4.3463,-4.3339,-4.3463,-4.3515,-4.3515,-4.3515,-4.3286,-4.2882,-4.3286,-4.361,-4.3853,-4.4386,-4.4873,-4.3398,-4.3125,-4.2578,-4.0312,-4.0703,-4.0508,-3.6016,0.0,-3.6406,-3.4414,0.0,-3.4809,-3.5009,0.0,0.0,-3.6115,-3.7536,-3.8631,-3.8562,-4.0187,-4.1692,-4.2424,-4.3198,-4.3973,-4.4747,-4.4154,-4.4258,-4.5674,-4.4363,-4.4119,-4.5526,-4.5594,-4.5594,-4.5594,-4.5594,-4.5594,-4.5594,-4.5594,-4.5594,-4.5586,-4.4966,-4.465,-4.4585,-4.3886,-4.3549,-4.3515,-4.3515,-4.366,-4.3943,-4.3644,-4.371,-4.3958,-4.3958,-4.3775,-4.3515,-4.3515,-4.3515,-4.3515,-4.3515,-4.3515,-4.3515,-4.3515,-4.3515,-4.3515,-4.3515,-4.371,-4.3937,-4.4028,-4.4548,-4.5044,-4.5148,-4.539,-4.5594,-4.5594,-4.5594,-4.5594,-4.5594,-4.5568,-4.5438,-4.5126,-4.4776,-4.4327,-4.3614,-4.3515,-4.3515,-4.3515,-4.3758,-4.3833,-4.3529,-4.3775,-4.3818,-4.3512,-4.3515,-4.3515,-4.3515,-4.3515,-4.3286,-4.2808,-4.3232,-4.3286,-4.2789,-4.325,-4.3515,-4.3515,-4.3515,-4.348,-4.3428,-4.348,-4.3422,-4.3306,-4.3976,-4.4657,-4.3945,-4.3711,-4.332,-4.1758,-4.1133,-4.0234,-3.7578,-3.6758,-3.6367,-3.5781,0.0,0.0,0.0,0.0,0.0,0.0,-3.5505,-3.5873,-3.5854,-3.6941,-3.8651,-4.1018,-4.1723,-4.239,-4.3285,-4.3014,-4.3302,-4.4425,-4.3763,-4.3806,-4.4885,-4.5384,-4.5594,-4.5594,-4.5594,-4.5594,-4.5594,-4.5594,-4.5594,-4.5594,-4.5303,-4.4977,-4.4599,-4.4285,-4.3881,-4.3515,-4.3515,-4.358,-4.3693,-4.3546,-4.358,-4.371,-4.371,-4.3631,-4.3515,-4.3515,-4.3515,-4.3515,-4.3515,-4.3515,-4.3515,-4.3515,-4.3515,-4.3515,-4.3515,-4.3597,-4.3758,-4.3958,-4.4387,-4.4861,-4.5033,-4.5361,-4.5594,-4.5594,-4.5594,-4.5594,-4.5594,-4.5594,-4.5485,-4.5169,-4.4977,-4.4751,-4.4242,-4.3775,-4.3647,-4.4065,-4.408,-4.3974,-4.3802,-4.3927,-4.3865,-4.3549,-4.3515,-4.3515,-4.3515,-4.3515,-4.3268,-4.2713,-4.2902,-4.3087,-4.316,-4.3374,-4.3515,-4.3515,-4.3515,-4.3515,-4.3515,-4.3515,-4.3284,-4.2923,-4.3398,-4.383,-4.4648,-4.4414,-4.4023,-4.2461,-4.1172,-3.9844,-3.8242,-3.7266,-3.6836,-3.7226,-3.668,0.0,0.0,0.0,-3.4364,-3.4789,0.0,-3.4218,-3.423,-3.4659,-3.6052,-3.8999,-4.0133,-4.0962,-4.164,-4.1484,-4.1871,-4.3162,-4.2691,-4.2961,-4.4408,-4.497,-4.5364,-4.5594,-4.5594,-4.5594,-4.5594,-4.5594,-4.5594,-4.5594,-4.5419,-4.5066,-4.4612,-4.4411,-4.4004,-4.3515,-4.3515,-4.3546,-4.3647,-4.3549,-4.3546,-4.3647,-4.3549,-4.3515,-4.3515,-4.3515,-4.3515,-4.3515,-4.3515,-4.3515,-4.3515,-4.3515,-4.3515,-4.3515,-4.3515,-4.3515,-4.3563,-4.3912,-4.429,-4.4688,-4.5,-4.5361,-4.5594,-4.5594,-4.5594,-4.5594,-4.5594,-4.5594,-4.5541,-4.5273,-4.5169,-4.5033,-4.4908,-4.4261,-4.3974,-4.4533,-4.4428,-4.4233,-4.4013,-4.4087,-4.4004,-4.3529,-4.3515,-4.3515,-4.3515,-4.3356,-4.3124,-4.2713,-4.2557,-4.2789,-4.348,-4.3515,-4.3515,-4.3515,-4.3515,-4.3515,-4.3515,-4.3515,-4.316,-4.2462,-4.285,-4.3076,-4.6445,-4.6211,-4.543,-4.207,-4.1211,-4.0273,-3.6875,-3.7344,-3.8281,-3.7461,-3.8594,-3.9492,-3.8672,-3.7619,-3.6631,-3.5895,-3.4889,0.0,0.0,-3.3713,-3.3933,-3.5736,-3.83,-3.9961,-3.9961,-3.9219,-3.9722,-4.2145,-4.0662,-4.1048,-4.4331,-4.4392,-4.4739,-4.5556,-4.5594,-4.5594,-4.5594,-4.5594,-4.5594,-4.5586,-4.4943,-4.4637,-4.4585,-4.3871,-4.3532,-4.3515,-4.3515,-4.3677,-4.3974,-4.3647,-4.3693,-4.3937,-4.3631,-4.3515,-4.3515,-4.3515,-4.3515,-4.3515,-4.3515,-4.3515,-4.3515,-4.3515,-4.3515,-4.3515,-4.3515,-4.3515,-4.3563,-4.3912,-4.429,-4.4688,-4.5,-4.5361,-4.5594,-4.5594,-4.5594,-4.5594,-4.5594,-4.5594,-4.5594,-4.5586,-4.5303,-4.5201,-4.5494,-4.5011,-4.4585,-4.4612,-4.4872,-4.4799,-4.4087,-4.4332,-4.4313,-4.3563,-4.3515,-4.3515,-4.3515,-4.3032,-4.2713,-4.2693,-4.216,-4.2327,-4.3426,-4.3515,-4.3515,-4.3515,-4.3515,-4.3515,-4.3515,-4.3515,-4.2903,-4.1853,-4.2442,-4.2587,-4.8086,-4.8008,-4.7344,-4.4453,-4.2851,-4.125,-3.8359,-3.8164,-3.8359,-3.7461,-3.8672,-3.9608,-3.8657,-3.7669,-3.6724,-3.5793,-3.4894,-3.3875,0.0,-3.2529,-3.2654,-3.3343,-3.574,-3.7109,-3.6523,-3.7226,-3.832,-3.9721,-3.9641,-4.0503,-4.2811,-4.3803,-4.4432,-4.4739,-4.5287,-4.5594,-4.5594,-4.5594,-4.5594,-4.5594,-4.539,-4.5159,-4.4919,-4.4663,-4.4428,-4.4227,-4.3943,-4.3896,-4.3952,-4.3647,-4.3563,-4.3644,-4.3529,-4.3515,-4.3515,-4.3515,-4.3515,-4.3515,-4.3515,-4.3515,-4.3515,-4.3515,-4.3515,-4.3515,-4.3515,-4.3515,-4.3495,-4.3647,-4.4125,-4.4637,-4.4751,-4.5191,-4.5594,-4.5594,-4.5594,-4.5594,-4.5594,-4.5594,-4.5594,-4.5594,-4.5523,-4.5457,-4.5577,-4.5419,-4.5263,-4.5263,-4.518,-4.4931,-4.4455,-4.4533,-4.4327,-4.3563,-4.3515,-4.3339,-4.3013,-4.2442,-4.2282,-4.2674,-4.2518,-4.2751,-4.348,-4.3515,-4.3515,-4.3515,-4.3515,-4.3515,-4.3515,-4.3515,-4.2903,-4.181,-4.2,-4.1824,-4.8984,-4.8906,-4.8359,-4.6055,-4.4609,-4.3047,-4.0195,-4.0,-4.0078,-3.8945,-3.9805,-4.0702,-4.0339,-3.9013,-3.7666,-3.6798,-3.5344,-3.3692,0.0,-3.1783,-3.1986,-3.1758,-3.3711,-3.4961,-3.4726,-3.5195,-3.6211,-3.8008,-3.8132,-3.9159,-4.1505,-4.3058,-4.4008,-4.4278,-4.5171,-4.5594,-4.5594,-4.5594,-4.5594,-4.5594,-4.5466,-4.5293,-4.5115,-4.4966,-4.4812,-4.4599,-4.4161,-4.3982,-4.3952,-4.3647,-4.3515,-4.3515,-4.3515,-4.3515,-4.3515,-4.3515,-4.3515,-4.3515,-4.3515,-4.3515,-4.3515,-4.3515,-4.3515,-4.3515,-4.3515,-4.3515,-4.3515,-4.3515,-4.402,-4.4612,-4.4612,-4.5088,-4.5612,-4.5657,-4.5616,-4.5612,-4.5657,-4.5607,-4.5594,-4.5594,-4.5594,-4.5594,-4.5594,-4.5594,-4.5594,-4.5594,-4.5419,-4.5099,-4.4676,-4.4612,-4.4327,-4.3563,-4.3515,-4.3268,-4.2732,-4.2342,-4.2282,-4.2674,-4.2693,-4.2957,-4.3497,-4.3515,-4.3515,-4.3515,-4.3515,-4.3515,-4.3515,-4.3515,-4.3032,-4.2103,-4.1895,-4.1617]},{"header":{"parameterUnit":"m.s-1","parameterCategory":1,"la1":30.6,"la2":29.2853,"lo1":-89.7004,"lo2":-87.6739,"dy":0.0162,"dx":0.0183,"nx":112,"ny":82,"refTime":"2024-05-23T12:00:00:Z","depth":0,"parameterNumber":3,"parameterNumberName":"V-component_of_WINDS"},"data":[0.0,0.0,0.0,0.0,0.0,0.0,0.0,0.0,0.0,0.0,0.0,0.0,0.0,0.0,0.0,0.0,0.0,0.0,0.0,0.0,0.0,0.0,0.0,0.0,0.0,0.0,0.0,0.0,0.0,0.0,0.0,0.0,0.0,0.0,0.0,0.0,0.0,0.0,0.0,0.0,0.0,0.0,0.0,0.0,0.0,0.0,0.0,0.0,0.0,0.0,0.0,0.0,0.0,0.0,0.0,0.0,0.0,0.0,0.0,0.0,0.0,0.0,0.0,0.0,0.0,0.0,0.0,0.0,0.0,0.0,0.0,0.0,0.0,0.0,0.0,0.0,0.0,0.0,0.0,0.0,0.0,0.0,0.0,0.0,0.0,0.0,0.0,0.0,0.0,0.0,-1.1289,-1.21,-1.1208,-1.0535,-1.0427,-0.8122,-0.6073,-0.464,0.0,0.0,0.0,0.0,0.0,0.0,0.0,0.0,0.0,0.0,0.0,0.0,0.0,0.0,0.0,0.0,0.0,0.0,0.0,0.0,0.0,0.0,0.0,0.0,0.0,0.0,0.0,0.0,0.0,0.0,0.0,0.0,0.0,0.0,0.0,0.0,0.0,0.0,0.0,0.0,0.0,0.0,0.0,0.0,0.0,0.0,0.0,0.0,0.0,0.0,0.0,0.0,0.0,0.0,0.0,0.0,0.0,0.0,0.0,0.0,0.0,0.0,0.0,0.0,0.0,0.0,0.0,0.0,0.0,0.0,0.0,0.0,0.0,0.0,0.0,0.0,0.0,0.0,0.0,0.0,0.0,0.0,0.0,0.0,0.0,0.0,0.0,0.0,0.0,0.0,0.0,0.0,0.0,0.0,0.0,0.0,0.0,0.0,0.0,0.0,0.0,0.0,0.0,0.0,-1.1597,-1.316,-1.171,-1.0595,-1.0565,-0.8195,-0.6112,-0.4756,0.0,0.0,0.0,0.0,0.0,0.0,0.0,0.0,0.0,0.0,0.0,0.0,0.0,0.0,0.0,0.0,0.0,0.0,0.0,0.0,0.0,0.0,0.0,0.0,0.0,0.0,0.0,0.0,0.0,0.0,0.0,0.0,0.0,0.0,0.0,0.0,0.0,0.0,0.0,0.0,0.0,0.0,0.0,0.0,0.0,0.0,0.0,0.0,0.0,0.0,0.0,0.0,0.0,0.0,0.0,0.0,0.0,0.0,0.0,0.0,0.0,0.0,0.0,0.0,0.0,0.0,0.0,0.0,0.0,0.0,0.0,0.0,0.0,0.0,0.0,0.0,0.0,0.0,0.0,0.0,0.0,0.0,0.0,0.0,0.0,0.0,0.0,0.0,0.0,0.0,0.0,0.0,0.0,0.0,0.0,0.0,0.0,0.0,0.0,0.0,0.0,0.0,0.0,-1.1082,-1.2024,-1.3453,-1.2361,-1.1252,-1.0649,-0.8791,-0.6947,-0.54,-0.5002,0.0,0.0,0.0,0.0,0.0,0.0,0.0,0.0,0.0,0.0,0.0,0.0,0.0,0.0,0.0,0.0,0.0,0.0,0.0,0.0,0.0,0.0,0.0,0.0,0.0,0.0,0.0,0.0,0.0,0.0,0.0,0.0,0.0,0.0,0.0,0.0,0.0,0.0,0.0,0.0,0.0,0.0,0.0,0.0,0.0,0.0,0.0,0.0,0.0,0.0,0.0,0.0,0.0,0.0,0.0,0.0,0.0,0.0,0.0,0.0,0.0,0.0,0.0,0.0,0.0,0.0,0.0,0.0,0.0,0.0,0.0,0.0,0.0,0.0,0.0,0.0,0.0,0.0,0.0,0.0,0.0,0.0,0.0,0.0,0.0,0.0,0.0,0.0,0.0,0.0,0.0,0.0,0.0,0.0,0.0,0.0,0.0,0.0,0.0,0.0,0.0,0.0,-1.2047,-1.2585,-1.36,-1.2861,-1.1852,-1.0692,-0.9202,-0.7602,-0.5906,-0.546,0.0,0.0,0.0,0.0,0.0,0.0,0.0,0.0,0.0,0.0,0.0,0.0,0.0,0.0,0.0,0.0,0.0,0.0,0.0,0.0,0.0,0.0,0.0,0.0,0.0,0.0,0.0,0.0,0.0,0.0,0.0,0.0,0.0,0.0,0.0,0.0,0.0,0.0,0.0,0.0,0.0,0.0,0.0,0.0,0.0,0.0,0.0,0.0,0.0,0.0,0.0,0.0,0.0,0.0,0.0,0.0,0.0,0.0,0.0,0.0,0.0,0.0,0.0,0.0,0.0,0.0,0.0,0.0,0.0,0.0,0.0,0.0,0.0,0.0,0.0,0.0,0.0,0.0,0.0,0.0,0.0,0.0,0.0,0.0,0.0,0.0,0.0,0.0,0.0,0.0,0.0,0.0,0.0,0.0,0.0,0.0,0.0,0.0,0.0,0.0,0.0,0.0,-1.2425,-1.336,-1.3988,-1.3014,-1.1852,-1.0692,-0.9025,-0.738,-0.5892,-0.5128,0.0,0.0,0.0,0.0,0.0,0.0,0.0,0.0,0.0,0.0,0.0,0.0,0.0,0.0,0.0,0.0,0.0,0.0,0.0,0.0,0.0,0.0,0.0,0.0,0.0,0.0,0.0,0.0,0.0,0.0,0.0,0.0,0.0,0.0,0.0,0.0,0.0,0.0,0.0,0.0,0.0,0.0,0.0,0.0,0.0,0.0,0.0,0.0,0.0,0.0,0.0,0.0,0.0,0.0,0.0,0.0,0.0,0.0,0.0,0.0,0.0,0.0,0.0,0.0,0.0,0.0,0.0,0.0,0.0,0.0,0.0,0.0,0.0,0.0,0.0,0.0,0.0,0.0,0.0,0.0,0.0,0.0,0.0,0.0,0.0,0.0,0.0,0.0,0.0,0.0,0.0,0.0,0.0,0.0,0.0,0.0,0.0,0.0,0.0,0.0,0.0,0.0,-1.2144,-1.3013,-1.3988,-1.3688,-1.2644,-1.0745,-0.9855,-0.8356,-0.5935,0.0,0.0,0.0,0.0,0.0,0.0,0.0,0.0,0.0,0.0,0.0,0.0,0.0,0.0,0.0,0.0,0.0,0.0,0.0,0.0,0.0,0.0,0.0,0.0,0.0,0.0,0.0,0.0,0.0,0.0,0.0,0.0,0.0,0.0,0.0,0.0,0.0,0.0,0.0,0.0,0.0,0.0,0.0,0.0,0.0,0.0,0.0,0.0,0.0,0.0,0.0,0.0,0.0,0.0,0.0,0.0,0.0,0.0,0.0,0.0,0.0,0.0,0.0,0.0,0.0,0.0,0.0,0.0,0.0,0.0,0.0,0.0,0.0,0.0,0.0,0.0,0.0,0.0,0.0,0.0,0.0,0.0,0.0,0.0,0.0,0.0,0.0,0.0,0.0,0.0,0.0,0.0,0.0,0.0,0.0,0.0,0.0,0.0,0.0,0.0,0.0,0.0,-1.1269,-1.2104,-1.2973,-1.3975,-1.4082,-1.3129,-1.0728,-1.0171,-0.8865,-0.6257,0.0,0.0,0.0,0.0,0.0,0.0,0.0,0.0,0.0,0.0,0.0,0.0,0.0,0.0,0.0,0.0,0.0,0.0,0.0,0.0,0.0,0.0,0.0,0.0,0.0,0.0,0.0,0.0,0.0,0.0,0.0,0.0,0.0,0.0,0.0,0.0,0.0,0.0,0.0,0.0,0.0,0.0,0.0,0.0,0.0,0.0,0.0,0.0,0.0,0.0,0.0,0.0,0.0,0.0,0.0,0.0,0.0,0.0,0.0,0.0,0.0,0.0,0.0,0.0,0.0,0.0,0.0,0.0,0.0,0.0,0.0,0.0,0.0,0.0,0.0,0.0,0.0,0.0,0.0,0.0,0.0,0.0,0.0,0.0,0.0,0.0,0.0,0.0,0.0,0.0,0.0,0.0,0.0,0.0,0.0,0.0,0.0,0.0,0.0,0.0,0.0,0.0,-1.1322,-1.2428,-1.344,-1.4028,-1.4082,-1.3096,-1.0627,-0.9858,-0.8704,0.0,0.0,0.0,0.0,0.0,0.0,0.0,0.0,0.0,0.0,0.0,0.0,0.0,0.0,0.0,0.0,0.0,0.0,0.0,0.0,0.0,0.0,0.0,0.0,0.0,0.0,0.0,0.0,0.0,0.0,0.0,0.0,0.0,0.0,0.0,0.0,0.0,0.0,0.0,0.0,0.0,0.0,0.0,0.0,0.0,0.0,0.0,0.0,0.0,0.0,0.0,0.0,0.0,0.0,0.0,0.0,0.0,0.0,0.0,0.0,0.0,0.0,0.0,0.0,0.0,0.0,0.0,0.0,0.0,0.0,0.0,0.0,0.0,0.0,0.0,0.0,0.0,0.0,0.0,0.0,0.0,0.0,0.0,0.0,0.0,0.0,0.0,0.0,0.0,0.0,0.0,0.0,0.0,0.0,0.0,0.0,0.0,0.0,0.0,0.0,0.0,0.0,0.0,-1.1295,-1.2428,-1.344,-1.4028,-1.4082,-1.3403,-1.1596,-1.0419,-0.921,-0.784,0.0,0.0,0.0,0.0,0.0,0.0,0.0,0.0,0.0,0.0,0.0,0.0,0.0,0.0,0.0,0.0,0.0,0.0,0.0,0.0,0.0,0.0,0.0,0.0,0.0,0.0,0.0,0.0,0.0,0.0,0.0,0.0,0.0,0.0,0.0,0.0,0.0,0.0,0.0,0.0,0.0,0.0,0.0,0.0,0.0,0.0,0.0,0.0,0.0,0.0,0.0,0.0,0.0,0.0,0.0,0.0,0.0,0.0,0.0,0.0,0.0,0.0,0.0,0.0,0.0,0.0,0.0,0.0,0.0,0.0,0.0,0.0,0.0,0.0,0.0,0.0,0.0,0.0,0.0,0.0,0.0,0.0,0.0,0.0,0.0,0.0,0.0,0.0,0.0,0.0,0.0,0.0,0.0,0.0,0.0,0.0,0.0,0.0,0.0,0.0,0.0,0.0,-1.1295,-1.2428,-1.344,-1.4028,-1.4082,-1.3529,-1.2106,-1.0708,-0.9579,-0.8758,0.0,0.0,0.0,0.0,0.0,0.0,0.0,0.0,0.0,0.0,0.0,0.0,0.0,0.0,0.0,0.0,0.0,0.0,0.0,0.0,0.0,0.0,0.0,0.0,0.0,0.0,0.0,0.0,0.0,0.0,0.0,0.0,0.0,0.0,0.0,0.0,0.0,0.0,0.0,0.0,0.0,0.0,0.0,0.0,0.0,0.0,0.0,0.0,0.0,0.0,0.0,0.0,0.0,0.0,0.0,0.0,0.0,0.0,0.0,0.0,0.0,0.0,0.0,0.0,0.0,0.0,0.0,0.0,0.0,0.0,0.0,0.0,0.0,0.0,0.0,0.0,0.0,0.0,0.0,0.0,0.0,0.0,0.0,0.0,0.0,0.0,0.0,0.0,0.0,0.0,0.0,0.0,0.0,0.0,0.0,0.0,0.0,0.0,0.0,0.0,0.0,0.0,-1.1343,-1.2428,-1.344,-1.4028,-1.4082,-1.3571,-1.2366,-1.0799,-0.9804,-0.9569,0.0,0.0,0.0,0.0,0.0,0.0,0.0,0.0,0.0,0.0,0.0,0.0,0.0,0.0,0.0,0.0,0.0,0.0,0.0,0.0,0.0,0.0,0.0,0.0,0.0,0.0,0.0,0.0,0.0,0.0,0.0,0.0,0.0,0.0,0.0,0.0,0.0,0.0,0.0,0.0,0.0,0.0,0.0,0.0,0.0,0.0,0.0,0.0,0.0,0.0,0.0,0.0,0.0,0.0,0.0,0.0,0.0,0.0,0.0,0.0,-1.0915,-1.0221,0.0,0.0,0.0,0.0,0.0,0.0,0.0,0.0,0.0,0.0,0.0,0.0,0.0,0.0,0.0,0.0,0.0,0.0,0.0,0.0,0.0,0.0,0.0,0.0,0.0,0.0,0.0,0.0,0.0,0.0,0.0,0.0,0.0,0.0,0.0,0.0,0.0,0.0,0.0,0.0,-1.1282,-1.2428,-1.344,-1.4028,-1.4082,-1.3878,-1.3326,-1.1198,-0.9916,-0.9962,-0.7965,0.0,0.0,0.0,0.0,0.0,0.0,0.0,0.0,0.0,0.0,0.0,0.0,0.0,0.0,0.0,0.0,0.0,0.0,0.0,0.0,0.0,0.0,0.0,0.0,0.0,0.0,0.0,0.0,0.0,0.0,0.0,0.0,0.0,0.0,0.0,0.0,0.0,0.0,0.0,0.0,0.0,0.0,0.0,0.0,0.0,0.0,0.0,0.0,0.0,0.0,0.0,0.0,0.0,0.0,0.0,0.0,0.0,0.0,0.0,-1.2181,-1.1645,0.0,0.0,0.0,0.0,0.0,0.0,0.0,0.0,0.0,0.0,0.0,0.0,0.0,0.0,0.0,0.0,0.0,0.0,0.0,0.0,0.0,0.0,0.0,0.0,0.0,0.0,0.0,0.0,0.0,0.0,0.0,0.0,0.0,0.0,0.0,0.0,0.0,0.0,0.0,0.0,-1.153,-1.2559,-1.344,-1.4028,-1.4082,-1.4028,-1.3868,-1.1958,-1.0897,-1.1127,-0.9127,0.0,0.0,0.0,0.0,0.0,0.0,0.0,0.0,0.0,0.0,0.0,0.0,0.0,0.0,0.0,0.0,0.0,0.0,0.0,0.0,0.0,0.0,0.0,0.0,0.0,0.0,0.0,0.0,0.0,0.0,0.0,0.0,0.0,0.0,0.0,0.0,0.0,0.0,0.0,0.0,0.0,0.0,0.0,0.0,0.0,0.0,0.0,0.0,0.0,0.0,0.0,0.0,0.0,-1.5801,-1.5882,-1.56,-1.4611,-1.4157,-1.4106,-1.3654,-1.3414,-1.32,-1.2121,0.0,0.0,0.0,0.0,0.0,0.0,0.0,0.0,0.0,0.0,0.0,0.0,0.0,0.0,0.0,0.0,0.0,0.0,0.0,0.0,0.0,0.0,-1.2692,-1.2692,-1.3066,-1.3106,-1.1877,0.0,0.0,0.0,0.0,0.0,0.0,0.0,0.0,0.0,0.0,0.0,-1.1873,-1.2732,-1.3494,-1.4028,-1.4082,-1.4082,-1.4082,-1.2625,-1.1814,-1.2151,-1.0232,-0.9008,0.0,0.0,0.0,0.0,0.0,0.0,0.0,0.0,0.0,0.0,0.0,0.0,0.0,0.0,0.0,0.0,0.0,0.0,0.0,0.0,0.0,0.0,0.0,0.0,0.0,0.0,0.0,0.0,0.0,0.0,0.0,0.0,-0.604,-0.8029,0.0,0.0,0.0,0.0,0.0,0.0,0.0,0.0,0.0,0.0,0.0,0.0,0.0,-1.4379,-1.54,-1.6772,-1.7854,-1.869,-1.9586,-1.9398,-1.8228,-1.8037,-1.7361,-1.6299,-1.6219,0.0,-1.3507,-1.3107,0.0,0.0,0.0,0.0,0.0,0.0,0.0,0.0,0.0,0.0,0.0,0.0,0.0,0.0,0.0,0.0,0.0,0.0,0.0,0.0,0.0,0.0,-1.4229,-1.4229,-1.4282,-1.4295,-1.4095,-1.2639,-1.1229,-1.0889,-1.0408,-1.002,0.0,0.0,0.0,0.0,0.0,0.0,-1.2131,-1.2987,-1.368,-1.4055,-1.4082,-1.4082,-1.4082,-1.2625,-1.1651,-1.1621,-1.0231,-0.9367,-0.9237,-0.892,0.0,0.0,0.0,0.0,0.0,0.0,0.0,0.0,0.0,0.0,0.0,0.0,0.0,0.0,0.0,0.0,0.0,0.0,0.0,0.0,0.0,0.0,0.0,0.0,0.0,0.0,0.0,0.0,0.0,-0.5412,-0.6146,-0.7611,-0.8049,-0.8661,0.0,0.0,0.0,0.0,0.0,0.0,0.0,0.0,0.0,-1.4612,-1.4937,-1.5454,-1.6336,-1.8377,-1.9636,-2.006,-2.123,-2.1097,-1.9748,-1.9033,-1.7966,-1.67,-1.67,-1.6192,-1.5297,-1.4522,-1.355,-1.2498,0.0,0.0,0.0,0.0,-1.1965,-1.2079,-1.2869,-1.3053,-1.2919,-1.2879,0.0,0.0,0.0,0.0,0.0,0.0,0.0,-1.2919,-1.3414,-1.4135,-1.4816,-1.4977,-1.5137,-1.5217,-1.5044,-1.4175,-1.3133,-1.2208,-1.1806,-1.1276,-1.0287,-1.015,0.0,0.0,0.0,-1.181,-1.2692,-1.3253,-1.372,-1.4055,-1.4082,-1.4082,-1.4082,-1.2625,-1.1933,-1.2413,-1.09,-1.0061,-1.0256,-0.9971,-0.9447,0.0,0.0,0.0,0.0,0.0,0.0,0.0,0.0,0.0,0.0,0.0,0.0,0.0,0.0,0.0,0.0,0.0,0.0,0.0,0.0,0.0,0.0,0.0,0.0,0.0,0.0,0.0,0.0,-0.5951,-0.673,-0.7828,-0.8618,-0.9425,0.0,0.0,0.0,0.0,0.0,0.0,-1.4496,-1.4669,-1.519,-1.6139,-1.6264,-1.6557,-1.7048,-1.9741,-2.1131,-2.118,-2.2912,-2.2955,-2.1521,-2.021,-1.8835,-1.742,-1.7079,-1.6887,-1.674,-1.5772,-1.4908,-1.4169,-1.3783,-1.3543,-1.3361,-1.3717,-1.3733,-1.3748,-1.4402,-1.4496,-1.4282,-1.4135,-1.38,-1.3427,-1.2746,0.0,0.0,0.0,0.0,-1.3681,-1.4269,-1.4794,-1.515,-1.5444,-1.5671,-1.5765,-1.5551,-1.5284,-1.4754,-1.3481,-1.3065,-1.2489,-1.1129,-1.1076,0.0,-1.1162,-1.1712,-1.2398,-1.3213,-1.3533,-1.38,-1.4068,-1.4082,-1.4082,-1.4082,-1.2883,-1.2393,-1.3174,-1.1676,-1.0889,-1.1082,-1.0787,-1.0104,-0.9058,0.0,0.0,0.0,0.0,0.0,0.0,0.0,0.0,0.0,0.0,0.0,0.0,0.0,0.0,0.0,0.0,0.0,0.0,0.0,0.0,0.0,0.0,0.0,0.0,0.0,0.0,0.0,0.0,0.0,-0.9626,-1.0104,0.0,0.0,0.0,0.0,-1.3961,-1.4579,-1.5124,-1.5712,-1.6273,-1.6727,-1.7125,-1.7635,-1.7889,-1.7929,-2.1055,-2.258,-2.2633,-2.5455,-2.5812,-2.4068,-2.274,-2.1115,-1.9376,-1.8105,-1.7434,-1.7125,-1.6509,-1.5547,-1.4497,-1.4793,-1.4398,-1.3725,-1.4273,-1.4643,-1.4928,-1.4968,-1.4981,-1.5008,-1.5217,-1.4923,-1.4442,-1.4402,-1.3959,0.0,0.0,-1.4215,-1.4589,-1.5177,-1.5351,-1.5444,-1.5738,-1.5771,-1.5784,-1.5758,-1.5578,-1.519,-1.4549,-1.3761,-1.316,-1.3066,0.0,-1.2047,-1.2634,-1.2717,-1.2958,-1.3507,-1.3881,-1.4068,-1.4082,-1.4082,-1.4082,-1.4082,-1.3507,-1.3174,-1.3213,-1.2321,-1.1695,-1.1389,-1.0894,-1.0305,-0.9675,-0.9058,0.0,0.0,0.0,0.0,0.0,0.0,0.0,0.0,0.0,0.0,0.0,0.0,0.0,0.0,0.0,0.0,0.0,0.0,0.0,0.0,0.0,0.0,0.0,0.0,0.0,0.0,0.0,0.0,-1.0932,-1.179,0.0,-1.3256,-1.4364,-1.5052,-1.5204,-1.5925,-1.6589,-1.6941,-1.7341,-1.7702,-1.8009,-1.8223,-1.833,-1.833,-2.1256,-2.2695,-2.2749,-2.5618,-2.6231,-2.4708,-2.3234,-2.1746,-2.024,-1.8573,-1.7796,-1.7675,-1.7275,-1.6634,-1.5905,-1.606,-1.5897,-1.5645,-1.565,-1.5712,-1.5826,-1.5591,-1.5524,-1.5511,-1.5431,-1.5257,-1.5044,-1.4856,-1.479,-1.479,-1.4897,-1.5137,-1.5418,-1.5618,-1.5671,-1.5698,-1.5758,-1.5784,-1.5784,-1.5784,-1.5704,-1.5618,-1.5358,-1.4816,-1.4162,-1.3547,-1.3387,-1.324,-1.3066,-1.32,-1.3467,-1.3881,-1.4015,-1.4082,-1.4082,-1.4082,-1.4015,-1.3814,-1.2822,-1.2436,-1.2919,-1.1686,-1.1083,-1.1402,-1.1049,-1.0506,-0.9729,-0.9285,-0.8474,0.0,0.0,0.0,0.0,0.0,0.0,0.0,0.0,0.0,0.0,0.0,0.0,0.0,0.0,0.0,0.0,0.0,0.0,0.0,0.0,0.0,0.0,0.0,0.0,0.0,-1.0188,-1.1694,-1.2166,-1.3191,-1.4017,-1.4325,-1.553,-1.6353,-1.6517,-1.7114,-1.7582,-1.7876,-1.8183,-1.8437,-1.8637,-1.8731,-1.8784,-1.8784,-2.1163,-2.257,-2.3112,-2.5534,-2.6442,-2.5823,-2.3838,-2.2382,-2.1233,-1.9108,-1.817,-1.8156,-1.7862,-1.7515,-1.7141,-1.6941,-1.686,-1.682,-1.6526,-1.642,-1.638,-1.6086,-1.5979,-1.5925,-1.5645,-1.5538,-1.5511,-1.5311,-1.5391,-1.5538,-1.5538,-1.5685,-1.5784,-1.5784,-1.5784,-1.5784,-1.5784,-1.5784,-1.5784,-1.5784,-1.5784,-1.5784,-1.5784,-1.5444,-1.4923,-1.4292,-1.4322,-1.4215,-1.3734,-1.3773,-1.3933,-1.4082,-1.4082,-1.4082,-1.4082,-1.4082,-1.3961,-1.3626,-1.2668,-1.2246,-1.2612,-1.1446,-1.0909,-1.1255,-1.0995,-1.0519,-0.9729,-0.9205,-0.8564,-0.7799,0.0,0.0,0.0,0.0,0.0,0.0,0.0,0.0,0.0,0.0,0.0,0.0,0.0,0.0,0.0,0.0,0.0,0.0,0.0,0.0,0.0,0.0,0.0,-0.8937,-1.1271,-1.3144,-1.3316,-1.4255,-1.5294,-1.6255,-1.6898,-1.7435,-1.7969,-1.8009,-1.8142,-1.849,-1.8784,-1.8945,-1.8945,-1.9212,-1.943,-1.943,-2.0859,-2.2307,-2.3766,-2.5316,-2.6621,-2.7571,-2.4789,-2.322,-2.2675,-1.9785,-1.8559,-1.8532,-1.8183,-1.7995,-1.7942,-1.7395,-1.7219,-1.7179,-1.6834,-1.6714,-1.666,-1.638,-1.6335,-1.6268,-1.5939,-1.5784,-1.5784,-1.5784,-1.5784,-1.5784,-1.5784,-1.5784,-1.5784,-1.5784,-1.5784,-1.5784,-1.5784,-1.5784,-1.5784,-1.5784,-1.5784,-1.5784,-1.5784,-1.5605,-1.5404,-1.5404,-1.5164,-1.4883,-1.4589,-1.4536,0.0,-1.4135,-1.4095,-1.4082,-1.4082,-1.4082,-1.3961,-1.3613,-1.3093,-1.2663,-1.2305,-1.1744,-1.1289,-1.1009,-1.0747,-1.0318,-0.9742,-0.8871,-0.8415,-0.8415,0.0,0.0,0.0,0.0,0.0,0.0,0.0,0.0,0.0,0.0,0.0,0.0,0.0,0.0,0.0,0.0,0.0,0.0,0.0,0.0,0.0,-0.9981,-1.1584,-1.2191,-1.3902,-1.5296,-1.6015,-1.6548,-1.7016,-1.7489,-1.7903,-1.8183,-1.8357,-1.8557,-1.8661,-1.8798,-1.9078,-1.9239,-1.9239,-1.9319,-1.943,-1.943,-2.0859,-2.1813,-2.2251,-2.4875,-2.6263,-2.6496,-2.572,-2.5269,-2.4982,-2.1837,-2.0419,-2.0279,-1.8906,-1.8237,-1.7955,-1.7622,-1.7514,-1.7474,-1.7192,-1.6887,-1.67,-1.662,-1.6446,-1.6259,-1.6179,-1.6005,-1.5784,-1.5784,-1.5784,-1.5784,-1.5784,-1.5784,-1.5784,-1.5784,-1.5784,-1.5784,-1.5784,-1.5784,-1.5784,-1.5784,-1.5784,-1.5784,-1.5784,-1.5718,-1.5712,-1.5712,-1.5471,-1.5257,-1.5164,-1.479,-1.4496,-1.4416,-1.4215,-1.4082,-1.4082,-1.4082,-1.3881,-1.3373,-1.3173,-1.2772,-1.2074,-1.1637,-1.1289,-1.1009,-1.0747,-1.0412,-1.0007,-0.9311,-0.8898,0.0,0.0,0.0,0.0,0.0,0.0,0.0,0.0,0.0,0.0,0.0,0.0,0.0,0.0,0.0,0.0,0.0,0.0,0.0,0.0,0.0,0.0,-1.0965,-1.265,-1.4841,-1.5862,-1.662,-1.7313,-1.7595,-1.7943,-1.8315,-1.8571,-1.8718,-1.8851,-1.9011,-1.9105,-1.9105,-1.9279,-1.943,-1.943,-1.943,-1.943,-1.943,-2.0256,-2.0973,-2.1643,-2.3989,-2.548,-2.61,-2.61,-2.61,-2.5918,-2.276,-2.1358,-2.116,-1.9388,-1.8571,-1.8315,0.0,0.0,0.0,0.0,-1.7221,-1.7061,-1.6941,-1.6831,-1.667,-1.65,-1.6259,-1.6019,-1.6019,-1.5925,-1.5784,-1.5784,-1.5784,-1.5784,-1.5784,-1.5784,-1.5784,-1.5784,-1.5784,-1.5784,-1.5784,-1.5784,-1.5784,-1.5784,-1.5784,0.0,-1.5784,-1.5685,-1.5538,-1.5418,-1.511,-1.4803,-1.4506,-1.4376,-1.4215,-1.4095,-1.4082,-1.3895,-1.3387,-1.316,0.0,0.0,0.0,-1.1236,-1.0854,-1.0559,0.0,0.0,0.0,0.0,0.0,-0.9659,0.0,0.0,-0.8965,-0.8871,0.0,0.0,0.0,0.0,0.0,0.0,0.0,0.0,0.0,0.0,0.0,0.0,0.0,0.0,0.0,0.0,-1.2014,-1.3457,-1.6727,-1.7259,-1.7393,-1.7609,-1.7943,-1.8288,-1.8878,-1.8958,-1.9078,-1.9403,-1.943,-1.9386,-1.9412,-1.947,0.0,0.0,0.0,-1.9466,-1.9466,-1.9466,-2.0123,-2.1417,-2.2877,-2.4356,-2.5882,-2.6045,-2.6209,-2.6209,-2.3319,-2.2081,-2.1953,-2.0019,-1.9101,-1.8824,-1.8209,-1.7862,-1.7582,-1.7582,-1.7582,-1.7542,-1.734,0.0,0.0,-1.6847,-1.6553,-1.6313,-1.6335,-1.6086,-1.5872,-1.5798,-1.5784,-1.5784,-1.5784,-1.5784,-1.5784,-1.5784,-1.5784,-1.5784,-1.5784,-1.5784,-1.5784,-1.5784,-1.5784,-1.5784,-1.5784,-1.5784,-1.5738,-1.5484,-1.5418,-1.519,-1.4643,-1.4536,-1.4402,-1.4122,-1.4082,0.0,-1.3626,-1.316,-1.273,-1.2318,-1.1708,-1.1196,-1.0707,-1.0408,-1.014,-0.9886,-1.0127,-1.0394,-1.0693,-1.0915,-1.1049,-1.1009,-0.991,-0.9684,0.0,0.0,0.0,0.0,0.0,0.0,0.0,0.0,0.0,0.0,0.0,0.0,0.0,0.0,0.0,-1.1475,-1.2412,-1.3868,-1.6806,-1.7569,-1.7836,-1.7902,-1.8368,-1.8741,-1.8918,-1.9145,-1.9305,-1.9417,-1.943,-1.9466,-1.9706,-1.972,-1.9826,-2.0054,-2.0067,-2.0067,-2.0067,-2.0067,-2.0066,-2.0164,-2.1641,0.0,-2.4267,-2.5535,-2.6771,-2.778,-2.5991,-2.5223,-2.5003,-2.2245,-2.009,-1.8544,-1.8129,-1.7862,-1.7582,-1.7582,-1.7582,-1.7569,-1.7515,-1.7393,-1.7192,-1.7139,-1.6911,-1.658,-1.6388,-1.6233,0.0,-1.5899,-1.5784,-1.5784,-1.5784,-1.5784,-1.5784,-1.5784,-1.5784,-1.5784,-1.5784,-1.5784,-1.5784,-1.5784,-1.5784,-1.5784,-1.5784,-1.5784,-1.5758,-1.5752,-1.5551,-1.5271,-1.4968,-1.4669,-1.4402,-1.4122,-1.4082,-1.3961,-1.3626,-1.3493,-1.3133,-1.2358,-1.1708,-1.1335,-1.1263,-1.1176,-1.1109,-1.1056,-1.1109,-1.1162,-1.1263,-1.1316,-1.1309,-1.1295,-1.0862,-1.0715,0.0,0.0,0.0,0.0,0.0,0.0,0.0,0.0,0.0,0.0,0.0,-0.859,-0.913,0.0,-1.1231,-1.3243,-1.3879,-1.492,-1.7279,-1.7983,-1.8263,-1.8263,-1.8651,-1.8985,-1.9132,-1.9279,-1.9484,-1.9573,-1.9586,-1.9706,-2.0,-2.0013,-2.008,-2.0227,-2.0167,-2.0167,-2.0167,-2.0167,-2.016,-2.0013,-2.1349,-2.2321,-2.2953,-2.5128,-2.6499,-2.7168,-2.6427,-2.61,-2.5899,-2.2814,-2.0908,-1.9695,-1.8645,-1.7983,-1.7582,-1.7582,-1.7582,-1.7582,-1.7582,-1.7488,-1.742,-1.742,-1.7219,-1.6951,-1.6804,-1.6563,-1.6295,-1.6086,-1.5939,-1.5784,-1.5784,-1.5784,-1.5784,-1.5784,-1.5784,-1.5784,-1.5784,-1.5784,-1.5784,-1.5784,-1.5784,-1.5784,-1.5784,-1.5784,-1.5784,-1.5784,-1.5712,-1.5511,-1.5217,-1.4923,-1.4629,-1.4335,-1.4175,-1.4028,-1.3881,-1.3693,-1.328,-1.261,-1.2104,-1.1797,-1.165,-1.1503,-1.1389,-1.1389,-1.157,-1.165,-1.165,-1.1797,-1.1864,-1.1864,-1.1717,-1.157,0.0,0.0,0.0,0.0,0.0,0.0,0.0,-0.6363,-0.6972,-0.8573,-0.9139,-0.9922,-1.1721,-1.2193,-1.2965,-1.4901,-1.5298,-1.5936,-1.7754,-1.8357,-1.8571,-1.8571,-1.8838,-1.9105,-1.9345,-1.943,-1.9492,-1.9773,-1.98,-1.9947,-2.0294,-2.0321,-2.0347,-2.0401,-2.034,-2.034,-2.034,-2.034,-2.0374,-2.0321,-2.1282,-2.1877,-2.2154,-2.4648,-2.5879,-2.6208,-2.6409,-2.6372,-2.5882,-2.3151,-2.1673,-2.0952,-1.925,-1.821,-1.7662,-1.7609,-1.7582,-1.7582,-1.7582,-1.7582,-1.7582,-1.7582,-1.7474,-1.7273,-1.7219,-1.6871,-1.6469,-1.6348,-1.6099,-1.5899,-1.5798,-1.5784,-1.5784,-1.5784,-1.5784,-1.5784,-1.5784,-1.5784,-1.5784,-1.5784,-1.5784,-1.5784,-1.5784,-1.5784,-1.5784,-1.5784,-1.5784,-1.5678,-1.5431,-1.5196,-1.4843,-1.4549,-1.4255,-1.4082,-1.4082,-1.3773,-1.344,-1.2985,-1.2639,-1.2345,-1.2087,-1.181,-1.165,-1.1562,-1.1824,-1.1993,-1.1993,-1.2184,-1.2305,-1.2305,-1.2305,-1.2171,-0.5899,-0.5919,-0.604,-0.6478,-0.6498,-0.6661,0.0,-0.7509,-0.7822,-0.965,-1.0164,-1.0726,-1.2232,-1.2741,-1.3414,-1.4931,-1.5541,-1.635,-1.7807,-1.8475,-1.8878,-1.8878,-1.9132,-1.939,-1.9417,-1.943,-1.9492,-1.9773,-1.98,-2.004,-2.0601,-2.0628,-2.0748,-2.1002,-2.1015,-2.1015,-2.1015,-2.1015,-2.0882,-2.0628,-2.0773,-2.139,-2.2468,-2.385,-2.5223,-2.6513,-2.7555,-2.733,-2.5991,-2.4267,-2.2609,-2.1037,-1.9485,-1.8517,-1.7902,-1.7689,-1.7582,-1.7582,-1.7582,-1.7582,-1.7582,-1.7582,-1.7555,-1.7488,-1.7286,-1.7152,-1.6991,-1.6469,-1.6246,-1.6166,-1.5899,-1.5784,-1.5784,-1.5784,-1.5784,-1.5784,-1.5784,-1.5784,-1.5784,-1.5784,-1.5784,-1.5784,-1.5784,-1.5784,-1.5784,-1.5784,-1.5784,-1.5678,-1.5431,-1.5196,-1.4843,-1.4549,-1.4255,-1.4082,-1.4082,-1.3773,-1.3573,-1.3507,-1.3227,-1.2973,-1.2703,-1.265,-1.2516,-1.2211,-1.2238,-1.2251,-1.2251,-1.2291,-1.2305,-1.2305,-1.2305,-1.2278,-0.6566,-0.6633,-0.668,-0.6869,-0.7109,-0.7346,-0.7699,-0.7773,-0.8215,-0.988,-1.0997,-1.214,-1.3704,-1.478,-1.5768,-1.6696,-1.6223,-1.6423,-1.8282,-1.7815,-1.7692,-1.8791,-1.9038,-1.9185,-1.9403,-1.9519,-1.9733,-2.0027,-2.0214,-2.0494,-2.0909,-2.0922,-2.0989,-2.1109,-2.1109,-2.1109,-2.1109,-2.1109,-2.1042,-2.0922,-2.0762,-2.0971,-2.1493,-2.2705,-2.4466,-2.6585,-2.7755,-2.7438,-2.5991,-2.4433,-2.2847,-2.1249,-1.9539,-1.8771,-1.8448,-1.7969,-1.7742,-1.7582,-1.7582,-1.7582,-1.7582,-1.7582,-1.7582,-1.7555,-1.7487,-1.734,-1.7112,-1.6647,-1.6406,-1.6206,-1.5912,-1.5784,-1.5784,-1.5784,-1.5784,-1.5784,-1.5784,-1.5784,-1.5784,-1.5784,-1.5784,-1.5784,-1.5784,-1.5784,-1.5784,-1.5784,-1.5784,-1.5744,-1.5658,-1.5391,-1.503,-1.4576,-1.4255,-1.4082,-1.4082,-1.3975,-1.3828,-1.3613,-1.3493,-1.332,-1.3026,-1.3013,-1.2959,-1.2839,-1.3463,-1.3365,-1.2596,-1.3219,-1.3098,-1.2305,-1.2305,-1.2305,-0.697,-0.7098,-0.7173,-0.7213,-0.7543,-0.7794,-0.7733,-0.7916,-0.8478,-0.9936,-1.1569,-1.3205,-1.4792,-1.6316,-1.7435,-1.7902,-1.677,-1.6525,-1.8625,-1.7001,-1.6431,-1.8665,-1.8499,-1.8451,-1.9212,-1.9506,-1.9826,-2.014,-2.0428,-2.0722,-2.1096,-2.1109,-2.1109,-2.1109,-2.1109,-2.1109,-2.1109,-2.1109,-2.1109,-2.1109,-2.0895,-2.0802,-2.0837,-2.1953,-2.3742,-2.5951,-2.6738,-2.6445,-2.5371,-2.3822,-2.2533,-2.1457,-1.9733,-1.8998,-1.8865,-1.8357,-1.7969,-1.7702,-1.7609,-1.7582,-1.7582,-1.7582,-1.7582,-1.7582,-1.7582,-1.7435,-1.7259,-1.6914,-1.662,-1.6326,-1.6032,-1.5885,-1.5784,-1.5784,-1.5784,-1.5784,-1.5784,-1.5784,-1.5784,-1.5784,-1.5784,-1.5784,-1.5784,-1.5784,-1.5784,-1.5784,-1.5784,-1.5784,-1.5784,-1.5511,-1.5084,-1.4576,-1.4255,-1.4082,-1.4082,-1.4082,-1.4001,-1.3733,-1.372,-1.36,-1.3307,-1.3599,-1.3756,-1.362,-1.4686,-1.4743,-1.3796,-1.429,-1.3983,-1.2981,-1.2695,-1.2559,-0.7007,-0.7143,-0.74,-0.755,-0.7699,-0.7848,-0.7941,-0.8147,-0.8714,-1.0121,-1.1794,-1.3446,-1.4943,-1.6533,-1.7675,-1.7942,-1.6931,-1.6742,-1.8651,-1.6344,-1.5539,-1.8577,-1.7391,-1.7048,-1.8735,-1.9199,-1.9613,-2.0187,-2.0241,-2.0494,-2.1082,-2.1109,-2.1109,-2.1109,-2.1109,-2.1109,-2.1109,-2.1109,-2.1109,-2.1109,-2.1096,-2.1096,-2.1145,-2.2054,-2.3173,-2.435,-2.4043,-2.3933,-2.3766,-2.2251,-2.1643,-2.1472,-1.9968,-1.9185,-1.8891,-1.8584,-1.829,-1.7942,-1.7689,-1.7582,-1.7582,-1.7582,-1.7582,-1.7582,-1.7582,-1.7569,-1.7515,-1.7273,-1.6914,-1.662,-1.6339,-1.6046,-1.5784,-1.5784,-1.5784,-1.5784,-1.5784,-1.5784,-1.5784,-1.5784,-1.5784,-1.5784,-1.5784,-1.5784,-1.5784,-1.5784,-1.5784,-1.5784,-1.5784,-1.5337,-1.4856,-1.4549,-1.4255,-1.4082,-1.4082,-1.4082,-1.4082,-1.4082,-1.4068,-1.3935,-1.36,-1.4655,-1.5093,-1.4763,-1.5809,-1.6325,-1.6287,-1.5273,-1.4772,-1.4694,-1.3671,-1.3186,-0.7319,-0.7448,-0.7584,-0.7828,-0.8004,-0.8153,-0.8303,-0.8377,-0.8567,-0.902,-1.0396,-1.1879,-1.3225,-1.4844,-1.6438,-1.7794,-1.6931,-1.6464,-1.7481,-1.6576,-1.6115,-1.6928,-1.761,-1.8212,-1.8582,-1.9078,-1.9613,-2.0187,-2.0414,-2.0695,-2.1082,-2.1109,-2.1109,-2.1109,-2.1109,-2.1109,-2.1109,-2.1109,-2.1109,-2.1109,-2.1109,-2.1109,-2.1159,-2.227,-2.2977,-2.3422,-2.3933,-2.3561,-2.2574,-2.1904,-2.1031,-2.0083,-1.9591,-1.9305,-1.9185,-1.8891,-1.8597,-1.8263,-1.7756,-1.7582,-1.7582,-1.7582,-1.7582,-1.7582,-1.7582,-1.7582,-1.7515,-1.7286,-1.6941,-1.6633,-1.6353,-1.6046,-1.5784,-1.5784,-1.5784,-1.5784,-1.5784,-1.5784,-1.5784,-1.5784,-1.5784,-1.5784,-1.5784,-1.5784,-1.5784,-1.5784,-1.5784,-1.5784,-1.5784,-1.5484,-1.5217,-1.511,-1.4669,-1.4376,-1.4376,-1.4202,-1.4082,-1.4082,-1.4082,-1.4041,-1.3948,-1.4296,-1.4764,-1.5367,-1.6437,-1.6917,-1.6746,-1.6358,-1.5701,-1.4763,-1.3699,-1.3213,-0.7651,-0.7753,-0.7828,-0.8126,-0.8269,-0.8357,-0.8397,-0.8445,-0.8452,-0.8343,-0.9535,-1.0852,-1.1661,-1.3529,-1.5442,-1.6902,-1.6454,-1.6357,-1.7526,-1.6576,-1.6115,-1.6984,-1.7102,-1.7522,-1.8539,-1.8459,-1.8881,-2.0113,-2.0414,-2.0695,-2.1082,-2.1109,-2.1109,-2.1109,-2.1109,-2.1109,-2.1109,-2.1109,-2.1109,-2.1109,-2.1109,-2.1109,-2.1096,-2.1782,-2.2119,-2.2151,-2.2555,-2.2137,-2.119,-2.0931,-2.0256,-1.943,-1.943,-1.943,-1.939,-1.9038,-1.8811,-1.8557,-1.7956,-1.7675,-1.7582,-1.7582,-1.7582,-1.7582,-1.7582,-1.7582,-1.7542,-1.7407,-1.7139,-1.6794,-1.65,-1.6206,-1.5965,-1.5811,-1.5784,-1.5784,-1.5784,-1.5784,-1.5784,-1.5784,-1.5784,-1.5784,-1.5784,-1.5784,-1.5784,-1.5784,-1.5784,-1.5784,-1.5784,-1.5578,-1.5391,-1.5391,-1.4963,-1.4683,-1.4683,-1.4416,-1.4242,-1.4242,-1.4148,-1.4082,-1.4082,-1.4447,-1.5186,-1.6232,-1.7334,-1.802,-1.8231,-1.7839,-1.6973,-1.5661,-1.4565,-1.3871,-0.7914,-0.8002,-0.8083,-0.8425,-0.8486,-0.8452,-0.8374,-0.8384,-0.8391,-0.8049,-0.9187,-1.0289,0.0,-1.2581,-1.4645,-1.5417,-1.5677,-1.6508,-1.8499,-1.631,-1.5561,-1.8337,-1.5875,-1.5205,-1.8337,-1.7322,-1.7418,-1.9884,-2.018,-2.0494,-2.1082,-2.1109,-2.1109,-2.1109,-2.1109,-2.1109,-2.1109,-2.1109,-2.1109,-2.1109,-2.1109,-2.1109,-2.1096,-2.0828,-2.0695,-2.0668,-2.008,-1.9826,-1.98,-1.9492,-1.943,-1.943,-1.943,-1.943,-1.9332,-1.9052,-1.8931,-1.8838,-1.8235,-1.7876,-1.7609,-1.7582,-1.7582,-1.7582,-1.7582,-1.7582,-1.7582,-1.7582,-1.742,-1.7139,-1.6807,-1.65,-1.6206,-1.5912,-1.5798,-1.5784,-1.5784,-1.5784,-1.5784,-1.5784,-1.5784,-1.5784,-1.5784,-1.5784,-1.5784,-1.5784,-1.5784,-1.5784,-1.5784,-1.5591,-1.5418,-1.5418,-1.5164,-1.5035,-1.5035,-1.4696,-1.4522,-1.4522,-1.4242,-1.4082,-1.4082,-1.5103,-1.615,-1.7293,-1.8359,-1.9471,-2.0605,-1.9529,-1.8399,-1.7253,-1.6191,-1.5144,-0.7941,-0.8201,-0.8411,-0.8608,-0.8567,-0.8506,-0.8581,-0.8459,-0.8269,-0.8029,-0.8273,-0.8672,-0.9448,-1.1364,-1.3275,-1.4757,-1.6348,-1.7347,-1.7143,-1.6692,-1.6087,-1.5492,-1.4911,-1.4798,-1.5461,-1.5463,-1.6313,-1.8443,-1.9601,-2.0494,-2.1082,-2.1109,-2.1109,-2.1109,-2.1109,-2.1109,-2.1109,-2.1109,-2.1109,-2.1109,-2.1109,-2.1109,-2.1109,-2.1029,-2.1002,-2.0962,-2.0374,-2.012,-2.008,-1.9573,-1.943,-1.943,-1.943,-1.943,-1.9417,-1.9279,-1.9118,-1.8905,-1.8701,-1.8302,-1.7889,-1.7662,-1.7582,-1.7582,-1.7582,-1.7582,-1.7582,-1.7582,-1.742,-1.7179,-1.7112,-1.671,-1.6308,-1.6179,-1.5992,-1.5784,-1.5784,-1.5784,-1.5784,-1.5784,-1.5784,-1.5784,-1.5784,-1.5784,-1.5784,-1.5784,-1.5784,-1.5784,-1.5784,-1.5718,-1.5712,-1.5712,-1.5458,-1.5284,-1.5284,-1.4816,-1.4522,-1.4522,-1.4242,-1.4082,-1.4082,-1.4377,-1.5394,-1.7253,-1.7577,-1.8678,-2.0605,-1.9529,-1.8399,-1.7253,-1.6191,-1.5144,-0.8204,-0.8452,-0.8621,-0.8771,-0.8696,-0.8554,-0.8445,-0.8289,-0.8065,-0.7671,-0.753,-0.7646,-0.8237,-1.0232,-1.2215,-1.3528,0.0,0.0,-1.7435,-1.7193,-1.6724,0.0,-1.4549,-1.4095,-1.4589,-1.4242,-1.516,-1.7913,-1.8815,-1.9797,-2.1019,-2.1109,-2.1109,-2.1109,-2.1109,-2.1109,-2.1109,-2.1109,-2.1109,-2.1109,-2.1109,-2.1109,-2.1109,-2.1109,-2.1109,-2.1082,-2.0494,-2.0167,-2.0187,-1.9599,-1.943,-1.943,-1.943,-1.943,-1.943,-1.943,-1.9265,-1.9078,-1.8824,-1.8517,-1.8196,-1.7889,-1.7689,-1.7582,-1.7582,-1.7582,-1.7582,-1.7582,-1.7514,-1.7367,-1.7233,-1.6951,-1.6643,-1.6388,-1.6152,-1.5992,-1.5811,-1.5784,-1.5784,-1.5784,-1.5784,-1.5784,-1.5784,-1.5784,-1.5784,-1.5784,-1.5784,-1.5784,-1.5784,-1.5784,-1.5784,-1.5784,-1.5685,-1.5591,-1.5591,-1.5164,-1.4843,-1.4723,-1.4442,-1.4215,-1.4095,-1.4082,-1.4894,-1.656,-1.6601,-1.7698,-1.9883,-1.8798,-1.794,-1.7253,-1.6191,-1.5144,-0.8601,-0.8723,-0.8771,-0.8824,-0.8791,-0.8567,-0.8089,-0.7961,-0.7773,-0.7213,-0.7085,-0.7065,-0.7045,-0.9332,-1.1483,-1.2257,0.0,-1.7437,-1.8108,-1.7252,-1.6534,-1.6567,-1.4094,-1.2926,-1.4235,-1.3204,-1.3915,-1.753,-1.7794,-1.8782,-2.0969,-2.1109,-2.1109,-2.1109,-2.1109,-2.1109,-2.1109,-2.1109,-2.1109,-2.1109,-2.1109,-2.1109,-2.1109,-2.1109,-2.1109,-2.1082,-2.0494,-2.0167,-2.0187,-1.9599,-1.943,-1.943,-1.943,-1.943,-1.943,-1.943,-1.943,-1.935,-1.8784,-1.8557,-1.8437,-1.8103,-1.7809,-1.7582,-1.7582,-1.7582,-1.7582,-1.7582,-1.7582,-1.7528,-1.7326,-1.7233,-1.7058,-1.6509,-1.6348,-1.6192,-1.5885,-1.5784,-1.5784,-1.5784,-1.5784,-1.5784,-1.5784,-1.5784,-1.5784,-1.5784,-1.5784,-1.5784,-1.5784,-1.5784,-1.5784,-1.5784,-1.5784,-1.5784,-1.5784,-1.5565,-1.5271,-1.5022,-1.4683,-1.4389,-1.4095,-1.4082,-1.4615,-1.5696,-1.5696,-1.6723,-1.8758,-1.7779,-1.7212,-1.705,-1.615,-1.5144,-0.8689,-0.8804,-0.8817,-0.8777,-0.8635,-0.8438,-0.8062,-0.7848,0.0,-0.7173,-0.7004,-0.6883,-0.6803,-0.9033,-1.1144,-1.2026,-1.3804,-1.5379,-1.6402,-1.4521,-1.3105,0.0,-1.1854,-1.0963,-1.1278,-1.1149,-1.253,-1.6046,-1.6314,-1.7686,-2.0906,-2.1109,-2.1109,-2.1109,-2.1109,-2.1109,-2.1109,-2.1109,-2.1109,-2.1109,-2.1109,-2.1109,-2.1109,-2.1109,-2.1109,-2.1082,-2.0494,-2.0167,-2.0187,-1.9599,-1.943,-1.943,-1.943,-1.943,-1.943,-1.943,-1.943,-1.9417,-1.931,-1.8891,-1.8397,-1.7849,-1.7622,-1.7582,-1.7582,-1.7582,-1.7582,-1.7582,-1.7582,-1.7569,-1.7515,-1.738,-1.7112,-1.6714,-1.6446,-1.6192,-1.5885,-1.5784,-1.5784,-1.5784,-1.5784,-1.5784,-1.5784,-1.5784,-1.5784,-1.5784,-1.5784,-1.5784,-1.5784,-1.5784,-1.5784,-1.5784,-1.5784,-1.5784,-1.5784,-1.5565,-1.5271,-1.5022,-1.4683,-1.4389,-1.4095,-1.4082,-1.4615,-1.5696,-1.5696,-1.6314,-1.7577,-1.7415,-1.6846,-1.5985,-1.5779,-1.5144,-0.8784,-0.8824,-0.8844,-0.875,-0.8594,-0.8343,-0.7814,0.0,0.0,0.0,-0.6627,-0.6559,-0.6485,-0.8793,0.0,-1.1671,-1.3219,-1.4659,-1.5724,-1.3673,-1.2209,-1.2527,-1.1384,-1.0609,-1.0609,-1.0677,-1.1762,-1.4362,-1.5394,-1.7409,-2.0919,-2.1109,-2.1109,-2.1109,-2.1109,-2.1109,-2.1109,-2.1109,-2.1109,-2.1109,-2.1109,-2.1109,-2.1109,-2.1109,-2.1109,-2.1082,-2.0494,-2.0167,-2.0187,-1.9599,-1.943,-1.943,-1.943,-1.943,-1.943,-1.943,-1.943,-1.9403,-1.9185,-1.8851,-1.8424,-1.7969,-1.7716,-1.7582,-1.7582,-1.7582,-1.7582,-1.7582,-1.7582,-1.7582,-1.7582,-1.7475,-1.7353,-1.7007,-1.6593,-1.6192,-1.5885,-1.5784,-1.5784,-1.5784,-1.5784,-1.5784,-1.5784,-1.5784,-1.5784,-1.5784,-1.5784,-1.5784,-1.5784,-1.5784,-1.5784,-1.5784,-1.5784,-1.5784,-1.5784,-1.5698,-1.5498,-1.5204,-1.491,-1.4616,-1.4322,-1.4162,-1.4334,-1.4852,-1.4852,-1.5379,-1.6478,-1.5918,-1.567,-1.5696,-1.5144,-1.4573,-0.8825,-0.8858,-0.8838,-0.871,-0.8574,-0.8289,-0.7589,-0.7251,0.0,-0.6463,-0.632,-0.6306,-0.634,-0.8394,-1.0322,0.0,-1.2213,-1.3429,-1.4493,-1.2842,-1.1654,0.0,-1.1286,0.0,-1.0717,-1.0717,-1.1439,-1.3193,-1.5265,-1.7795,-2.0906,-2.1109,-2.1109,-2.1109,-2.1109,-2.1109,-2.1109,-2.1109,-2.1109,-2.1109,-2.1109,-2.1109,-2.1109,-2.1109,-2.1109,-2.1082,-2.0494,-2.0167,-2.0187,-1.9599,-1.943,-1.943,-1.943,-1.943,-1.943,-1.943,-1.943,-1.9332,-1.9105,-1.8784,-1.845,-1.8223,-1.7889,-1.7582,-1.7582,-1.7582,-1.7582,-1.7582,-1.7582,-1.7582,-1.7582,-1.7582,-1.7488,-1.7192,-1.671,-1.6192,-1.5885,-1.5784,-1.5784,-1.5784,-1.5784,-1.5784,-1.5784,-1.5784,-1.5784,-1.5784,-1.5784,-1.5784,-1.5784,-1.5784,-1.5784,-1.5784,-1.5784,-1.5784,-1.5784,-1.5784,-1.5712,-1.5418,-1.5177,-1.4923,-1.4629,-1.4335,-1.4175,-1.4175,-1.4122,-1.4489,-1.5379,-1.4489,-1.4531,-1.5338,-1.4489,-1.4082,-0.8723,-0.8832,-0.8811,-0.8574,-0.8492,-0.8289,-0.7589,0.0,-0.6964,-0.6546,-0.6388,-0.634,-0.647,-0.7557,-0.8705,-0.9527,-0.971,-1.0097,-1.1212,-1.0486,-0.9901,-1.0218,0.0,0.0,-1.0717,-1.0717,-1.1439,-1.3193,-1.6366,-1.9088,-2.0982,-2.1109,-2.1109,-2.1109,-2.1109,-2.1109,-2.1109,-2.1109,-2.1109,-2.1109,-2.1109,-2.1109,-2.1109,-2.1109,-2.1109,-2.1082,-2.0494,-2.0167,-2.0187,-1.9599,-1.943,-1.943,-1.943,-1.943,-1.943,-1.943,-1.943,-1.9417,-1.9332,-1.8958,-1.849,-1.8464,-1.8063,-1.7582,-1.7582,-1.7582,-1.7582,-1.7582,-1.7582,-1.7582,-1.7582,-1.7582,-1.7435,-1.6887,-1.65,-1.6192,-1.5885,-1.5784,-1.5784,-1.5784,-1.5784,-1.5784,-1.5784,-1.5784,-1.5784,-1.5784,-1.5784,-1.5784,-1.5784,-1.5784,-1.5784,-1.5784,-1.5784,-1.5784,-1.5784,-1.5784,-1.5712,-1.5418,-1.5378,-1.5231,-1.4981,-1.4643,-1.4482,-1.4482,-1.4215,-1.4124,-1.425,-1.4124,-1.4166,-1.425,-1.4124,-1.4082,-0.8662,-0.8825,-0.8811,-0.856,-0.8479,-0.8262,-0.7421,-0.7071,-0.6885,-0.6477,-0.6227,-0.6166,-0.6354,-0.7399,-0.8429,-0.9034,-0.9017,-0.93,-1.034,-0.9541,-0.9076,-0.9822,-1.0092,-1.0361,-1.069,-1.0717,-1.1439,-1.3193,-1.4623,-1.656,-1.9419,-2.0526,-2.1109,-2.1109,-2.1109,-2.1109,-2.1109,-2.1109,-2.1109,-2.1109,-2.1109,-2.1109,-2.1109,-2.1109,-2.1109,-2.1082,-2.0494,-2.0167,-2.0187,-1.9599,-1.943,-1.943,-1.943,-1.943,-1.943,-1.943,-1.943,-1.943,-1.943,-1.8985,-1.849,-1.849,-1.8076,-1.7582,-1.7582,-1.7582,-1.7582,-1.7582,-1.7582,-1.7582,-1.7582,-1.7582,-1.7435,-1.6847,-1.662,-1.6406,-1.5925,-1.5784,-1.5784,-1.5784,-1.5784,-1.5784,-1.5784,-1.5784,-1.5784,-1.5784,-1.5784,-1.5784,-1.5784,-1.5784,-1.5784,-1.5784,-1.5784,-1.5784,-1.5784,-1.5784,-1.5731,-1.5658,-1.5498,-1.5351,-1.5231,-1.4937,-1.4696,-1.4479,-1.4402,-1.4255,-1.4082,-1.3379,-1.3027,-1.3027,-1.3027,-1.3114,-0.8499,-0.8689,-0.8743,-0.8486,-0.8384,-0.814,-0.728,-0.6991,-0.6803,-0.6395,-0.6173,-0.6132,-0.6279,-0.704,-0.778,-0.8171,-0.8233,-0.8532,-0.9379,-0.8889,-0.8689,-0.9469,-0.9714,-1.0017,-1.048,-1.0643,-1.124,-1.2413,-1.2997,-1.4623,-1.7602,-1.9355,-2.0589,-2.1109,-2.1109,-2.1109,-2.1109,-2.1109,-2.1109,-2.1109,-2.1109,-2.1109,-2.1109,-2.1109,-2.1069,-2.0949,-2.0454,-2.0127,-2.0067,-1.9573,-1.943,-1.943,-1.943,-1.943,-1.943,-1.943,-1.943,-1.9417,-1.9265,-1.8905,-1.8477,-1.8384,-1.8009,-1.7582,-1.7582,-1.7582,-1.7582,-1.7582,-1.7582,-1.7582,-1.7582,-1.7582,-1.7435,-1.6847,-1.67,-1.654,-1.5904,-1.5784,-1.5784,-1.5784,-1.5784,-1.5784,-1.5784,-1.5784,-1.5784,-1.5784,-1.5784,-1.5784,-1.5784,-1.5784,-1.5784,-1.5784,-1.5784,-1.5784,-1.5784,-1.5784,-1.5784,-1.5784,-1.5631,-1.5524,-1.5524,-1.5244,-1.499,-1.4776,-1.4603,-1.4416,-1.4215,-1.2979,-1.2396,-1.2353,-1.2088,-1.2081,-0.8194,-0.8377,-0.8452,-0.8361,-0.816,-0.784,-0.7233,-0.6991,-0.6803,-0.6395,-0.63,-0.63,-0.63,-0.63,-0.6402,-0.6695,-0.6946,-0.7299,-0.7753,-0.833,-0.8764,0.0,-0.934,-0.9734,-0.9963,-1.046,-1.0717,-1.0717,-1.2347,-1.4101,-1.5848,-1.7602,-1.9355,-2.1046,-2.1109,-2.1109,-2.1109,-2.1109,-2.1109,-2.1109,-2.1109,-2.1109,-2.1109,-2.1109,-2.0949,-2.0668,-2.0361,-2.0067,-1.9786,-1.9492,-1.943,-1.943,-1.943,-1.943,-1.943,-1.943,-1.943,-1.9332,-1.9025,-1.8731,-1.8437,-1.8089,-1.7836,-1.7582,-1.7582,-1.7582,-1.7582,-1.7582,-1.7582,-1.7582,-1.7582,-1.7582,-1.7435,-1.6847,-1.67,-1.654,-1.5904,-1.5784,-1.5784,-1.5784,-1.5784,-1.5784,-1.5784,-1.5784,-1.5784,-1.5784,-1.5784,-1.5784,-1.5784,-1.5784,-1.5784,-1.5784,-1.5784,-1.5784,-1.5784,-1.5784,-1.5784,-1.5784,-1.5784,-1.5784,-1.5784,-1.5551,-1.5391,-1.5391,-1.4816,-1.4522,-1.4466,-1.3217,-1.2589,-1.2545,-1.157,-1.1125,-0.7787,-0.7991,-0.8092,-0.7746,-0.7699,-0.7584,-0.698,-0.6842,-0.6803,-0.6395,-0.63,-0.63,-0.63,-0.63,-0.6429,-0.679,-0.6889,-0.7139,-0.7733,0.0,0.0,-0.9178,-0.991,-1.0405,-1.05,-1.0636,-1.0717,-1.0717,-1.124,-1.2281,-1.4036,-1.5784,-1.8052,-2.0982,-2.1109,-2.1109,-2.1109,-2.1109,-2.1109,-2.1109,-2.1109,-2.1109,-2.1109,-2.1109,-2.0949,-2.0655,-2.0361,-2.0067,-1.9773,-1.9492,-1.943,-1.943,-1.943,-1.943,-1.943,-1.943,-1.9239,-1.9052,-1.8958,-1.8542,-1.8115,-1.8022,-1.7836,-1.7582,-1.7582,-1.7582,-1.7582,-1.7582,-1.7582,-1.7582,-1.7582,-1.7582,-1.7435,-1.6847,-1.67,-1.654,-1.5904,-1.5784,-1.5784,-1.5784,-1.5784,-1.5784,-1.5784,-1.5784,-1.5784,-1.5784,-1.5784,-1.5784,-1.5784,-1.5784,-1.5784,-1.5784,-1.5784,-1.5784,-1.5784,-1.5784,-1.5784,-1.5784,-1.5784,-1.5784,-1.5784,-1.5738,-1.5605,-1.5404,-1.5217,-1.4553,-1.3485,-1.2316,-1.1217,-1.036,-1.0239,-1.0604,0.0,-0.7516,-0.7584,-0.7353,-0.7319,-0.7231,-0.6797,-0.6729,-0.6661,-0.6368,-0.63,-0.63,-0.63,-0.63,-0.6429,-0.6776,-0.6896,-0.7132,-0.7665,0.0,0.0,-0.93,-0.9971,-1.0426,-1.0541,-1.0656,-1.0717,-1.0717,-1.0717,-1.1439,-1.3193,-1.4939,-1.7216,-2.0005,-2.0779,-2.1109,-2.1109,-2.1109,-2.1109,-2.1109,-2.1109,-2.1056,-2.0949,-2.0949,-2.0722,-2.0334,-2.0147,-1.9907,0.0,-1.9439,-1.943,-1.943,-1.943,-1.943,-1.943,-1.943,-1.9185,-1.8905,-1.8798,-1.845,-1.7969,-1.7862,-1.7742,-1.7582,-1.7582,-1.7582,-1.7582,-1.7582,-1.7582,-1.7582,-1.7582,-1.7582,-1.7462,-1.6981,-1.678,-1.658,-1.6099,-1.5912,-1.5784,-1.5784,-1.5784,-1.5784,-1.5784,-1.5784,-1.5784,-1.5784,-1.5784,-1.5784,-1.5784,-1.5784,-1.5784,-1.5784,-1.5784,-1.5784,-1.5784,-1.5784,-1.5784,-1.5784,-1.5784,-1.5784,-1.5784,-1.5784,-1.5738,-1.5565,-1.5444,-1.4641,-1.3158,-1.1451,-1.0003,-0.8798,-0.9003,-0.9486,0.0,-0.7024,-0.7045,-0.7038,-0.6943,-0.6851,-0.6688,-0.6552,0.0,-0.63,-0.6272,-0.6286,-0.6313,-0.6313,-0.6416,-0.6695,-0.698,-0.722,-0.757,-0.814,-0.875,-0.9354,-0.9686,-0.9985,-1.027,-1.0555,-1.0717,-1.0717,-1.0717,-1.1439,-1.3193,-1.4939,-1.6689,-1.8436,-2.0195,-2.1109,-2.1109,-2.1109,-2.1096,-2.1082,-2.1082,-2.0922,-2.0641,-2.0641,-2.0334,-1.98,-1.98,-1.9639,-1.943,-1.943,-1.943,-1.943,-1.943,-1.943,-1.9417,-1.9345,-1.9145,-1.8851,-1.8557,-1.8263,-1.7916,-1.7675,-1.7582,-1.7582,-1.7582,-1.7582,-1.7582,-1.7582,-1.7582,-1.7582,-1.7582,-1.7582,-1.7515,-1.7273,-1.6927,-1.662,-1.6388,-1.6046,-1.5784,-1.5784,-1.5784,-1.5784,-1.5784,-1.5784,-1.5784,-1.5784,-1.5784,-1.5784,-1.5784,-1.5784,-1.5784,-1.5784,-1.5784,-1.5784,-1.5784,-1.5784,-1.5784,-1.5784,-1.5784,-1.5784,-1.5784,-1.5784,-1.5784,-1.5784,-1.5378,-1.4477,-1.3134,-1.0534,-0.8814,-0.7988,-0.7889,-0.7889,-0.5845,0.0,-0.6607,-0.6491,-0.6525,-0.6512,0.0,-0.6254,-0.6272,-0.5962,0.0,-0.6152,-0.6422,-0.6463,-0.6634,-0.7173,-0.7272,-0.7421,-0.7719,-0.8472,-0.9218,-0.9822,-1.0154,-1.0365,-1.0432,-1.0609,-1.0717,-1.0717,-1.0717,-1.1439,-1.3193,-1.4939,-1.6689,-1.8436,-2.0195,-2.1109,-2.1109,-2.1109,-2.1002,-2.0775,-2.0775,-2.0628,-2.0334,-2.0334,-2.0147,-1.98,-1.98,-1.9639,-1.943,-1.943,-1.943,-1.943,-1.943,-1.943,-1.9345,-1.9118,-1.8838,-1.8557,-1.825,-1.7943,-1.7675,-1.7609,-1.7582,-1.7582,-1.7582,-1.7582,-1.7582,-1.7582,-1.7582,-1.7582,-1.7582,-1.7582,-1.7515,-1.7273,-1.6927,-1.662,-1.6388,-1.6046,-1.5784,-1.5784,-1.5784,-1.5784,-1.5784,-1.5784,-1.5784,-1.5784,-1.5784,-1.5784,-1.5784,-1.5784,-1.5784,-1.5784,-1.5784,-1.5784,-1.5784,-1.5784,-1.5784,-1.5784,-1.5784,-1.5784,-1.5784,-1.5784,-1.5784,-1.5784,-1.3778,-1.2111,-1.0803,-0.8104,-0.7248,-0.7988,-0.6936,-0.7036,-0.4827,-0.577,-0.6477,-0.6334,-0.6463,-0.6519,-0.6288,0.0,0.0,0.0,0.0,0.0,0.0,-0.6532,-0.6729,-0.719,-0.738,-0.7678,-0.8248,-0.8804,-0.9374,-0.9916,-1.0188,-1.0317,-1.0385,-1.0527,-1.0616,-1.0616,-1.0677,-1.1439,-1.3193,-1.4854,-1.653,-1.8273,-1.9875,-2.0775,-2.0909,-2.0909,-2.0762,-2.0468,-2.0468,-2.0321,-2.004,-2.004,-1.988,-1.9599,-1.9599,-1.9506,-1.943,-1.943,-1.943,-1.943,-1.943,-1.9279,-1.9145,-1.8985,-1.8651,-1.8263,-1.8049,-1.7836,-1.7582,-1.7582,-1.7582,-1.7582,-1.7582,-1.7582,-1.7582,-1.7582,-1.7582,-1.7582,-1.7582,-1.7582,-1.7515,-1.7273,-1.6927,-1.662,-1.6388,-1.6046,-1.5784,-1.5784,-1.5784,-1.5784,-1.5784,-1.5784,-1.5784,-1.5784,-1.5784,-1.5784,-1.5784,-1.5784,-1.5784,-1.5784,-1.5784,-1.5784,-1.5784,-1.5784,-1.5784,-1.5784,-1.5784,-1.5784,-1.5784,-1.5784,-1.5534,-1.4949,-1.2909,-1.0965,-0.9091,-0.7018,-0.6381,-0.7086,-0.6331,-0.6731,-0.3988,-0.5388,-0.6504,-0.6313,-0.6444,-0.6579,-0.6284,0.0,0.0,0.0,0.0,0.0,0.0,-0.6668,0.0,-0.7179,-0.7516,-0.7997,-0.8852,-0.9076,-0.9367,-0.9883,-0.997,-1.01,-1.0236,-1.0378,-1.046,-1.046,-1.0582,-1.1432,-1.3175,-1.4683,-1.6171,-1.769,-1.9111,-1.9955,-2.0213,-2.0465,-2.0454,-2.0174,-2.0174,-2.0013,-1.9733,-1.9733,-1.9599,-1.943,-1.943,-1.943,-1.943,-1.943,-1.943,-1.9359,-1.9319,-1.9145,-1.8918,-1.8824,-1.8422,-1.7982,-1.7942,-1.7809,-1.7582,-1.7582,-1.7582,-1.7582,-1.7582,-1.7582,-1.7582,-1.7582,-1.7582,-1.7582,-1.7582,-1.7582,-1.7515,-1.7273,-1.6927,-1.662,-1.6388,-1.6046,-1.5784,-1.5784,-1.5784,-1.5784,-1.5784,-1.5784,-1.5784,-1.5784,-1.5784,-1.5784,-1.5784,-1.5784,-1.5784,-1.5784,-1.5784,-1.5784,-1.5784,-1.5784,-1.5784,-1.5784,-1.5784,-1.5784,-1.5784,-1.5784,-1.5092,-1.3632,-1.2474,-1.0516,-0.7694,-0.6365,-0.5677,-0.5677,-0.5677,-0.6431,-0.4276,-0.5632,-0.6566,-0.6166,-0.6288,-0.6231,-0.5078,0.0,0.0,0.0,0.0,0.0,0.0,-0.693,-0.7213,-0.7759,-0.8052,-0.8443,-0.9084,-0.9193,-0.9384,-0.9802,-0.9909,-0.9997,-1.0017,-1.0222,-1.031,-1.031,-1.0337,-1.1104,-1.286,-1.4452,-1.5494,-1.5877,-1.7453,-1.8143,-1.7901,-1.9481,-2.016,-1.9867,-1.9867,-1.972,-1.9439,-1.9439,-1.947,-1.943,-1.943,-1.943,-1.943,-1.943,-1.943,-1.9345,-1.9092,-1.8958,-1.8865,-1.8315,-1.8075,-1.7955,-1.7742,-1.7622,-1.7582,-1.7582,-1.7582,-1.7582,-1.7582,-1.7582,-1.7582,-1.7582,-1.7582,-1.7582,-1.7582,-1.7582,-1.7515,-1.7273,-1.6927,-1.662,-1.6388,-1.6046,-1.5784,-1.5784,-1.5784,-1.5784,-1.5784,-1.5784,-1.5784,-1.5784,-1.5784,-1.5784,-1.5784,-1.5784,-1.5784,-1.5784,-1.5784,-1.5784,-1.5784,-1.5784,-1.5784,-1.5784,-1.5784,-1.5784,-1.5784,-1.5784,-1.4663,-1.2231,-1.1999,-1.0075,-0.6326,-0.4968,-0.4318,-0.4318,-0.4318,-0.5022,-0.333,-0.4604,-0.5716,-0.6071,-0.662,-0.6697,-0.5189,-0.4757,0.0,0.0,0.0,0.0,0.0,0.0,-0.7584,-0.818,-0.8479,-0.8784,-0.9218,-0.9347,-0.9503,-0.9788,-0.9883,-0.9862,-0.9862,-1.0066,-1.0154,-1.0154,-1.0236,-1.1031,-1.2838,-1.3421,-1.4223,-1.5207,-1.5814,-1.6057,-1.5888,-1.7625,-1.8839,-1.9559,-1.9559,-1.9492,-1.943,-1.943,-1.943,-1.943,-1.943,-1.943,-1.943,-1.943,-1.9265,-1.9118,-1.8971,-1.8675,-1.8342,-1.7956,-1.7796,-1.7769,-1.7635,-1.7582,-1.7582,-1.7582,-1.7582,-1.7582,-1.7582,-1.7582,-1.7582,-1.7582,-1.7582,-1.7582,-1.7582,-1.7582,-1.7475,-1.7021,-1.6807,-1.658,-1.6126,-1.5925,-1.5784,-1.5784,-1.5784,-1.5784,-1.5784,-1.5784,-1.5784,-1.5784,-1.5784,-1.5784,-1.5784,-1.5784,-1.5784,-1.5784,-1.5784,-1.5784,-1.5784,-1.5784,-1.5784,-1.5784,-1.5784,-1.5784,-1.5784,-1.514,-1.3884,-1.195,-1.1219,-0.8886,-0.4918,-0.4318,-0.3616,-0.2914,-0.3667,-0.4718,-0.2595,-0.3781,-0.5012,-0.612,0.0,-0.6892,-0.5151,-0.4589,-0.4536,0.0,0.0,0.0,0.0,-0.7631,-0.7963,-0.8459,-0.8791,-0.9096,-0.9395,-0.9537,-0.9659,-0.9802,-0.9822,-0.9822,-0.9822,-0.9862,-0.9936,-0.9936,-1.0107,-1.0789,-1.2087,-1.2266,-1.2795,-1.3761,-1.3971,-1.4063,-1.4063,-1.5607,-1.7267,-1.8823,-1.9243,-1.943,-1.943,-1.943,-1.943,-1.943,-1.943,-1.943,-1.9359,-1.9292,-1.9132,-1.8905,-1.8715,-1.8342,-1.7849,-1.7675,-1.7582,-1.7582,-1.7582,-1.7582,-1.7582,-1.7582,-1.7582,-1.7582,-1.7582,-1.7582,-1.7582,-1.7582,-1.7582,-1.7582,-1.7582,-1.7528,-1.7355,-1.6834,-1.666,-1.646,-1.5939,-1.5784,-1.5784,-1.5784,-1.5784,-1.5784,-1.5784,-1.5784,-1.5784,-1.5784,-1.5784,-1.5784,-1.5784,-1.5784,-1.5784,-1.5784,-1.5784,-1.5784,-1.5784,-1.5784,-1.5784,-1.5784,-1.5784,-1.5784,-1.5784,-1.4555,-1.3247,-1.195,-1.0632,-0.7997,-0.4014,-0.4014,-0.3316,-0.2012,-0.3366,-0.4718,-0.2961,-0.4115,-0.5162,-0.6389,-0.6614,-0.6071,-0.4142,-0.3459,0.0,-0.3629,0.0,0.0,-0.7129,-0.8038,-0.8479,-0.8662,-0.8947,-0.9303,-0.9551,-0.9605,-0.9659,-0.9802,-0.9822,-0.9822,-0.9822,-0.9829,-0.9836,-0.9836,-0.9849,-0.9917,-1.0032,-1.1405,-1.1579,-1.0193,-1.1623,-1.2397,-1.2397,-1.3944,-1.5607,-1.7208,-1.8706,-1.943,-1.943,-1.943,-1.943,-1.943,-1.943,-1.943,-1.9403,-1.9065,-1.8945,-1.8865,-1.8275,-1.7903,-1.7609,-1.7595,-1.7582,-1.7582,-1.7582,-1.7582,-1.7582,-1.7582,-1.7582,-1.7582,-1.7582,-1.7582,-1.7582,-1.7582,-1.7582,-1.7582,-1.7582,-1.7434,-1.7152,-1.678,-1.65,-1.6219,-1.5899,-1.5784,-1.5784,-1.5784,-1.5784,-1.5784,-1.5784,-1.5784,-1.5784,-1.5784,-1.5784,-1.5784,-1.5784,-1.5784,-1.5784,-1.5784,-1.5784,-1.5784,-1.5784,-1.5784,-1.5784,-1.5784,-1.5784,-1.5784,-1.5784,-1.4555,-1.3247,-1.195,-1.0632,-0.7997,-0.4014,-0.4014,-0.3316,-0.2012,-0.3366,-0.4718,-0.181,-0.2455,-0.331,-0.5243,-0.5669,0.0,0.0,-0.4816,-0.4982,-0.5209,-0.5367,-0.5987,-0.772,-0.8275,-0.8533,-0.8682,-0.9042,-0.9367,-0.9578,-0.9686,-0.9761,-0.9815,-0.9822,-0.9822,-0.9822,-0.9822,-0.9822,-0.9822,-0.9822,-0.9822,-0.9822,-1.0361,-1.0422,-0.9822,-1.0422,-1.0717,-1.0717,-1.3287,-1.4896,-1.5548,-1.8169,-1.943,-1.943,-1.943,-1.943,-1.943,-1.943,-1.9265,-1.9078,-1.8971,-1.8704,-1.8275,-1.7916,-1.7689,-1.7582,-1.7582,-1.7582,-1.7582,-1.7582,-1.7582,-1.7582,-1.7582,-1.7582,-1.7582,-1.7582,-1.7582,-1.7582,-1.7582,-1.6935,-1.6446,-1.7358,-1.742,-1.7125,-1.678,-1.6486,-1.6192,-1.5885,-1.5784,-1.5784,-1.5784,-1.5784,-1.5784,-1.5784,-1.5784,-1.5784,-1.5784,-1.5784,-1.5784,-1.5784,-1.5784,-1.5784,-1.5784,-1.5784,-1.5784,-1.5784,-1.5784,-1.5784,-1.5784,-1.5784,-1.5784,-1.5784,-1.4555,-1.3247,-1.195,-1.0632,-0.8456,-0.5222,-0.5222,-0.4572,-0.3265,-0.4618,-0.5522,-0.1077,-0.1462,-0.2051,-0.3936,0.0,0.0,-0.5491,-0.5759,-0.6016,-0.6261,-0.6722,-0.7345,-0.8188,-0.8418,-0.8547,-0.875,-0.9083,-0.9381,-0.9585,-0.9693,-0.9774,-0.9815,-0.9822,-0.9822,-0.9822,-0.9822,-0.9822,-0.9822,-0.9822,-0.9822,-0.9822,-0.9822,-0.9822,-0.9822,-0.9822,-0.9822,-0.9822,-1.2517,-1.4123,-1.4599,-1.7337,-1.8881,-1.943,-1.943,-1.9127,-1.8635,-1.9092,-1.8818,-1.8153,-1.8493,-1.8302,-1.7876,-1.7662,-1.7582,-1.7582,-1.7582,-1.7582,-1.7582,-1.7582,-1.7582,-1.7582,-1.7582,-1.7582,-1.7582,-1.7582,-1.7515,-1.7448,-1.7448,-1.6363,-1.5439,-1.6444,-1.6523,-1.6304,-1.6021,-1.6045,-1.6072,-1.5872,-1.5784,-1.5784,-1.5784,-1.5784,-1.5784,-1.5784,-1.5784,-1.5784,-1.5784,-1.5784,-1.5784,-1.5784,-1.5784,-1.5784,-1.5784,-1.5784,-1.5784,-1.5784,-1.5784,-1.5784,-1.5784,-1.5784,-1.5784,-1.5784,-1.4555,-1.3247,-1.195,-1.0632,-0.8662,-0.5977,-0.5977,-0.5522,-0.4668,-0.5577,-0.6232,-0.1064,-0.1423,-0.1783,-0.2693,0.0,0.0,-0.5709,-0.581,-0.5925,-0.6251,-0.7386,-0.8368,-0.8459,-0.8486,-0.8581,-0.8831,-0.9055,-0.9316,-0.9564,-0.9605,-0.9659,-0.9802,-0.9815,-0.9815,-0.9815,-0.9815,-0.9815,-0.9815,-0.9815,-0.9815,-0.9815,-0.9822,-0.9822,-0.9822,-0.9822,-0.9822,-0.9822,-1.1374,-1.2988,-1.4599,-1.6197,-1.7793,-1.9359,-1.9359,-1.8519,-1.7067,-1.8339,-1.7983,-1.6584,-1.7605,-1.7862,-1.7582,-1.7582,-1.7582,-1.7582,-1.7582,-1.7582,-1.7582,-1.7582,-1.7582,-1.7582,-1.7582,-1.7582,-1.7582,-1.7582,-1.7434,-1.7206,-1.7192,-1.6049,-1.48,-1.4737,-1.4597,-1.4426,-1.4319,-1.5055,-1.5784,-1.5784,-1.5784,-1.5784,-1.5784,-1.5784,-1.5784,-1.5784,-1.5784,-1.5784,-1.5784,-1.5784,-1.5784,-1.5784,-1.5784,-1.5784,-1.5784,-1.5784,-1.5784,-1.5784,-1.5784,-1.5784,-1.5784,-1.5784,-1.5784,-1.5784,-1.4603,-1.3295,-1.195,-1.0681,-0.8711,-0.6027,-0.6032,-0.6032,-0.6032,-0.6032,-0.6731,-0.0334,-0.0423,0.0,-0.1831,0.0,0.0,0.0,-0.6042,0.0,0.0,-0.8381,-0.8594,-0.8635,-0.8642,-0.8669,-0.8764,-0.8988,-0.9241,-0.933,-0.9381,-0.9462,-0.9503,-0.951,-0.951,-0.951,-0.951,-0.951,-0.951,-0.9612,-0.9625,-0.9517,-0.9707,-0.9774,-0.9673,-0.9768,-0.9822,-0.9822,-1.1316,-1.2309,-1.2781,-1.4252,-1.6401,-1.8994,-1.7982,-1.7114,-1.6466,-1.5818,-1.5749,-1.6176,-1.7272,-1.7662,-1.7582,-1.7582,-1.7582,-1.7582,-1.7582,-1.7582,-1.7582,-1.7582,-1.7582,-1.7582,-1.7582,-1.7582,-1.7582,-1.7582,-1.7434,-1.6987,-1.6045,-1.459,-1.3016,-1.195,-1.1608,-1.1942,-1.3876,-1.4352,-1.4711,-1.5629,-1.5784,-1.5784,-1.5784,-1.5784,-1.5784,-1.5784,-1.5784,-1.5784,-1.5784,-1.5784,-1.5784,-1.5784,-1.5784,-1.5784,-1.5784,-1.5784,-1.5784,-1.5784,-1.5784,-1.5784,-1.5784,-1.5784,-1.5784,-1.5784,-1.5439,-1.4615,-1.3343,-1.1989,-1.0476,-0.881,-0.7875,-0.7385,-0.7385,-0.7385,-0.764,0.0,0.0,0.0,-0.0885,-0.1546,-0.252,-0.4424,0.0,0.0,-0.8701,-0.8818,-0.873,-0.8791,-0.875,-0.873,-0.8791,-0.8947,-0.9089,-0.92,-0.9289,-0.9313,-0.9374,-0.9381,-0.9381,-0.9381,-0.9381,-0.9381,-0.9381,-0.9469,-0.9476,-0.9388,-0.9551,-0.9605,-0.9523,-0.9598,-0.9646,-0.9646,-1.0546,-1.1304,-1.1944,-1.3365,-1.531,-1.7652,-1.6895,-1.644,-1.6186,-1.5188,-1.5441,-1.663,-1.7331,-1.7582,-1.7582,-1.7582,-1.7582,-1.7582,-1.7582,-1.7582,-1.7582,-1.7582,-1.7582,-1.7582,-1.7582,-1.7554,-1.746,-1.746,-1.6806,-1.5859,-1.5098,-1.3268,-1.135,-1.0488,-0.9762,-1.0004,-1.2724,-1.3651,-1.4268,-1.5534,-1.5784,-1.5784,-1.5784,-1.5784,-1.5784,-1.5784,-1.5784,-1.5784,-1.5784,-1.5784,-1.5784,-1.5784,-1.5784,-1.5784,-1.5784,-1.5784,-1.5784,-1.5784,-1.5784,-1.5784,-1.5784,-1.5784,-1.5784,-1.5784,-1.5784,-1.5188,-1.392,-1.3102,-1.1794,-1.0002,-0.9164,-0.8528,-0.7988,-0.7988,-0.7988,0.0,0.0,0.0,0.0,-0.0933,0.0,-0.5456,-0.6202,-0.6795,-0.852,-0.8825,-0.8771,-0.8858,-0.8825,-0.8777,-0.8858,-0.8885,-0.8988,-0.9173,-0.9187,-0.9241,-0.9327,-0.934,-0.934,-0.934,-0.934,-0.934,-0.934,-0.9354,-0.9354,-0.934,-0.9367,-0.9374,-0.9361,-0.9374,-0.9381,-0.9381,-0.9367,-1.0163,-1.1757,-1.3032,-1.4431,-1.583,-1.6145,-1.6084,-1.5837,-1.5606,-1.6186,-1.7424,-1.7529,-1.7582,-1.7582,-1.7582,-1.7582,-1.7582,-1.7582,-1.7582,-1.7582,-1.7582,-1.7582,-1.7582,-1.7555,-1.742,-1.7192,-1.7166,-1.5834,-1.426,-1.4161,-1.2112,-0.9953,-0.9854,-0.9023,-0.8825,-1.1317,-1.2813,-1.4124,-1.5486,-1.5784,-1.5784,-1.5784,-1.5784,-1.5784,-1.5784,-1.5784,-1.5784,-1.5784,-1.5784,-1.5784,-1.5784,-1.5784,-1.5784,-1.5784,-1.5784,-1.5784,-1.5784,-1.5784,-1.5784,-1.5784,-1.5784,-1.5784,-1.5784,-1.5784,-1.5248,-1.4124,-1.3968,-1.2716,-1.0337,-1.01,-0.9361,-0.8187,-0.8038,-0.7988,0.0,0.0,0.0,0.0,-0.0201,-0.0893,-0.2715,-0.4035,-0.5673,-0.8374,-0.8858,-0.8844,-0.8878,-0.8858,-0.8844,-0.8878,-0.8885,-0.8892,-0.8981,-0.8988,-0.8994,-0.9028,-0.9035,-0.9035,-0.9035,-0.9035,-0.9035,-0.9035,-0.9137,-0.915,-0.9042,-0.9252,-0.9327,-0.9262,-0.932,-0.9381,-0.9381,-0.9316,-0.9986,-1.1431,-1.162,-1.3059,-1.5505,-1.5818,-1.5229,-1.3897,-1.3844,-1.4611,-1.5956,-1.7094,-1.7582,-1.7582,-1.7582,-1.7582,-1.7582,-1.7582,-1.7582,-1.7582,-1.7582,-1.7582,-1.7542,-1.7367,-1.7246,-1.7152,-1.6874,-1.5632,-1.4112,-1.3071,-1.143,-0.9756,-0.8726,-0.9023,-0.9944,-1.1512,-1.2134,-1.2958,-1.5296,-1.5784,-1.5784,-1.5784,-1.5784,-1.5784,-1.5784,-1.5784,-1.5784,-1.5784,-1.5784,-1.5784,-1.5784,-1.5784,-1.5784,-1.5784,-1.5784,-1.5784,-1.5784,-1.5784,-1.5784,-1.5784,-1.5784,-1.5784,-1.5784,-1.5784,-1.5676,-1.5391,-1.4411,-1.3632,-1.3054,-1.1014,-0.9854,-0.9558,-0.8478,-0.7988,0.0,0.0,0.0,0.0,0.0,-0.037,-0.1877,-0.3306,-0.5025,-0.727,-0.8384,-0.8885,-0.8885,-0.8885,-0.8885,-0.8885,-0.8885,-0.8885,-0.8885,-0.8885,-0.8885,-0.8885,-0.8885,-0.8885,-0.8885,-0.8885,-0.8885,-0.8885,-0.9008,-0.9015,-0.8885,-0.9083,-0.913,-0.9055,-0.913,-0.9171,-0.9171,-0.9089,-0.9761,-1.1189,-1.1152,-1.2236,-1.4395,-1.5283,-1.4786,-1.3318,-1.4019,-1.4716,-1.553,-1.6988,-1.7582,-1.7582,-1.7582,-1.7147,-1.6552,-1.6552,-1.6464,-1.635,-1.635,-1.6691,-1.7141,-1.6981,-1.6898,-1.675,-1.654,-1.4937,-1.2997,-1.2369,-1.0663,-0.8874,-0.8187,-0.8528,-0.9361,-1.0681,-1.194,-1.3392,-1.5391,-1.5784,-1.5784,-1.5784,-1.5784,-1.5784,-1.5784,-1.5784,-1.5784,-1.5784,-1.5784,-1.5784,-1.5784,-1.5784,-1.5784,-1.5784,-1.5784,-1.5784,-1.5784,-1.5784,-1.5784,-1.5784,-1.5784,-1.5784,-1.5784,-1.5784,-1.5784,-1.5784,-1.514,-1.4507,-1.392,-1.1891,-1.0583,-0.9953,-0.8627,-0.7988,0.0,0.0,0.0,0.0,0.0,0.0,-0.1559,-0.2893,-0.4262,-0.5782,-0.758,-0.8844,-0.8844,-0.8865,-0.8885,-0.8885,-0.8885,-0.8885,-0.8885,-0.8885,-0.8885,-0.8885,-0.8885,-0.8885,-0.8885,-0.8885,-0.8885,-0.8885,-0.8885,-0.8885,-0.8885,-0.8885,-0.8885,-0.8885,-0.8885,-0.8885,-0.8885,-0.8885,-0.9644,-1.1109,-1.1374,-1.1973,-1.294,-1.4126,-1.418,-1.3372,-1.4556,-1.5198,-1.553,-1.6988,-1.7582,-1.7582,-1.7582,-1.6844,-1.5724,-1.5724,-1.5503,-1.5287,-1.5287,-1.5922,-1.67,-1.6647,-1.6312,-1.5953,-1.5914,-1.3854,-1.156,-1.156,-0.9854,-0.7988,-0.7988,-0.8187,-0.8627,-0.9756,-1.1843,-1.3932,-1.5188,-1.5629,-1.5784,-1.5784,-1.5784,-1.5784,-1.5784,-1.5784,-1.5784,-1.5784,-1.5784,-1.5784,-1.5784,-1.5784,-1.5784,-1.5784,-1.5784,-1.5784,-1.5784,-1.5784,-1.5784,-1.5784,-1.5784,-1.5784,-1.5784,-1.5784,-1.5784,-1.5784,-1.5784,-1.5296,-1.422,-1.2668,-1.1365,-1.0288,-0.8726,-0.7988,0.0,0.0,0.0,0.0,0.0,-0.0052,0.0,0.0,-0.287,-0.4203,-0.6743,-0.8743,-0.8743,-0.8852,-0.8885,-0.8885,-0.8885,-0.8885,-0.8885,-0.8885,-0.8885,-0.8885,-0.8885,-0.8885,-0.8885,-0.8885,-0.8885,-0.8885,-0.8885,-0.8885,-0.8885,-0.8885,-0.8885,-0.8885,-0.8885,-0.8885,-0.8885,-0.8885,-0.9644,-1.1109,-1.2408,-1.2453,-1.1374,-1.1592,-1.2299,-1.3318,-1.348,-1.4288,-1.553,-1.6988,-1.7582,-1.7582,-1.7582,-1.7317,-1.6937,-1.6937,-1.6752,-1.6452,-1.6452,-1.6576,-1.666,-1.642,-1.5539,-1.4508,-1.4292,-1.2349,-1.0239,-1.0239,-0.9164,-0.7988,-0.7988,-0.8874,-0.9756,-0.9953,-1.1121,-1.2522,-1.3884,-1.4997,-1.5784,-1.5784,-1.5784,-1.5784,-1.5784,-1.5784,-1.5784,-1.5784,-1.5784,-1.5784,-1.5784,-1.5784,-1.5784,-1.5784,-1.5784,-1.5784,-1.5784,-1.5784,-1.5784,-1.5784,-1.5784,-1.5784,-1.5784,-1.5784,-1.5784,-1.5784,-1.5784,-1.5737,-1.5534,-1.3113,-1.1804,-1.1609,-0.9114,-0.7988,0.0,0.0,0.0,0.0,0.0,0.0,0.0,-0.1086,-0.2275,-0.2872,-0.5309,-0.7632,-0.8461,-0.871,-0.8811,-0.8811,-0.8824,-0.8885,-0.8885,-0.8885,-0.8885,-0.8885,-0.8885,-0.8885,-0.8885,-0.8885,-0.8885,-0.8885,-0.8885,-0.8885,-0.8885,-0.8885,-0.8885,-0.8885,-0.8885,-0.8885,-0.8885,-0.9699,-1.046,-1.1109,-1.2615,-1.2082,-0.9919,-1.1592,-1.1755,-1.0945,-1.2561,-1.3516,-1.4144,-1.643,-1.6912,-1.6208,-1.6832,-1.6111,-1.4804,-1.5448,-1.5481,-1.5245,-1.5245,-1.5652,-1.6192,-1.6059,-1.5621,-1.5005,-1.4148,-1.2571,-1.0925,-1.019,-0.9023,-0.7988,-0.7988,-0.8428,-0.9065,-0.9805,-1.0435,-1.1404,-1.344,-1.4364,-1.4949,-1.5689,-1.5784,-1.5784,-1.5784,-1.6386,-1.6622,-1.5927,-1.6433,-1.6622,-1.5879,-1.5784,-1.5784,-1.5784,-1.5784,-1.5784,-1.5784,-1.5784,-1.5784,-1.5784,-1.5784,-1.5784,-1.5784,-1.5784,-1.5784,-1.5784,-1.5784,-1.5784,-1.5784,-1.3932,-1.2619,-1.1853,-1.0002,-0.8726,0.0,0.0,0.0,0.0,0.0,0.0,0.0,-0.0764,-0.1568,-0.1947,-0.3693,-0.576,-0.751,-0.8309,-0.8655,-0.8655,-0.875,-0.8838,-0.8817,-0.8845,-0.8838,-0.8817,-0.8824,-0.8824,-0.8824,-0.8858,-0.8885,-0.8885,-0.8885,-0.8865,-0.8824,-0.8824,-0.8811,-0.8825,-0.8825,-0.8825,-0.8825,-0.9892,-1.0425,-1.0425,-1.1549,-1.1119,-0.9356,-1.1549,-1.1549,-0.9954,-1.2573,-1.3402,-1.3036,-1.5906,-1.6407,-1.5548,-1.6377,-1.5454,-1.3784,-1.4624,-1.4787,-1.4521,-1.4521,-1.5078,-1.5784,-1.5784,-1.5343,-1.4615,-1.3692,-1.2231,-1.073,-0.9756,-0.8775,-0.7988,-0.7988,-0.8237,-0.8676,-0.9312,-0.9756,-1.073,-1.3343,-1.4172,-1.4651,-1.5629,-1.5784,-1.5927,-1.6244,-1.681,-1.6983,-1.6386,-1.681,-1.6857,-1.5927,-1.5784,-1.5784,-1.5784,-1.5784,-1.5784,-1.5784,-1.5784,-1.5784,-1.5784,-1.5784,-1.5784,-1.5784,-1.5784,-1.5784,-1.5784,-1.5784,-1.5784,-1.5784,-1.4507,-1.3392,-1.2377,-1.073,-0.946,0.0,0.0,0.0,0.0,0.0,0.0,0.0,-0.0051,-0.0454,-0.1713,-0.2116,-0.3022,-0.5641,-0.7416,-0.8492,-0.8492,-0.8499,-0.8554,-0.8703,-0.8601,-0.856,-0.8703,-0.8723,-0.8723,-0.8723,-0.8797,-0.8885,-0.8885,-0.8885,-0.8817,-0.873,-0.8723,-0.8655,-0.8513,-0.8506,-0.8506,-0.8506,-0.8611,-0.8664,-0.8664,-0.8709,-0.9279,-1.0316,-1.0473,-1.114,-1.2348,-1.4112,-1.4107,-1.3026,-1.5656,-1.6677,-1.6627,-1.6663,-1.6441,-1.6117,-1.6202,-1.6002,-1.5703,-1.5703,-1.575,-1.5784,-1.5784,-1.4124,-1.2096,-1.2047,-1.0239,-0.8187,-0.8137,-0.8038,-0.7988,-0.7988,-0.8924,-0.9608,-0.8379,-0.9065,-1.073,-1.3343,-1.4854,-1.5737,-1.5784,-1.5784,-1.6197,-1.7404,-1.6669,-1.6292,-1.7404,-1.6622,-1.5879,-1.5832,-1.5784,-1.5784,-1.5784,-1.5784,-1.5784,-1.5784,-1.5784,-1.5784,-1.5784,-1.5784,-1.5784,-1.5784,-1.5784,-1.5784,-1.5784,-1.5784,-1.5784,-1.5784,-1.4507,-1.3872,-1.3728,-1.1209,-0.9953,0.0,0.0,0.0,0.0,0.0,0.0,0.0,0.0,-0.0151,-0.0605,-0.141,-0.2314,-0.3268,-0.5431,-0.7349,-0.824,-0.8425,-0.8236,-0.7381,-0.724,-0.7223,-0.7275,-0.7275,-0.7653,-0.8507,-0.8615,-0.8648,-0.8648,-0.8648,-0.8621,-0.8567,-0.8567,-0.854,-0.8486,-0.8479,-0.8943,-0.9928,-0.8996,-0.8996,-0.9928,-0.8943,-0.9153,-1.0439,-1.1362,-1.2032,-1.2546,-1.4829,-1.4542,-1.2598,-1.5357,-1.5419,-1.3979,-1.5524,-1.5596,-1.4998,-1.5708,-1.5925,-1.5784,-1.5784,-1.5784,-1.5784,-1.5784,-1.4603,-1.3006,-1.2134,-1.0681,-0.9114,-0.8237,-0.8627,-0.9262,-0.9262,-0.9657,-0.9657,-0.8336,-0.9657,-1.1268,-1.1356,-1.3054,-1.4806,-1.5629,-1.5784,-1.5927,-1.6386,-1.6763,-1.6904,-1.6527,-1.681,-1.6716,-1.5927,-1.5784,-1.5784,-1.5784,-1.5784,-1.5784,-1.5784,-1.5784,-1.5784,-1.5784,-1.5784,-1.5784,-1.5784,-1.5784,-1.5784,-1.5784,-1.5784,-1.5784,-1.5784,-1.5343,-1.4711,-1.3872,-1.2037,-1.0779,0.0,0.0,0.0,0.0,0.0,0.0,0.0,0.0,0.0,0.0,-0.0703,-0.146,-0.1912,-0.3552,-0.5315,-0.6647,-0.7283,-0.72,-0.5931,-0.5695,-0.5685,-0.5723,-0.6145,-0.6777,-0.7669,-0.8184,-0.8479,-0.8479,-0.8479,-0.8459,-0.8411,-0.8411,-0.8384,-0.8336,-0.8336,-0.8786,-0.9796,-0.8837,-0.8837,-0.9804,-0.9248,-0.965,-1.0968,-1.2375,-1.3229,-1.3629,-1.5365,-1.4631,-1.2413,-1.507,-1.4777,-1.298,-1.5025,-1.5364,-1.4765,-1.5517,-1.5784,-1.5784,-1.5784,-1.5784,-1.5784,-1.5784,-1.4949,-1.3632,-1.2328,-1.1023,-0.9805,-0.8924,-0.9312,-1.0002,-1.0002,-0.9657,-0.9213,-0.8775,-0.9657,-1.0485,-1.01,-1.2037,-1.4172,-1.4997,-1.5486,-1.5927,-1.6339,-1.6763,-1.6904,-1.648,-1.681,-1.6763,-1.5927,-1.5784,-1.5784,-1.5784,-1.5784,-1.5784,-1.5784,-1.5784,-1.5784,-1.5784,-1.5784,-1.5784,-1.5784,-1.5784,-1.5784,-1.5784,-1.5784,-1.5784,-1.5784,-1.5784,-1.5391,-1.4507,-1.2716,-1.0974,0.0,0.0,0.0,0.0,0.0,0.0,0.0,0.0,0.0,0.0,0.0,-0.0403,-0.1711,-0.1962,-0.2414,-0.3667,-0.5022,-0.5509,-0.4321,-0.4011,-0.3994,-0.4119,-0.5359,-0.6236,-0.6287,-0.7644,-0.8472,-0.8472,-0.8472,-0.8411,-0.832,-0.8313,-0.8194,-0.7995,-0.7988,-0.7988,-0.7988,-0.7988,-0.7988,-0.8038,-0.9361,-1.0681,-1.195,-1.3295,-1.4603,-1.5784,-1.5784,-1.4461,-1.2443,-1.481,-1.5045,-1.4028,-1.5296,-1.5784,-1.5784,-1.5784,-1.5784,-1.5784,-1.5784,-1.5784,-1.5784,-1.5784,-1.4949,-1.3632,-1.2328,-1.1023,-1.0051,-1.0002,-1.0051,-1.0051,-1.0002,-0.9023,-0.8386,-0.9657,-0.8973,-0.8336,-0.9657,-1.1989,-1.3872,-1.3872,-1.4949,-1.6197,-1.7404,-1.6622,-1.6197,-1.7451,-1.6574,-1.5784,-1.5784,-1.5784,-1.5784,-1.5784,-1.5784,-1.5784,-1.5784,-1.5784,-1.5784,-1.5784,-1.5784,-1.5784,-1.5784,-1.5784,-1.5784,-1.5784,-1.5784,-1.5784,-1.5784,-1.5784,-1.5784,-1.5737,-1.3054,-1.0435,0.0,0.0,0.0,0.0,0.0,0.0,0.0,0.0,0.0,0.0,0.0,-0.0096,-0.0501,-0.136,-0.1813,-0.121,-0.3065,-0.4074,-0.2785,-0.2574,-0.2569,-0.2583,-0.3796,-0.5006,-0.5972,-0.7321,-0.816,-0.816,-0.816,-0.8147,-0.8106,-0.8106,-0.8035,-0.7988,-0.7988,-0.7988,-0.7988,-0.7988,-0.7988,-0.8038,-0.9361,-1.0681,-1.195,-1.3295,-1.4603,-1.5784,-1.5784,-1.4892,-1.3542,-1.5131,-1.5045,-1.4028,-1.5296,-1.5784,-1.5784,-1.5784,-1.5784,-1.5784,-1.5784,-1.5784,-1.5784,-1.5784,-1.4949,-1.3632,-1.2328,-1.1658,-1.117,-1.0239,-1.0681,-1.117,-1.0239,-0.9706,-0.9312,-0.8676,-0.8287,-0.8088,-0.8478,-1.0632,-1.2716,-1.3728,-1.4949,-1.5927,-1.6244,-1.6008,-1.5927,-1.6244,-1.6008,-1.5784,-1.5784,-1.5784,-1.5784,-1.5784,-1.5784,-1.5784,-1.5784,-1.5784,-1.5784,-1.5784,-1.5784,-1.5784,-1.5784,-1.5784,-1.5784,-1.5784,-1.5784,-1.5784,-1.5784,-1.5784,-1.5784,-1.5724,-1.2131,-0.9068,0.0,0.0,0.0,0.0,0.0,0.0,0.0,-0.0329,-0.0546,-0.0092,-0.0371,-0.0515,-0.0098,-0.0645,-0.0897,-0.015,-0.1303,-0.2063,-0.1259,-0.1159,-0.1159,-0.1159,-0.2864,-0.4318,-0.5072,-0.688,-0.7988,-0.7988,-0.7988,-0.7988,-0.7988,-0.7988,-0.7988,-0.7988,-0.7988,-0.7988,-0.7988,-0.7988,-0.7988,-0.8038,-0.9903,-1.117,-1.195,-1.3836,-1.5092,-1.5784,-1.5784,-1.5391,-1.4711,-1.4902,-1.4555,-1.4028,-1.5296,-1.5784,-1.5784,-1.5784,-1.5784,-1.5784,-1.5784,-1.5784,-1.5784,-1.5784,-1.5296,-1.4459,-1.3102,-1.2716,-1.2571,-1.1843,-1.1745,-1.1609,-1.0337,-0.9608,-0.8973,-0.8187,-0.7988,-0.7988,-0.7988,-1.0043,-1.2145,-1.2909,-1.4567,-1.5784,-1.5784,-1.5784,-1.5784,-1.5784,-1.5784,-1.5784,-1.5784,-1.5784,-1.5784,-1.5784,-1.5784,-1.5784,-1.5784,-1.5784,-1.5784,-1.5784,-1.5784,-1.5784,-1.5784,-1.5784,-1.5784,-1.5784,-1.5784,-1.6055,-1.6574,-1.6055,-1.5248,-1.4076,-1.124,-0.8512,0.0,0.0,0.0,0.0,0.0,0.0,0.0,-0.0724,-0.1161,-0.0218,-0.0852,-0.1327,-0.0376,-0.0288,-0.0341,-0.0194,-0.0198,-0.0151,0.0,0.0,-0.005,-0.0202,-0.2465,-0.4067,-0.4218,-0.6526,-0.7988,-0.7988,-0.7988,-0.7988,-0.7988,-0.7988,-0.7988,-0.7988,-0.7988,-0.7988,-0.7988,-0.7988,-0.7988,-0.8038,-1.0632,-1.1901,-1.1999,-1.4615,-1.5784,-1.5784,-1.5784,-1.5784,-1.5724,-1.4555,-1.4112,-1.422,-1.5188,-1.5676,-1.5784,-1.5784,-1.5784,-1.5784,-1.5784,-1.5784,-1.5784,-1.5784,-1.5784,-1.5581,-1.4268,-1.4016,-1.4064,-1.392,-1.2813,-1.1414,-1.0288,-0.9023,-0.7988,-0.7988,-0.7988,-0.7988,-0.7988,-0.9944,-1.1755,-1.1853,-1.4028,-1.5784,-1.5784,-1.5784,-1.5784,-1.5784,-1.5784,-1.5784,-1.5784,-1.5784,-1.5784,-1.5784,-1.5784,-1.5784,-1.5784,-1.5784,-1.5784,-1.5784,-1.5784,-1.5784,-1.5784,-1.5784,-1.5784,-1.5784,-1.5784,-1.6339,-1.7498,-1.6339,-1.4507,-1.2076,-1.0462,-0.8259,0.0,0.0,0.0,0.0,0.0,0.0,0.0,-0.0151,-0.027,-0.004,-0.085,-0.1527,-0.1311,-0.2047,-0.2365,-0.1417,-0.1383,-0.1091,-0.0151,0.0,-0.0404,-0.146,-0.3015,-0.4418,-0.5522,-0.7086,-0.7988,-0.7988,-0.7988,-0.7988,-0.7988,-0.7988,-0.7988,-0.7988,-0.7988,-0.7988,-0.7988,-0.7988,-0.7988,-0.8038,-1.0632,-1.1901,-1.1999,-1.4615,-1.5784,-1.5784,-1.5784,-1.5784,-1.5784,-1.5534,-1.5439,-1.5343,-1.4555,-1.4902,-1.5784,-1.5784,-1.5784,-1.5784,-1.5784,-1.5784,-1.5784,-1.5784,-1.5784,-1.5581,-1.4268,-1.4603,-1.5235,-1.4172,-1.2183,-1.0288,-1.0043,-0.9023,-0.7988,-0.7988,-0.7988,-0.7988,-0.7988,-0.9262,-1.0681,-1.1707,-1.4028,-1.5784,-1.5784,-1.5784,-1.5784,-1.5784,-1.5784,-1.5784,-1.5784,-1.5784,-1.5784,-1.5784,-1.5784,-1.5784,-1.5784,-1.5784,-1.5784,-1.5784,-1.5784,-1.5784,-1.5784,-1.5784,-1.5784,-1.5784,-1.5784,-1.5927,-1.615,-1.5927,-1.4972,-1.336,-0.9875,-0.6909,0.0,0.0,0.0,0.0,0.0,0.0,0.0,-0.042,-0.0652,-0.0121,-0.0837,-0.1437,-0.0888,-0.1693,-0.2288,-0.1762,-0.2162,-0.2337,-0.1734,-0.1287,-0.1511,-0.2814,-0.3616,-0.4268,-0.4922,-0.5622,-0.6276,-0.693,-0.6986,-0.7285,-0.7988,-0.7988,-0.7988,-0.7988,-0.7988,-0.7988,-0.7988,-0.7988,-0.7988,-0.8038,-0.9993,-1.1317,-1.195,-1.3932,-1.5188,-1.5784,-1.5784,-1.5784,-1.5737,-1.5092,-1.5248,-1.5737,-1.5092,-1.5248,-1.5784,-1.5784,-1.5784,-1.5784,-1.5784,-1.5784,-1.5784,-1.5784,-1.5784,-1.5676,-1.5045,-1.5296,-1.5391,-1.3451,-1.194,-1.0632,-0.9361,-0.8478,-0.7988,-0.7988,-0.7988,-0.7988,-0.7988,-0.9072,-1.0386,-1.1658,-1.3499,-1.5045,-1.5689,-1.5784,-1.5784,-1.5784,-1.5784,-1.5784,-1.5784,-1.5784,-1.5784,-1.5784,-1.5784,-1.5784,-1.5784,-1.5784,-1.5784,-1.5784,-1.5784,-1.5784,-1.5784,-1.5784,-1.5784,-1.5784,-1.5784,-1.6103,-1.6763,-1.6103,-1.5127,-1.3778,-1.0427,-0.75,0.0,0.0,0.0,0.0,0.0,0.0,0.0,0.0,0.0,-0.0163,-0.0837,-0.134,-0.0451,-0.1364,-0.2164,-0.2076,-0.2905,-0.3571,-0.3661,-0.2851,-0.271,-0.3801,-0.3966,-0.398,-0.3993,-0.3983,-0.4533,-0.5877,-0.5991,-0.658,-0.7939,-0.7988,-0.7988,-0.7988,-0.7988,-0.7988,-0.7988,-0.7988,-0.7988,-0.8038,-0.9608,-1.0925,-1.195,-1.3536,-1.4854,-1.5784,-1.5784,-1.5689,-1.5391,-1.4603,-1.4758,-1.5439,-1.5439,-1.5581,-1.5784,-1.5784,-1.5784,-1.5784,-1.5784,-1.5784,-1.5784,-1.5784,-1.5784,-1.5784,-1.5784,-1.5642,-1.4997,-1.2872,-1.1901,-1.1072,-0.8924,-0.8187,-0.7988,-0.7988,-0.7988,-0.7988,-0.7988,-0.8874,-1.0002,-1.1268,-1.2619,-1.4028,-1.5534,-1.5784,-1.5784,-1.5784,-1.5581,-1.5534,-1.5784,-1.5581,-1.5534,-1.5784,-1.5784,-1.5784,-1.5784,-1.5784,-1.5927,-1.615,-1.5927,-1.5927,-1.615,-1.5927,-1.5784,-1.5784,-1.5784,-1.6292,-1.7326,-1.6292,-1.5283,-1.4196,-1.1531,-0.8875,0.0,0.0,0.0,0.0,0.0,0.0,0.0,0.0,-0.0159,-0.0038,0.0,-0.1558,-0.1452,0.0,0.0,-0.312,-0.3862,-0.4615,-0.4863,-0.4047,-0.3464,-0.3618,-0.3732,-0.3847,-0.3964,-0.4009,-0.4554,-0.5912,-0.5988,-0.6594,-0.7925,-0.7988,-0.7988,-0.7988,-0.7988,-0.7988,-0.7988,-0.7988,-0.7988,-0.8038,-1.0485,-1.1755,-1.1999,-1.4472,-1.5689,-1.5784,-1.5784,-1.514,-1.4172,-1.5188,-1.4997,-1.4124,-1.4124,-1.4806,-1.5784,-1.5784,-1.5784,-1.5784,-1.5784,-1.5784,-1.5784,-1.5784,-1.5784,-1.5784,-1.5784,-1.4997,-1.4064,-1.3776,-1.1989,-1.0141,-0.9854,-0.8874,-0.7988,-0.7988,-0.7988,-0.7988,-0.7988,-0.8137,-0.8627,-0.9953,-1.1268,-1.292,-1.5391,-1.5784,-1.5784,-1.5784,-1.4854,-1.4507,-1.5629,-1.4806,-1.4555,-1.5676,-1.5784,-1.5784,-1.5784,-1.5784,-1.6292,-1.7404,-1.6433,-1.6292,-1.7451,-1.6386,-1.5784,-1.5784,-1.5784,-1.5879,-1.6021,-1.5879,-1.5697,-1.5442,-1.287,-1.0259,0.0,0.0,0.0,0.0,0.0,0.0,0.0,0.0,0.0,0.0,0.0,0.0,0.0,0.0,0.0,0.0,-0.4438,-0.5481,-0.5599,-0.4904,-0.4446,-0.4719,-0.3559,-0.2453,-0.1748,-0.169,-0.2222,-0.3594,-0.4407,-0.5427,-0.6758,-0.7595,-0.7988,-0.7988,-0.7988,-0.7988,-0.7988,-0.7988,-0.7988,-0.7988,-0.9114,-1.0435,-1.195,-1.3065,-1.4364,-1.5784,-1.5784,-1.5486,-1.5045,-1.5581,-1.5486,-1.4997,-1.4997,-1.5343,-1.5784,-1.5784,-1.5784,-1.5784,-1.5784,-1.5784,-1.5784,-1.5784,-1.5784,-1.5784,-1.5784,-1.5439,-1.4854,-1.4124,-1.2571,-1.0925,-1.019,-0.9023,-0.7988,-0.7988,-0.7988,-0.7988,-0.7988,-0.7988,-0.8379,-0.9756,-1.0435,-1.1365,-1.321,-1.4806,-1.5296,-1.3788,-1.374,-1.4076,-1.4603,-1.422,-1.4411,-1.5689,-1.5784,-1.5784,-1.5784,-1.5784,-1.6339,-1.7638,-1.7171,-1.681,-1.6622,-1.6055,-1.5784,-1.5784,-1.5784,-1.5784,-1.5784,-1.5784,-1.6183,-1.68,-1.4943,-1.3087,0.0,0.0,0.0,0.0,0.0,0.0,0.0,0.0,0.0,0.0,0.0,0.0,0.0,0.0,-0.2969,-0.3044,0.0,-0.5918,-0.5613,-0.4871,-0.4467,-0.4832,-0.285,-0.1073,-0.0091,0.0,-0.0548,-0.1884,-0.3219,-0.4563,-0.5945,-0.7223,-0.7948,-0.7988,-0.7988,-0.7988,-0.7988,-0.7988,-0.7988,-0.7988,-0.8726,-1.0043,-1.1901,-1.263,-1.398,-1.5784,-1.5784,-1.5581,-1.5296,-1.5689,-1.5581,-1.5296,-1.5689,-1.5784,-1.5784,-1.5784,-1.5784,-1.5784,-1.5784,-1.5784,-1.5784,-1.5784,-1.5784,-1.5784,-1.5784,-1.5784,-1.5534,-1.4268,-1.2909,-1.1609,-1.0337,-0.9023,-0.7988,-0.7988,-0.7988,-0.7988,-0.7988,-0.7988,-0.8287,-0.9262,-0.9756,-1.019,-1.073,-1.3006,-1.4076,-1.2193,-1.2425,-1.3102,-1.3824,-1.3584,-1.398,-1.5629,-1.5784,-1.5784,-1.5784,-1.6103,-1.6716,-1.7638,-1.801,-1.7451,-1.5879,-1.5784,-1.5784,-1.5784,-1.5784,-1.5784,-1.5784,-1.5784,-1.6622,-1.8133,-1.6879,-1.5732,0.0,0.0,0.0,0.0,0.0,0.0,0.0,0.0,0.0,0.0,0.0,0.0,0.0,-0.1684,-0.3044,-0.2943,-0.4632,0.0,0.0,-0.3618,-0.2969,-0.2969,-0.1254,-0.0044,0.0,0.0,-0.0563,-0.1886,-0.3111,-0.445,-0.5935,-0.713,-0.7889,-0.7982,-0.7988,-0.7988,-0.7988,-0.7988,-0.7988,-0.8038,-1.0583,-1.1804,-1.1999,-1.4519,-1.5737,-1.5784,-1.5784,-1.5092,-1.4076,-1.5296,-1.5045,-1.4064,-1.5343,-1.5784,-1.5784,-1.5784,-1.5784,-1.5784,-1.5784,-1.5784,-1.5784,-1.5784,-1.5784,-1.5784,-1.5784,-1.5784,-1.5534,-1.4268,-1.2909,-1.1609,-1.0337,-0.9023,-0.7988,-0.7988,-0.7988,-0.7988,-0.7988,-0.7988,-0.7988,-0.8038,-0.9114,-0.9608,-0.8329,-1.0288,-1.1999,-1.1901,-1.0877,-1.1014,-1.3584,-1.2764,-1.2969,-1.5534,-1.5784,-1.5784,-1.5784,-1.6951,-1.7638,-1.7684,-1.8826,-1.8349,-1.5913,-1.5784,-1.5784,-1.5784,-1.5784,-1.5784,-1.5784,-1.5784,-1.7063,-1.9405,-1.818,-1.7531,0.0,0.0,0.0,0.0,0.0,0.0,0.0,0.0,0.0,0.0,0.0,-0.0259,-0.1054,-0.2221,-0.3334,-0.3999,-0.4594,-0.4836,0.0,-0.2882,-0.164,-0.1055,-0.039,0.0,0.0,0.0,-0.0167,-0.065,-0.2598,-0.4034,-0.45,-0.6595,-0.7834,-0.7889,-0.7934,-0.7988,-0.7988,-0.7988,-0.7988,-0.7988,-0.8874,-0.9805,-1.0681,-1.1551,-1.2425,-1.3258,-1.4172,-1.4316,-1.4016,-1.5296,-1.5534,-1.5188,-1.5629,-1.5784,-1.5784,-1.5784,-1.5784,-1.5784,-1.5784,-1.5784,-1.5784,-1.5784,-1.5784,-1.5784,-1.5784,-1.5784,-1.5724,-1.5296,-1.3596,-1.1804,-1.1365,-0.9657,-0.7988,-0.7988,-0.7988,-0.7988,-0.7988,-0.7988,-0.7988,-0.7988,-0.8386,-0.8528,-0.8088,-0.8726,-0.9312,-0.9312,-0.9706,-1.0632,-1.2328,-1.2193,-1.292,-1.5534,-1.5784,-1.615,-1.6998,-1.818,-1.8549,-1.7731,-1.8102,-1.7544,-1.5879,-1.5784,-1.5784,-1.5784,-1.5784,-1.5784,-1.5784,-1.5784,-1.7063,-1.9497,-1.9085,-1.9281,0.0,0.0,0.0,0.0,0.0,0.0,0.0,0.0,0.0,0.0,0.0,-0.0222,-0.1012,-0.1959,-0.284,-0.3381,-0.3793,-0.3802,0.0,-0.184,-0.0628,-0.0069,0.0,0.0,0.0,0.0,0.0,0.0,-0.2332,-0.3727,-0.3814,-0.6291,-0.776,-0.7807,-0.7914,-0.7988,-0.7988,-0.7988,-0.7988,-0.7988,-0.8478,-0.9164,-1.0002,-1.0485,-1.1121,-1.195,-1.3343,-1.392,-1.4016,-1.5296,-1.5784,-1.5784,-1.5784,-1.5784,-1.5784,-1.5784,-1.5784,-1.5784,-1.5784,-1.5784,-1.5784,-1.5784,-1.5784,-1.5784,-1.5784,-1.5784,-1.5784,-1.5784,-1.3932,-1.1901,-1.1901,-0.9944,-0.7889,-0.7385,-0.7633,-0.7889,-0.7385,-0.7683,-0.7988,-0.7988,-0.7988,-0.7988,-0.7988,-0.7988,-0.7988,-0.7988,-0.8726,-0.9895,-1.1658,-1.1901,-1.292,-1.5534,-1.5784,-1.6339,-1.7591,-1.8411,-1.8549,-1.7731,-1.7684,-1.7138,-1.5832,-1.5784,-1.5784,-1.5784,-1.5784,-1.5784,-1.5784,-1.5784,-1.6842,-1.8856,-1.9314,-1.9906]}]]